     2              OBSERVATION DATA    GPS                 RINEX VERSION / TYPE
teqc 2000Jul20 Karen Wendt 20030331 19:00:18UTC             PGM / RUN BY / DATE
                                                            COMMENT
L2: 1 -> 1; 150 -> 5; 250 -> 9                              COMMENT
L2: 1 -> 1; 150 -> 5; 250 -> 9                              COMMENT
L2: 1 -> 1; 150 -> 5; 250 -> 9                              COMMENT
L2: 1 -> 1; 150 -> 5; 250 -> 9                              COMMENT
L2: 1 -> 1; 150 -> 5; 250 -> 9                              COMMENT
L2: 1 -> 1; 150 -> 5; 250 -> 9                              COMMENT
L2: 1 -> 1; 150 -> 5; 250 -> 9                              COMMENT
L2: 1 -> 1; 150 -> 5; 250 -> 9                              COMMENT
L2: 1 -> 1; 150 -> 5; 250 -> 9                              COMMENT
L2: 1 -> 1; 150 -> 5; 250 -> 9                              COMMENT
L2: 1 -> 1; 150 -> 5; 250 -> 9                              COMMENT
L2: 1 -> 1; 150 -> 5; 250 -> 9                              COMMENT
L2: 1 -> 1; 150 -> 5; 250 -> 9                              COMMENT
L2: 1 -> 1; 150 -> 5; 250 -> 9                              COMMENT
Original Marker Name: go42 Gold_1942_USC&GS                 COMMENT
Campaign Name: USGS 2003                                    COMMENT
4-Character Station Name: GO42                              COMMENT
6-Character Antenna Code: DMRCHT                            COMMENT
Vertical Measurement Point: BCR                             COMMENT
Vertical Offset to Rinex Ref. Point: 0.0348                 COMMENT
Radial Measurement Point: ECF                               COMMENT
Radial Offset to Rinex Ref. Point: 0.1897                   COMMENT
Antenna Height from Field Measurement: 1.2600 m             COMMENT
Additional Antenna Identification Info.:                    COMMENT
Turborogue and Ashtech Choke Ring                           COMMENT
Original XYZ: -2616034.2623 -4467880.5636 3713271.1981      COMMENT
New XYZ position is based on association with SCEC monument COMMENT
E1F1E7F9+0011. Position of that monument is believed to be  COMMENT
valid to within 1 m horizontally; vertical accuracy         COMMENT
should be no worse than 3-times this value.                 COMMENT
                                                            COMMENT
Revised Rinex header created by UCSD GPS archive for        COMMENT
GSAC on 11-Jul-2003 (2003:192) 16:21:05 GMT                 COMMENT
For assistance contact dagnew@ucsd.edu                      COMMENT
or anderson@python.ucsd.edu                                 COMMENT
                                                            COMMENT
GOLD 1942                                                   MARKER NAME
JMS US GEOLOGICAL SURVEY                                    OBSERVER / AGENCY
LP019992803 ASHTECH Z-XII3 CD00                             REC # / TYPE / VERS
CR619992805 DORNE-MARGOL. TYPE T                            ANT # / TYPE
 -2616053.6173 -4467854.6723  3713257.5710                  APPROX POSITION XYZ
        1.2108        0.0000        0.0000                  ANTENNA: DELTA H/E/N
     1     1     0                                          WAVELENGTH FACT L1/2
     5    C1    L1    L2    P1    P2                        # / TYPES OF OBSERV
    30                                                      INTERVAL
  2003     3    26     0     1    0.000000                  TIME OF FIRST OBS
  2003     3    26    23    59   30.000000                  TIME OF LAST OBS
                                                            END OF HEADER
 03  3 26  0  1  0.0000000  0 10G17G14G 2G 6G15G 3G16G26G23G18
  21026283.124   -24683518.64349 -18789590.60747  21026282.558    21026288.896
  23650792.222    -7044339.39149  -5471895.83045  23650791.668    23650801.227
  24819172.690    -7706456.59549  -5994617.70145  24819171.974    24819182.699
  23754270.960    -7930953.06249  -6169134.68545  23754270.880    23754281.161
  20425858.609   -25898635.00749 -19367543.93848  20425857.933    20425864.048
  22733744.260   -11974220.74649  -9318364.82046  22733744.007    22733751.143
  24096918.561    -8063156.34249  -6260426.12345  24096918.281    24096926.972
  23253534.322    -8055102.72449  -6260605.16045  23253534.423    23253541.270
  20936919.334   -22308413.32049 -17123672.22548  20936918.853    20936924.722
  20381387.267   -26449128.20849 -20569075.86748  20381386.889    20381391.500
 03  3 26  0  1 30.0000000  0 10G17G14G 2G 6G15G 3G16G26G23G18
  21031330.098   -24656996.36049 -18768923.90547  21031329.544    21031335.889
  23629653.593    -7155422.96649  -5558454.17245  23629653.012    23629662.418
  24823565.627    -7683372.27549  -5976629.99745  24823564.934    24823575.433
  23774972.210    -7822167.29949  -6084366.74645  23774972.119    23774982.552
  20421394.151   -25922095.73249 -19385825.00948  20421393.483    20421399.611
  22719801.679   -12047489.34049  -9375457.18846  22719801.469    22719808.570
  24108662.114    -8001443.89149  -6212338.61545  24108661.830    24108670.499
  23270716.614    -7964809.38349  -6190246.75945  23270716.778    23270723.543
  20943348.498   -22274627.74649 -17097345.80848  20943348.042    20943353.908
  20382923.899   -26441053.17949 -20562783.63348  20382923.516    20382928.159
 03  3 26  0  2  0.0000000  0 10G17G14G 2G 6G15G 3G16G26G23G18
  21036427.844   -24630207.36249 -18748049.37447  21036427.284    21036433.667
  23608536.590    -7266393.19049  -5644924.18745  23608535.971    23608545.257
  24828022.499    -7659951.50049  -5958380.11645  24828021.928    24828032.394
  23795698.797    -7713247.94049  -5999494.72445  23795698.910    23795709.426
  20416979.619   -25945294.15949 -19403901.69648  20416978.970    20416985.101
  22705933.021   -12120369.48749  -9432246.87846  22705932.810    22705939.949
  24120453.197    -7939482.04649  -6164056.76645  24120452.958    24120461.531
  23287974.164    -7874120.69749  -6119580.30145  23287974.221    23287981.055
  20949824.981   -22240593.93949 -17070825.96248  20949824.498    20949830.342
  20384527.624   -26432625.41649 -20556216.54748  20384527.235    20384531.888
 03  3 26  0  2 30.0000000  0  9G17G14G 6G15G 3G16G26G23G18
  21041576.696   -24603149.78549 -18726965.56347  21041576.150    21041582.537
  23587441.843    -7377245.95849  -5731302.67845  23587441.235    23587450.325
  23816450.857    -7604195.95349  -5914519.36645  23816450.974    23816461.551
  20412615.415   -25968228.01649 -19421772.22448  20412614.781    20412620.947
  22692138.995   -12192857.60749  -9488731.08446  22692138.739    22692145.865
  24132291.495    -7877272.43749  -6115581.88945  24132291.202    24132299.785
  23305306.507    -7783038.33249  -6048607.07145  23305306.592    23305313.443
  20956348.556   -22206312.25749 -17044112.96847  20956348.072    20956353.950
  20386198.461   -26423845.06649 -20549374.71648  20386198.079    20386202.723
 03  3 26  0  3  0.0000000  0  9G17G14G 6G15G 3G16G26G23G18
  21046777.146   -24575821.16949 -18705670.55147  21046776.630    21046782.994
  23566370.232    -7487976.83649  -5817586.20745  23566369.572    23566378.668
  23837228.096    -7495012.28449  -5829441.38645  23837228.059    23837238.603
  20408302.030   -25990894.85549 -19439434.68848  20408301.387    20408307.570
  22678420.248   -12264949.86349  -9544906.83846  22678420.016    22678427.127
  24144176.560    -7814816.43749  -6066914.99245  24144176.304    24144184.929
  23322713.480    -7691563.88349  -5977328.33345  23322713.631    23322720.494
  20962919.252   -22171782.87749 -17017206.96147  20962918.773    20962924.656
  20387936.445   -26414711.83249 -20542257.90948  20387936.085    20387940.736
 03  3 26  0  3 30.0000000  0  9G17G14G 6G15G 3G16G26G23G18
  21052028.484   -24548225.30749 -18684167.29847  21052027.964    21052034.354
  23545321.396    -7598587.71849  -5903776.23745  23545320.774    23545329.918
  23858029.021    -7385703.86449  -5744266.19045  23858029.089    23858039.421
  20404038.768   -26013298.25049 -19456891.86948  20404038.148    20404044.298
  22664776.387   -12336648.63249  -9600775.97546  22664776.172    22664783.249
  24156107.008    -7752121.76049  -6018062.12045  24156106.775    24156115.456
  23340193.799    -7599704.71549  -5905749.80545  23340193.930    23340200.778
  20969535.963   -22137011.87449 -16990112.67647  20969535.493    20969541.384
  20389740.494   -26405231.51049 -20534870.64448  20389740.107    20389744.769
 03  3 26  0  4  0.0000000  0  9G17G14G 6G15G 3G16G26G23G18
  21057331.064   -24520360.19649 -18662454.24247  21057330.533    21057336.951
  23524296.096    -7709074.65049  -5989869.68445  23524295.569    23524304.673
  23878853.679    -7276271.45549  -5658994.40045  23878853.583    23878864.041
  20399826.184   -26035435.44949 -19474141.62648  20399825.555    20399831.699
  22651208.229   -12407949.69049  -9656335.21346  22651208.015    22651215.014
  24168082.600    -7689189.80049  -5969024.35645  24168082.365    24168091.166
  23357746.919    -7507462.39749  -5833872.72245  23357747.059    23357753.981
  20976198.612   -22101999.47849 -16962830.29447  20976198.130    20976204.040
  20391610.665   -26395403.70549 -20527212.61248  20391610.302    20391614.948
 03  3 26  0  4 30.0000000  0  9G17G14G 6G15G 3G16G26G23G18
  21062684.805   -24492226.15149 -18640531.62347  21062684.287    21062690.696
  23503294.963    -7819435.31149  -6075864.75645  23503294.438    23503303.537
  23899701.214    -7166718.31449  -5573628.53245  23899701.181    23899711.486
  20395664.334   -26057306.09249 -19491183.67248  20395663.716    20395669.799
  22637715.939   -12478851.68249  -9711583.47946  22637715.736    22637722.739
  24180102.803    -7626024.07049  -5919804.41845  24180102.473    24180111.314
  23375372.296    -7414840.77649  -5761700.07845  23375372.366    23375379.443
  20982906.707   -22066748.10049 -16935361.68747  20982906.216    20982912.118
  20393546.579   -26385230.44949 -20519285.39248  20393546.192    20393550.837
 03  3 26  0  5  0.0000000  0  9G17G14G 6G15G 3G16G26G23G18
  21068090.045   -24463821.46049 -18618398.11247  21068089.535    21068095.935
  23482318.483    -7929666.27049  -6161758.77545  23482318.000    23482327.007
  23920571.356    -7057046.00549  -5488169.81445  23920571.283    23920581.612
  20391553.592   -26078908.47049 -19508016.68448  20391552.942    20391558.979
  22624300.240   -12549351.64749  -9766518.48646  22624300.033    22624307.081
  24192166.984    -7562626.65449  -5870403.95845  24192166.672    24192175.522
  23393069.406    -7321841.83249  -5689233.41245  23393069.515    23393076.615
  20989660.166   -22031258.52849 -16907707.47747  20989659.691    20989665.582
  20395548.118   -26374712.28349 -20511089.41648  20395547.726    20395552.371
 03  3 26  0  5 30.0000000  0  9G17G14G 6G15G 3G16G26G23G18
  21073546.969   -24435145.27549 -18596053.04947  21073546.467    21073552.832
  23461367.252    -8039764.31649  -6247549.23245  23461366.794    23461375.701
  23941463.734    -6947256.50349  -5402619.77745  23941463.709    23941474.122
  20387494.149   -26100240.99849 -19524639.42248  20387493.502    20387499.529
  22610961.610   -12619446.95049  -9821138.16346  22610961.417    22610968.414
  24204274.860    -7499000.20749  -5820825.03045  24204274.419    24204283.385
  23410837.844    -7228468.33949  -5616474.87845  23410837.934    23410844.987
  20996458.695   -21995531.99149 -16879868.61747  20996458.214    20996464.106
  20397615.148   -26363849.91549 -20502625.23048  20397614.775    20397619.417
 03  3 26  0  6  0.0000000  0  9G17G14G 6G15G 3G16G26G23G18
  21079055.645   -24406197.00649 -18573495.97547  21079055.134    21079061.520
  23440441.740    -8149727.26449  -6333234.43645  23440441.331    23440450.212
  23962377.767    -6837352.66049  -5316980.63145  23962377.701    23962388.351
  20383486.167   -26121303.05249 -19541051.40648  20383485.527    20383491.539
  22597700.307   -12689135.76649  -9875441.10246  22597700.098    22597707.042
  24216425.621    -7435148.30849  -5771070.43445  24216425.197    24216434.077
  23428676.926    -7134723.58449  -5543427.05945  23428677.015    23428684.001
  21003301.903   -21959570.64349 -16851846.80047  21003301.427    21003307.328
  20399747.454   -26352644.67249 -20493893.86948  20399747.049    20399751.686
 03  3 26  0  6 30.0000000  0  9G17G14G 6G15G 3G16G26G23G18
  21084616.201   -24376976.00449 -18550726.38047  21084615.694    21084622.142
  23419542.479    -8259551.78749  -6418811.78545  23419542.199    23419551.090
  23983313.063    -6727336.45549  -5231253.95445  23983313.188    23983323.927
  20379529.957   -26142093.09749 -19557251.43248  20379529.335    20379535.349
  22584516.740   -12758415.61049  -9929425.36146  22584516.525    22584523.450
  24228618.702    -7371073.46449  -5721142.10645  24228618.277    24228627.223
  23446586.142    -7040610.41049  -5470092.16145  23446586.156    23446593.161
  21010189.575   -21923375.64649 -16823642.90847  21010189.099    21010195.023
  20401944.758   -26341097.63549 -20484896.17148  20401944.378    20401949.027
 03  3 26  0  7  0.0000000  0  9G17G14G 6G15G 3G16G26G23G18
  21090228.828   -24347481.34849 -18527743.54347  21090228.339    21090234.821
  23398670.150    -8369235.33349  -6504279.28945  23398669.888    23398678.775
  24004269.396    -6617210.39649  -5145441.67545  24004269.509    24004280.488
  20375625.627   -26162610.30049 -19573238.85148  20375624.988    20375631.042
  22571411.408   -12827284.13549  -9983089.10346  22571411.167    22571418.147
  24240853.622    -7306778.56649  -5671042.31745  24240853.266    24240862.123
  23464564.814    -6946131.81949  -5396472.53345  23464564.890    23464571.965
  21017121.426   -21886948.50949 -16795258.12847  21017120.980    21017126.866
  20404206.834   -26329210.35349 -20475633.34848  20404206.442    20404211.091
 03  3 26  0  7 30.0000000  0  9G17G14G 6G15G 3G16G26G23G18
  21095893.662   -24317712.52949 -18504547.07747  21095893.157    21095899.672
  23377825.325    -8478775.09949  -6589634.77345  23377825.009    23377833.820
  24025246.238    -6506976.76849  -5059545.57545  24025246.348    24025257.570
  20371773.511   -26182853.26249 -19589012.57748  20371772.885    20371778.929
  22558384.874   -12895738.93449 -10036430.46446  22558384.665    22558391.593
  24253129.960    -7242266.64149  -5620773.41145  24253129.658    24253138.592
  23482612.524    -6851290.66149  -5322570.37645  23482612.586    23482619.784
  21024097.171   -21850290.82649 -16766693.70547  21024096.681    21024102.607
  20406533.445   -26316983.90149 -20466106.24048  20406533.051    20406537.702
 03  3 26  0  8  0.0000000  0  9G17G14G 6G15G 3G16G26G23G18
  21101610.829   -24287668.89949 -18481136.47847  21101610.299    21101616.793
  23357008.344    -8588168.67249  -6674876.32445  23357007.960    23357016.720
  24046242.998    -6396638.26349  -4973567.76245  24046243.242    24046254.470
  20367973.744   -26202821.13049 -19604571.94648  20367973.116    20367979.185
  22545437.505   -12963778.16249 -10089448.00946  22545437.279    22545444.140
  24265446.920    -7177540.84349  -5570337.84945  24265446.631    24265455.643
  23500728.664    -6756090.01349  -5248388.09345  23500728.754    23500735.957
  21031116.362   -21813404.54449 -16737951.15447  21031115.911    21031121.837
  20408924.367   -26304419.54149 -20456315.82948  20408923.976    20408928.621
 03  3 26  0  8 30.0000000  0  9G17G14G 6G15G 3G16G26G23G18
  21107380.317   -24257350.12149 -18457511.46747  21107379.785    21107386.262
  23336219.905    -8697412.76449  -6760001.41345  23336219.422    23336228.136
  24067259.537    -6286196.72849  -4887509.67445  24067259.662    24067271.098
  20364226.564   -26222512.61749 -19619915.95148  20364225.930    20364232.015
  22532569.479   -13031399.16249 -10142139.64246  22532569.318    22532576.198
  24277804.184    -7112603.86949  -5519737.74445  24277803.916    24277812.966
  23518912.656    -6660533.00049  -5173928.13845  23518912.785    23518919.865
  21038178.888   -21776290.84649 -16709031.39047  21038178.422    21038184.321
  20411379.390   -26291518.23549 -20446262.85848  20411378.986    20411383.641
 03  3 26  0  9  0.0000000  0  9G17G14G 6G15G 3G16G26G23G18
  21113202.326   -24226755.33349 -18433671.38947  21113201.785    21113208.249
  23315460.260    -8806504.83349  -6845008.03045  23315459.803    23315468.421
  24088295.179    -6175655.09049  -4801373.59745  24088295.339    24088306.747
  20360532.105   -26241926.89649 -19635043.95648  20360531.477    20360537.574
  22519781.484   -13098600.05249 -10194503.92946  22519781.350    22519788.284
  24290200.953    -7047459.07049  -5468975.70245  24290200.684    24290209.736
  23537163.824    -6564622.70049  -5099192.87845  23537163.980    23537171.018
  21045284.314   -21738951.67549 -16679935.93847  21045283.833    21045289.766
  20413898.251   -26278281.59149 -20435948.58648  20413897.853    20413902.520
 03  3 26  0  9 30.0000000  0  9G17G14G 6G15G 3G16G26G23G18
  21119076.927   -24195884.19949 -18409615.97647  21119076.378    21119082.821
  23294729.925    -8915442.98449  -6929894.69245  23294729.395    23294738.036
  24109349.419    -6065016.02949  -4715161.60545  24109349.524    24109360.940
  20356890.561   -26261063.31449 -19649955.44048  20356889.938    20356896.015
  22507073.876   -13165379.18349 -10246539.57346  22507073.717    22507080.580
  24302636.646    -6982109.64049  -5418054.20345  24302636.425    24302645.469
  23555481.482    -6468362.62449  -5024185.07545  23555481.639    23555488.624
  21052432.200   -21701389.17449 -16650666.46547  21052431.745    21052437.684
  20416480.573   -26264711.26849 -20425374.30548  20416480.175    20416484.852
 03  3 26  0 10  0.0000000  0  9G17G14G 6G15G 3G16G26G23G18
  21125004.355   -24164735.64349 -18385344.39447  21125003.804    21125010.233
  23274029.510    -9024223.27649  -7014658.36645  23274029.085    23274037.554
  24130421.859    -5954281.19849  -4628874.98545  24130421.935    24130433.275
  20353302.289   -26279919.95149 -19664648.92048  20353301.652    20353307.711
  22494447.056   -13231733.51449 -10298244.20846  22494446.898    22494453.712
  24315110.819    -6916557.98249  -5366975.12845  24315110.609    24315119.596
  23573865.336    -6371754.87849  -4948906.37645  23573865.492    23573872.586
  21059622.491   -21663604.08749 -16621223.54547  21059621.997    21059627.928
  20419126.304   -26250807.91049 -20414540.51948  20419125.923    20419130.554
 03  3 26  0 10 30.0000000  0  9G17G14G 6G15G 3G16G26G23G18
  21130984.677   -24133308.91449 -18360856.04547  21130984.114    21130990.582
  23253359.713    -9132843.01849  -7099296.90945  23253359.365    23253367.718
  24151512.170    -5843452.88349  -4542515.52245  24151512.166    24151523.385
  20349767.407   -26298495.94449 -19679123.71048  20349766.770    20349772.820
  22481901.452   -13297660.64749 -10349615.95046  22481901.274    22481908.145
  24327622.918    -6850806.91049  -5315740.66745  24327622.677    24327631.790
  23592314.863    -6274802.65449  -4873359.24145  23592314.970    23592322.037
  21066854.831   -21625597.77349 -16591608.24247  21066854.350    21066860.291
  20421835.201   -26236572.49049 -20403447.97948  20421834.808    20421839.469
 03  3 26  0 11  0.0000000  0  9G17G14G 6G15G 3G16G26G23G18
  21137017.869   -24101604.08349 -18336151.00147  21137017.327    21137023.828
  23232720.876    -9241300.11249  -7183808.71045  23232720.453    23232728.801
  24172619.588    -5732534.20749  -4456085.64645  24172619.473    24172630.801
  20346286.061   -26316790.60249 -19693379.27948  20346285.430    20346291.494
  22469437.398   -13363159.23449 -10400653.76246  22469437.223    22469444.187
  24340172.130    -6784860.04849  -5264353.64145  24340171.990    24340181.253
  23610829.226    -6177509.50149  -4797546.44645  23610829.223    23610836.357
  21074128.871   -21587372.58349 -16561822.38647  21074128.385    21074134.328
  20424606.915   -26222006.93349 -20392098.19148  20424606.549    20424611.195
 03  3 26  0 11 30.0000000  0  9G17G14G 6G15G 3G16G26G23G18
  21143104.376   -24069619.37849 -18311227.87447  21143103.844    21143110.335
  23212113.765    -9349590.47049  -7268190.57546  23212113.389    23212121.684
  24193743.933    -5621526.32849  -4369586.27445  24193743.889    24193755.214
  20342858.594   -26334801.82649 -19707413.99348  20342857.963    20342864.057
  22457055.624   -13428226.14349 -10451355.21246  22457055.424    22457062.378
  24352758.505    -6718718.99949  -5212815.30445  24352758.237    24352767.663
  23629408.076    -6079877.27449  -4721469.44845  23629408.081    23629415.163
  21081444.457   -21548928.90049 -16531866.27647  21081443.980    21081449.919
  20427441.467   -26207111.49749 -20380491.35648  20427441.087    20427445.720
 03  3 26  0 12  0.0000000  0  9G17G14G 6G15G 3G16G26G23G18
  21149243.960   -24037356.04049 -18286087.63247  21149243.423    21149249.880
  23191538.430    -9457713.78749  -7352442.27046  23191538.052    23191546.256
  24214884.339    -5510434.04749  -4283021.12345  24214884.194    24214895.528
  20339484.903   -26352530.63949 -19721228.64948  20339484.268    20339490.390
  22444755.985   -13492861.25149 -10501720.20046  22444755.759    22444762.654
  24365380.986    -6652389.30149  -5161129.97445  24365380.538    24365390.098
  23648050.352    -5981911.16149  -4645132.28345  23648050.436    23648057.540
  21088800.877   -21510270.68149 -16501742.99847  21088800.397    21088806.329
  20430338.097   -26191889.57649 -20368630.11948  20430337.702    20430342.331
 03  3 26  0 12 30.0000000  0  9G17G14G 6G15G 3G16G26G23G18
  21155437.065   -24004811.53849 -18260728.30347  21155436.516    21155442.918
  23170995.847    -9565665.27849  -7436560.07346  23170995.384    23171003.575
  24236040.641    -5399257.76049  -4196390.53245  24236040.468    24236051.974
  20336165.562   -26369973.86749 -19734820.76948  20336164.946    20336171.036
  22432539.260   -13557060.21049 -10551745.32746  22432539.057    22432545.925
  24378039.011    -6585871.82149  -5109298.31245  24378038.545    24378047.979
  23666756.060    -5883612.27649  -4568535.81245  23666756.195    23666763.282
  21096198.271   -21471397.28549 -16471452.04947  21096197.796    21096203.721
  20433297.009   -26176340.50149 -20356513.95448  20433296.613    20433301.222
 03  3 26  0 13  0.0000000  0  9G17G14G 6G15G 3G16G26G23G18
  21161683.618   -23971985.72649 -18235149.76647  21161683.052    21161689.464
  23150486.379    -9673442.44549  -7520542.04346  23150485.923    23150494.043
  24257212.421    -5287999.92949  -4109696.38245  24257212.341    24257223.943
  20332900.771   -26387130.50549 -19748189.57248  20332900.146    20332906.211
  22420405.908   -13620821.37249 -10601429.30646  22420405.666    22420412.524
  24390731.845    -6519169.98949  -5057322.99345  24390731.548    24390740.975
  23685524.453    -5784983.98549  -4491682.65345  23685524.682    23685531.745
  21103636.197   -21432310.61849 -16440994.91747  21103635.697    21103641.665
  20436317.872   -26160465.84749 -20344144.09148  20436317.472    20436322.072
 03  3 26  0 13 30.0000000  0  9G17G14G 6G15G 3G16G26G23G18
  21167983.632   -23938879.05449 -18209352.38347  21167983.060    21167989.500
  23130010.329    -9781043.69749  -7604386.94046  23130009.958    23130017.941
  24278399.075    -5176663.90649  -4022941.33645  24278399.064    24278410.685
  20329690.530   -26404000.64049 -19761335.12648  20329689.908    20329695.912
  22408356.075   -13684143.69449 -10650771.34146  22408355.828    22408362.676
  24403459.181    -6452287.75449  -5005207.09745  24403458.956    24403468.376
  23704354.789    -5686030.26749  -4414575.91045  23704354.966    23704361.991
  21111114.232   -21393013.28449 -16410373.63047  21111113.750    21111119.696
  20439400.253   -26144267.66049 -20331522.12748  20439399.858    20439404.468
 03  3 26  0 14  0.0000000  0  9G17G14G 6G15G 3G16G26G23G18
  21174337.668   -23905488.34249 -18183333.66847  21174337.111    21174343.558
  23109568.717    -9888463.98149  -7688090.82446  23109568.369    23109576.327
  24299600.583    -5065249.81249  -3936125.44545  24299600.607    24299612.407
  20326535.430   -26420580.84649 -19774254.76048  20326534.783    20326540.794
  22396390.579   -13747022.80049 -10699768.01046  22396390.302    22396397.147
  24416220.824    -6385225.67949  -4952951.08945  24416220.611    24416230.003
  23723246.837    -5586751.88749  -4337216.19345  23723247.048    23723254.014
  21118632.565   -21353504.50149 -16379587.57547  21118632.055    21118637.984
  20442544.460   -26127744.90649 -20318647.24648  20442544.081    20442548.641
 03  3 26  0 14 30.0000000  0  9G17G14G 6G15G 3G16G26G23G18
  21180745.422   -23871815.44249 -18157095.06947  21180744.865    21180751.340
  23089161.730    -9995702.44649  -7771653.03746  23089161.357    23089169.303
  24320815.969    -4953762.47849  -3849252.50445  24320815.929    24320827.987
  20323435.240   -26436872.33649 -19786949.42448  20323434.619    20323440.624
  22384509.278   -13809458.74049 -10748419.35446  22384509.067    22384515.988
  24429015.772    -6317988.91049  -4900558.94345  24429015.464    24429024.974
  23742199.708    -5487154.14749  -4259607.61445  23742199.877    23742206.889
  21126190.315   -21313788.17249 -16348639.80047  21126189.813    21126195.745
  20445749.640   -26110901.59049 -20305522.58348  20445749.252    20445753.848
 03  3 26  0 15  0.0000000  0  9G17G14G 6G15G 3G16G26G23G18
  21187207.032   -23837859.46149 -18130635.89247  21187206.482    21187212.967
  23068789.848   -10102756.42649  -7855071.51646  23068789.470    23068797.404
  24342044.918    -4842203.84349  -3762323.99745  24342045.082    24342056.987
  20320390.301   -26452873.48949 -19799417.85148  20320389.677    20320395.704
  22372712.910   -13871449.16149 -10796723.54446  22372712.703    22372719.584
  24441843.459    -6250580.31549  -4848032.92145  24441843.094    24441852.511
  23761212.821    -5387239.85649  -4181752.37445  23761212.975    23761220.076
  21133787.326   -21273865.50349 -16317531.23947  21133786.854    21133792.801
  20449015.679   -26093738.31249 -20292148.59948  20449015.311    20449019.901
 03  3 26  0 15 30.0000000  0  9G17G14G 6G15G 3G16G26G23G18
  21193722.627   -23803619.91949 -18103955.75347  21193722.081    21193728.575
  23048453.610   -10209623.11149  -7938344.04946  23048453.218    23048461.142
  24363287.120    -4730576.34449  -3675341.82845  24363287.377    24363299.268
  20317400.799   -26468583.43249 -19811659.35948  20317400.176    20317406.202
  22361001.687   -13932992.14049 -10844679.08046  22361001.481    22361008.302
  24454703.056    -6183002.97949  -4795375.38945  24454702.721    24454712.039
  23780285.523    -5287011.94949  -4103652.76345  23780285.651    23780292.864
  21141423.374   -21233738.04749 -16286263.09847  21141422.878    21141428.812
  20452342.365   -26076256.56749 -20278526.45448  20452341.988    20452346.539
 03  3 26  0 16  0.0000000  0  9G17G14G 6G15G 3G16G26G23G18
  21200292.355   -23769095.96349 -18077053.99847  21200291.813    21200298.275
  23028153.569   -10316299.63449  -8021468.42346  23028153.212    23028161.047
  24384542.103    -4618882.34349  -3588307.84145  24384542.243    24384554.200
  20314466.933   -26484001.06949 -19823673.09848  20314466.298    20314472.346
  22349375.996   -13994085.35449 -10892284.15246  22349375.779    22349382.585
  24467594.148    -6115259.69749  -4742588.56145  24467593.877    24467603.225
  23799417.356    -5186473.54049  -4025311.21145  23799417.516    23799424.776
  21149098.064   -21193407.41649 -16254836.64547  21149097.564    21149103.476
  20455729.431   -26058457.41649 -20264656.98848  20455729.053    20455733.606
 03  3 26  0 16 30.0000000  0  9G17G14G 6G15G 3G16G26G23G18
  21206916.464   -23734286.09849 -18049929.45547  21206915.918    21206922.389
  23007890.489   -10422782.86149  -8104442.18246  23007890.029    23007897.777
  24405809.526    -4507123.73049  -3501223.51645  24405809.619    24405821.321
  20311589.023   -26499124.73249 -19835457.76548  20311588.390    20311594.424
  22337836.373   -14054726.34949 -10939536.84146  22337836.148    22337843.029
  24480516.341    -6047353.38049  -4689674.68245  24480516.141    24480525.527
  23818607.770    -5085627.04049  -3946729.58745  23818607.950    23818615.249
  21156811.156   -21152874.71749 -16223252.73547  21156810.675    21156816.609
  20459176.679   -26040341.79749 -20250540.92248  20459176.307    20459180.872
 03  3 26  0 17  0.0000000  0  9G17G14G 6G15G 3G16G26G23G18
  21213594.753   -23699191.41249 -18022582.97447  21213594.205    21213600.708
  22987664.363   -10529070.80849  -8187263.80146  22987663.961    22987671.610
  24427088.646    -4395303.70749  -3414091.34045  24427088.447    24427100.146
  20308767.098   -26513954.01149 -19847013.04548  20308766.463    20308772.517
  22326382.943   -14114914.07949 -10986436.33746  22326382.727    22326389.675
  24493468.971    -5979287.29749  -4636636.33045  24493468.784    24493478.316
  23837856.159    -4984476.61549  -3867911.12645  23837856.326    23837863.514
  21164562.313   -21112142.17349 -16191513.09947  21164561.849    21164567.781
  20462683.840   -26021911.72549 -20236179.82748  20462683.459    20462688.016
 03  3 26  0 17 30.0000000  0  9G17G14G 6G15G 3G16G26G23G18
  21220327.350   -23663811.24249 -17995014.03247  21220326.813    21220333.335
  22967475.847   -10635160.70549  -8269931.10146  22967475.538    22967483.167
  24448378.967    -4283424.52049  -3326913.06745  24448378.629    24448390.321
  20306001.404   -26528487.67849 -19858337.97248  20306000.758    20306006.823
  22315016.361   -14174646.09949 -11032980.74146  22315016.146    22315022.997
  24506451.510    -5911064.64549  -4583475.97445  24506451.296    24506460.713
  23857161.805    -4883024.94349  -3788857.92145  23857162.000    23857169.242
  21172351.248   -21071211.21349 -16159618.85147  21172350.757    21172356.693
  20466250.549   -26003168.33649 -20221574.58848  20466250.170    20466254.749
 03  3 26  0 18  0.0000000  0 10G17G14G31G 6G15G 3G16G26G23G18
  21227114.224   -23628146.12649 -17967223.05247  21227113.665    21227120.233
  22947325.400   -10741051.35049  -8352443.14446  22947325.128    22947332.647
  24402734.135    -1568860.90449  -1204877.61645  24402734.218    24402742.986
  24469679.661    -4171490.08049  -3239691.73345  24469679.343    24469691.090
  20303291.863   -26542726.32149 -19869433.01448  20303291.214    20303297.295
  22303736.645   -14233921.95049 -11079169.68747  22303736.364    22303743.070
  24519463.063    -5842689.71649  -4530196.94945  24519462.819    24519472.187
  23876523.983    -4781276.51149  -3709573.47945  23876524.117    23876531.376
  21180177.299   -21030084.87949 -16127572.36447  21180176.829    21180182.803
  20469876.389   -25984114.62549 -20206727.54448  20469876.000    20469880.593
 03  3 26  0 18 30.0000000  0 11G 9G17G14G31G 6G15G 3G16G26G23G18
  24425089.383    -3167934.18549  -2461110.10445  24425089.103    24425099.130
  21233955.363   -23592195.63249 -17939209.69747  21233954.819    21233961.436
  22927213.415   -10846740.23549  -8434797.99146  22927213.101    22927220.538
  24384724.510    -1663503.32049  -1278624.87945  24384724.307    24384733.233
  24490990.336    -4059503.11049  -3152429.48245  24490990.060    24491001.861
  20300638.641   -26556669.05949 -19880297.48148  20300638.011    20300644.106
  22292543.828   -14292740.18649 -11125002.04847  22292543.563    22292550.332
  24532502.887    -5774166.22749  -4476802.20145  24532502.582    24532511.933
  23895942.039    -4679234.81849  -3630060.52245  23895942.153    23895949.361
  21188040.200   -20988765.04349 -16095375.09647  21188039.735    21188045.696
  20473560.964   -25964752.09049 -20191639.85648  20473560.559    20473565.129
 03  3 26  0 19  0.0000000  0 11G 9G17G14G31G 6G15G 3G16G26G23G18
  24412896.581    -3232006.59449  -2511036.52045  24412896.303    24412906.299
  21240851.522   -23555955.82649 -17910970.90347  21240851.005    21240857.674
  22907141.049   -10952221.01649  -8516990.68246  22907140.626    22907148.063
  24366765.973    -1757875.84249  -1352161.82645  24366765.849    24366774.508
  24512311.097    -3947462.34849  -3065125.31745  24512311.000    24512322.752
  20298042.634   -26570311.11649 -19890927.64748  20298041.998    20298048.102
  22281439.173   -14351095.10449 -11170473.38347  22281438.931    22281445.726
  24545570.845    -5705493.39849  -4423291.05345  24545570.675    24545580.124
  23915415.888    -4576899.40649  -3550318.67845  23915415.952    23915423.175
  21195940.378   -20947249.52749 -16063025.34947  21195939.896    21195945.842
  20477304.677   -25945078.60649 -20176309.87448  20477304.287    20477308.861
 03  3 26  0 19 30.0000000  0 11G 9G17G14G31G 6G15G 3G16G26G23G18
  24400753.874    -3295816.27949  -2560758.18545  24400753.689    24400763.566
  21247803.019   -23519425.65149 -17882505.85047  21247802.492    21247809.148
  22887108.674   -11057490.91749  -8599019.05246  22887108.295    22887115.743
  24348859.405    -1851975.91149  -1425486.48345  24348859.306    24348867.705
  24533641.695    -3835370.10249  -2977781.04145  24533641.523    24533653.634
  20295504.028   -26583651.44249 -19901322.69448  20295503.395    20295509.505
  22270423.136   -14408984.67949 -11215582.11747  22270422.887    22270429.678
  24558666.428    -5636674.18749  -4369665.84245  24558666.509    24558676.002
  23934945.001    -4474273.24349  -3470350.28445  23934945.062    23934952.337
  21203877.456   -20905539.79749 -16030524.26747  21203876.971    21203882.945
  20481107.419   -25925095.21849 -20160738.40048  20481107.035    20481111.600
 03  3 26  0 20  0.0000000  0 10G 9G17G14G31G15G 3G16G26G23G18
  24388662.024    -3359359.53949  -2610272.24345  24388661.791    24388671.510
  21254810.001   -23482603.94949 -17853813.63947  21254809.462    21254816.083
  22867117.028   -11162546.51149  -8680880.43446  22867116.755    22867124.216
  24331005.235    -1945799.92449  -1498596.03045  24331004.956    24331013.519
  20293023.216   -26596688.13549 -19911481.14748  20293022.573    20293028.696
  22259496.090   -14466406.46949 -11260326.34347  22259495.862    22259502.662
  24571789.999    -5567710.54049  -4315928.10245  24571789.863    24571799.444
  23954529.059    -4371358.45149  -3390156.98245  23954529.154    23954536.514
  21211851.332   -20863636.75649 -15997872.55847  21211850.851    21211856.842
  20484968.978   -25904802.39749 -20144925.81648  20484968.591    20484973.176
 03  3 26  0 20 30.0000000  0 10G 9G17G14G31G15G 3G16G26G23G18
  24376620.968    -3422634.86249  -2659577.51945  24376620.737    24376630.402
  21261872.109   -23445492.45649 -17824895.62047  21261871.572    21261878.139
  22847166.426   -11267386.81449  -8762574.06646  22847166.176    22847173.601
  24313203.625    -2039347.04549  -1571489.82145  24313203.390    24313211.847
  20290600.085   -26609421.71949 -19921403.41548  20290599.450    20290605.553
  22248658.183   -14523359.79149 -11304705.53247  22248657.965    22248664.784
  24584940.327    -5498607.49149  -4262081.73145  24584940.050    24584949.728
  23974167.182    -4268159.87449  -3309742.56345  23974167.229    23974174.613
  21219861.414   -20821543.57449 -15965072.68847  21219860.936    21219866.901
  20488888.860   -25884203.27849 -20128874.55748  20488888.488    20488893.057
 03  3 26  0 21  0.0000000  0 10G 9G17G14G31G15G 3G16G26G23G18
  24364631.249    -3485639.61349  -2708671.95945  24364631.147    24364640.974
  21268989.484   -23408090.63049 -17795751.36347  21268988.945    21268995.467
  22827257.335   -11372009.54549  -8844098.15546  22827257.049    22827264.450
  24295455.142    -2132615.09949  -1644166.15945  24295454.947    24295463.422
  20288234.767   -26621851.57549 -19931089.01048  20288234.148    20288240.202
  22237909.735   -14579843.32349 -11348718.64447  22237909.506    22237916.285
  24598116.180    -5429368.38549  -4208129.32945  24598115.730    24598125.477
  23993858.622    -4164680.84349  -3229109.59845  23993858.677    23993865.995
  21227907.333   -20779262.23049 -15932126.19647  21227906.856    21227912.822
  20492866.699   -25863299.66549 -20112586.02848  20492866.324    20492870.872
 03  3 26  0 21 30.0000000  0 10G 9G17G14G31G15G 3G16G26G23G18
  24352693.800    -3548371.39549  -2757553.66645  24352693.761    24352703.301
  21276162.031   -23370398.66849 -17766381.02347  21276161.470    21276168.003
  22807390.000   -11476412.79949  -8925451.22446  22807389.683    22807397.050
  24277760.366    -2225602.15949  -1716623.55545  24277760.096    24277768.559
  20285927.319   -26633977.41649 -19940537.71048  20285926.685    20285932.701
  22227250.875   -14635856.10949 -11392364.94347  22227250.635    22227257.343
  24611317.099    -5359997.11049  -4154073.96445  24611316.610    24611326.635
  24013602.611    -4060925.47049  -3148261.30545  24013602.689    24013610.003
  21235988.578   -20736794.90649 -15899034.78947  21235988.101    21235994.095
  20496902.061   -25842093.65949 -20096061.87348  20496901.700    20496906.290
 03  3 26  0 22  0.0000000  0 10G 9G17G14G31G15G 3G16G26G23G18
  24340808.694    -3610827.14249  -2806220.28645  24340808.660    24340818.192
  21283389.834   -23332416.43349 -17736784.49847  21283389.296    21283395.821
  22787564.919   -11580594.04549  -9006631.29946  22787564.518    22787571.918
  24260119.602    -2318305.87549  -1788860.14845  24260119.289    24260127.532
  20283677.887   -26645798.34649 -19949748.81948  20283677.262    20283683.253
  22216681.901   -14691396.44549 -11435643.09647  22216681.631    22216688.400
  24624542.737    -5290496.87649  -4099918.09745  24624542.254    24624552.046
  24033398.568    -3956896.95249  -3067200.16145  24033398.704    24033405.934
  21244104.901   -20694143.43549 -15865799.88847  21244104.443    21244110.406
  20500994.722   -25820586.66549 -20079303.17648  20500994.337    20500998.917
 03  3 26  0 22 30.0000000  0 10G 9G17G14G31G15G 3G16G26G23G18
  24328976.883    -3673001.98549  -2854668.06045  24328976.900    24328986.538
  21290673.345   -23294141.37549 -17706959.80747  21290672.804    21290679.373
  22767782.910   -11684548.75049  -9087634.85746  22767782.492    22767789.812
  24242533.459    -2410721.69449  -1860872.40545  24242533.144    24242541.361
  20281487.049   -26657311.28649 -19958719.93848  20281486.439    20281492.395
  22206203.414   -14746460.56349 -11478550.16847  22206203.175    22206210.040
  24637792.715    -5220868.71049  -4045662.56945  24637792.252    24637801.999
  24053246.324    -3852596.48249  -2985927.11645  24053246.324    24053253.727
  21252256.346   -20651307.32149 -15832421.11347  21252255.889    21252261.847
  20505144.729   -25798778.21549 -20062309.58448  20505144.354    20505148.922
 03  3 26  0 23  0.0000000  0 10G 9G17G14G31G15G 3G16G26G23G18
  24317199.197    -3734894.63549  -2902895.93545  24317199.133    24317208.653
  21298012.319   -23255574.89349 -17676908.03047  21298011.773    21298018.383
  22748044.210   -11788276.06049  -9168461.21146  22748043.777    22748051.060
  24225002.131    -2502848.93549  -1932659.79145  24225001.890    24225010.074
  20279354.652   -26668517.20049 -19967451.81548  20279354.045    20279359.967
  22195815.759   -14801048.27349 -11521086.02047  22195815.526    22195822.302
  24651065.918    -5151117.34749  -3991311.01745  24651065.532    24651075.388
  24073144.845    -3748028.81549  -2904445.87345  24073144.829    24073152.272
  21260442.261   -20608290.07749 -15798901.20347  21260441.812    21260447.775
  20509351.490   -25776671.53949 -20045083.60848  20509351.132    20509355.727
 03  3 26  0 23 30.0000000  0 10G 9G17G14G31G15G 3G16G26G23G18
  24305475.736    -3796500.95049  -2950900.71645  24305475.600    24305485.191
  21305407.028   -23216715.46949 -17646627.99647  21305406.494    21305413.127
  22728349.458   -11891772.04649  -9249107.31446  22728349.081    22728356.254
  24207526.453    -2594683.70249  -2004219.27945  24207526.079    24207534.399
  20277281.130   -26679413.70149 -19975942.59948  20277280.491    20277286.453
  22185519.331   -14855156.54549 -11563248.28547  22185519.065    22185525.771
  24664362.202    -5081245.03949  -3936865.21945  24664361.927    24664371.800
  24093093.836    -3643196.07549  -2822758.07745  24093093.938    24093101.272
  21268662.557   -20565092.08549 -15765240.44547  21268662.102    21268668.039
  20513614.992   -25754266.66249 -20027625.26548  20513614.640    20513619.221
 03  3 26  0 24  0.0000000  0 10G 9G17G14G31G15G 3G16G26G23G18
  24293807.306    -3857818.13449  -2998680.21445  24293807.157    24293816.710
  21312857.538   -23177562.84249 -17616119.48747  21312857.016    21312863.647
  22708699.240   -11995034.50349  -9329571.44546  22708698.835    22708705.966
  24190106.751    -2686223.87249  -2075549.20845  24190106.298    24190114.787
  20275266.554   -26690000.13849 -19984191.77148  20275265.945    20275271.907
  22175314.276   -14908783.93649 -11605035.83047  22175314.010    22175320.754
  24677680.968    -5011255.09649  -3882327.78045  24677680.557    24677690.866
  24113092.743    -3538101.45949  -2740866.21545  24113092.923    24113100.148
  21276916.920   -20521715.15949 -15731440.25947  21276916.477    21276922.403
  20517934.933   -25731565.37949 -20009935.95748  20517934.569    20517939.116
 03  3 26  0 24 30.0000000  0  9G 9G17G14G31G15G 3G26G23G18
  24282194.868    -3918841.22749  -3046230.56445  24282194.747    24282204.210
  21320364.268   -23138114.96549 -17585380.91347  21320363.739    21320370.372
  22689094.206   -12098059.05449  -9409850.18046  22689093.797    22689100.964
  24172744.076    -2777465.00749  -2146646.11945  24172743.608    24172752.013
  20273311.565   -26700273.61449 -19992197.07748  20273310.939    20273316.907
  22165201.388   -14961927.16749 -11646446.10747  22165201.150    22165207.883
  24133141.223    -3432746.30349  -2658771.32745  24133141.403    24133148.637
  21285205.407   -20478158.88049 -15697500.31447  21285204.949    21285210.905
  20522311.316   -25708567.09949 -19992015.22748  20522310.950    20522315.551
 03  3 26  0 25  0.0000000  0  9G 9G17G14G31G15G 3G26G23G18
  24270639.293    -3979565.36649  -3093547.99245  24270639.146    24270648.624
  21327927.636   -23098369.38149 -17554410.36147  21327927.103    21327933.735
  22669535.374   -12200840.86349  -9489939.78146  22669535.017    22669542.115
  24155439.181    -2868402.63649  -2217506.53145  24155438.748    24155447.229
  20271416.757   -26710231.02849 -19999956.09848  20271416.141    20271422.067
  22155181.462   -15014582.44249 -11687476.16447  22155181.217    22155187.835
  24153239.003    -3327131.77049  -2576474.33745  24153239.220    24153246.388
  21293528.118   -20434422.88649 -15663420.33347  21293527.648    21293533.634
  20526744.354   -25685271.46049 -19973862.78648  20526744.021    20526748.556
 03  3 26  0 25 30.0000000  0  9G 9G17G14G31G15G 3G26G23G18
  24259140.646    -4039991.57749  -3140633.25245  24259140.496    24259149.786
  21335546.907   -23058329.94449 -17523210.83447  21335546.399    21335553.015
  22650022.302   -12303382.10249  -9569841.91346  22650021.937    22650029.034
  24138191.794    -2959038.55649  -2288131.85245  24138191.348    24138199.774
  20269581.412   -26719875.76949 -20007471.48248  20269580.791    20269586.712
  22145253.798   -15066752.48049 -11728128.11247  22145253.540    22145260.165
  24173384.741    -3221265.41349  -2493981.09445  24173384.914    24173392.165
  21301883.833   -20390513.09849 -15629204.93347  21301883.403    21301889.361
  20531232.860   -25661684.21749 -19955483.12248  20531232.484    20531237.041
 03  3 26  0 26  0.0000000  0  9G 9G17G14G31G15G 3G26G23G18
  24247698.666    -4100119.28949  -3187485.92945  24247698.498    24247707.738
  21343221.822   -23017998.12349 -17491783.47747  21343221.305    21343227.893
  22630555.072   -12405682.44749  -9649556.33546  22630554.714    22630561.808
  24121001.697    -3049372.67649  -2358521.98945  24121001.279    24121009.647
  20267805.257   -26729209.41749 -20014744.45548  20267804.651    20267810.537
  22135418.290   -15118437.85349 -11768402.39747  22135418.069    22135424.756
  24193577.338    -3115152.75049  -2411295.93945  24193577.605    24193584.773
  21310271.982   -20346433.49549 -15594857.20647  21310271.526    21310277.456
  20535776.104   -25637809.19549 -19936879.22248  20535775.758    20535780.359
 03  3 26  0 26 30.0000000  0  9G 9G17G14G31G15G 3G26G23G18
  24236314.464    -4159942.10849  -3234101.01745  24236314.379    24236323.656
  21350952.967   -22977370.95949 -17460125.97947  21350952.433    21350958.992
  22611134.837   -12507735.73749  -9729078.25646  22611134.487    22611141.610
  24103870.238    -3139399.06549  -2428672.34845  24103869.799    24103878.235
  20266089.160   -26738227.56849 -20021771.58348  20266088.549    20266094.404
  22125676.051   -15169633.64449 -11808295.19547  22125675.833    22125682.463
  24213816.894    -3008793.43649  -2328418.59045  24213817.163    24213824.260
  21318692.691   -20302182.22649 -15560375.71547  21318692.246    21318698.193
  20540374.565   -25613644.33049 -19918049.46048  20540374.195    20540378.771
 03  3 26  0 27  0.0000000  0  9G 9G17G14G31G15G 3G26G23G18
  24224989.082    -4219457.63749  -3280476.64145  24224988.929    24224998.117
  21358740.410   -22936447.79549 -17428237.82747  21358739.852    21358746.413
  22591761.991   -12609539.72249  -9808405.91546  22591761.689    22591768.767
  24086797.824    -3229115.45149  -2498581.15045  24086797.537    24086805.650
  20264433.246   -26746929.40749 -20028552.23648  20264432.635    20264438.485
  22116027.314   -15220338.37349 -11847805.35747  22116027.083    22116033.601
  24234102.792    -2902190.84549  -2245351.67545  24234103.039    24234110.046
  21327145.805   -20257761.02949 -15525761.80747  21327145.335    21327151.299
  20545027.820   -25589191.25949 -19898995.12848  20545027.453    20545032.024
 03  3 26  0 27 30.0000000  0  9G 9G17G14G31G15G 3G26G23G18
  24213722.765    -4278661.63249  -3326609.52445  24213722.739    24213731.912
  21366584.382   -22895227.33149 -17396118.01447  21366583.822    21366590.438
  22572437.413   -12711090.85849  -9887536.54846  22572437.058    22572444.114
  24069784.983    -3318518.26149  -2568245.61045  24069784.685    24069792.695
  20262837.946   -26755312.74549 -20035084.70548  20262837.340    20262843.202
  22106472.467   -15270549.44149 -11886930.84347  22106472.228    22106478.724
  24254434.518    -2795346.96349  -2162096.72345  24254434.635    24254441.812
  21335631.096   -20213170.39849 -15491015.87347  21335630.660    21335636.598
  20549735.826   -25564450.44649 -19879716.57948  20549735.474    20549740.032
 03  3 26  0 28  0.0000000  0  9G 9G17G14G31G15G 3G26G23G18
  24202516.132    -4337552.16349  -3372498.17745  24202516.096    24202525.397
  21374484.716   -22853710.60749 -17363767.34947  21374484.202    21374490.884
  22553161.243   -12812387.67749  -9966469.02346  22553160.802    22553167.816
  24052832.105    -3407606.01049  -2637664.55645  24052831.762    24052839.758
  20261303.218   -26763377.76649 -20041369.14048  20261302.602    20261308.495
  22097011.623   -15320266.06049 -11925671.04447  22097011.427    22097017.995
  24274811.311    -2688266.16449  -2078657.15545  24274811.498    24274818.507
  21344148.167   -20168412.91649 -15456139.92347  21344147.734    21344153.674
  20554498.211   -25539424.17749 -19860215.59848  20554497.847    20554502.412
 03  3 26  0 28 30.0000000  0  9G 9G17G14G31G15G 3G26G23G18
  24191369.979    -4396125.45549  -3418139.58645  24191369.843    24191379.093
  21382441.814   -22811896.24749 -17331184.75147  21382441.274    21382447.939
  22533934.152   -12913426.61649 -10045200.55946  22533933.672    22533940.576
  24035939.683    -3496375.48449  -2706835.49145  24035939.296    24035947.430
  20259829.425   -26771122.54349 -20047404.03748  20259828.812    20259834.728
  22087645.381   -15369485.73449 -11964024.02747  22087645.221    22087651.805
  24295232.680    -2580950.58349  -1995034.65845  24295232.851    24295240.008
  21352696.847   -20123489.26449 -15421134.49147  21352696.406    21352702.387
  20559314.731   -25514113.05749 -19840492.65948  20559314.373    20559318.920
 03  3 26  0 29  0.0000000  0  9G 9G17G14G31G15G 3G26G23G18
  24180284.625    -4454379.05549  -3463531.87645  24180284.497    24180293.381
  21390455.526   -22769783.81049 -17298369.89347  21390454.986    21390461.709
  22514756.425   -13014205.95649 -10123729.80146  22514755.919    22514762.771
  24019108.215    -3584824.62549  -2775756.82945  24019107.858    24019116.026
  20258416.642   -26778546.58649 -20053189.01048  20258416.020    20258421.943
  22078373.964   -15418207.73549 -12001989.21647  22078373.780    22078380.302
  24315698.190    -2473403.93249  -1911232.11445  24315698.123    24315705.833
  21361276.754   -20078401.57449 -15386001.23947  21361276.296    21361282.305
  20564185.085   -25488519.35349 -19820549.52148  20564184.721    20564189.251
 03  3 26  0 29 30.0000000  0  9G 9G17G14G31G15G 3G26G23G18
  24169260.520    -4512310.59049  -3508673.24245  24169260.460    24169269.480
  21398525.754   -22727374.27649 -17265323.52747  21398525.229    21398532.034
  22495628.475   -13114723.44249 -10202055.00846  22495628.011    22495634.817
  24002338.123    -3672951.47749  -2844427.01645  24002337.768    24002345.951
  20257065.017   -26785649.47149 -20058723.72848  20257064.406    20257070.340
  22069197.357   -15466431.00149 -12039565.77947  22069197.163    22069203.646
  24336206.859    -2365630.03149  -1827252.47344  24336207.004    24336214.408
  21369887.498   -20033151.85649 -15350741.72847  21369887.055    21369893.018
  20569108.829   -25462644.84249 -19800387.57348  20569108.462    20569113.001
 03  3 26  0 30  0.0000000  0  9G 9G17G14G31G15G 3G26G23G18
  24158298.697    -4569914.38949  -3553559.25145  24158298.568    24158307.710
  21406653.149   -22684664.56349 -17232043.26347  21406652.633    21406659.428
  22476551.312   -13214973.87349 -10280172.11846  22476550.908    22476557.690
  23985630.393    -3760750.97249  -2912842.14145  23985630.084    23985638.159
  20255775.155   -26792427.90749 -20064005.62748  20255774.539    20255780.503
  22060116.423   -15514151.40149 -12076750.50147  22060116.229    22060122.749
  24356758.749    -2257629.14749  -1743095.97544  24356759.115    24356766.150
  21378529.281   -19987738.95449 -15315355.06447  21378528.852    21378534.803
  20574086.260   -25436488.25249 -19780005.82248  20574085.907    20574090.476
 03  3 26  0 30 30.0000000  0  9G 9G17G14G31G15G 3G26G23G18
  24147399.966    -4627187.76449  -3598187.76745  24147399.743    24147408.720
  21414837.794   -22641654.14149 -17198528.67647  21414837.277    21414844.035
  22457525.459   -13314955.08549 -10358079.43446  22457525.019    22457531.815
  23968985.394    -3848220.77849  -2981000.34345  23968985.037    23968993.128
  20254547.205   -26798880.83749 -20069033.88948  20254546.589    20254552.549
  22051131.542   -15561367.24549 -12113542.06747  22051131.349    22051137.866
  24377353.256    -2149404.53149  -1658765.12844  24377353.598    24377360.579
  21387201.807   -19942164.62049 -15279842.60947  21387201.369    21387207.357
  20579117.077   -25410051.16949 -19759405.50348  20579116.714    20579121.290
 03  3 26  0 31  0.0000000  0  9G 9G17G14G31G15G 3G26G23G18
  24136564.258    -4684129.39249  -3642557.75645  24136564.124    24136573.017
  21423079.458   -22598344.30949 -17164780.78547  21423078.901    21423085.661
  22438550.944   -13414666.20149 -10435776.29646  22438550.505    22438557.289
  23952403.264    -3935360.12449  -3048901.06045  23952402.957    23952410.941
  20253381.017   -26805009.19949 -20073809.24048  20253380.397    20253386.366
  22042242.552   -15608079.20049 -12149940.99047  22042242.363    22042248.903
  24397989.329    -2040961.09949  -1574263.75844  24397990.113    24397996.637
  21395904.427   -19896432.10849 -15244206.89647  21395903.994    21395909.978
  20584200.649   -25383336.92849 -19738589.22248  20584200.275    20584204.859
 03  3 26  0 31 30.0000000  0  9G 9G17G14G31G15G 3G26G23G18
  24125792.100    -4740736.60449  -3686667.16445  24125791.962    24125800.870
  21431377.941   -22554735.40749 -17130799.84547  21431377.396    21431384.181
  22419628.238   -13514104.72649 -10513260.74846  22419627.855    22419634.673
  23935884.529    -4022166.60649  -3116542.40245  23935884.242    23935892.195
  20252276.784   -26810811.91349 -20078330.84548  20252276.171    20252282.146
  22033449.759   -15654285.55449 -12185945.94147  22033449.580    22033456.085
  24418666.481    -1932302.00949  -1489594.34944  24418667.068    24418674.146
  21404636.850   -19850543.01249 -15208449.17447  21404636.389    21404642.384
  20589336.699   -25356346.86949 -19717558.02348  20589336.319    20589340.917
 03  3 26  0 32  0.0000000  0  8G 9G17G14G31G15G 3G23G18
  24115084.280    -4797006.14149  -3730513.47345  24115084.165    24115092.940
  21439733.498   -22510826.59149 -17096585.22047  21439732.972    21439739.766
  22400757.914   -13613268.14949 -10590530.83146  22400757.618    22400764.379
  23919429.660    -4108637.55149  -3183922.28045  23919429.424    23919437.265
  20251234.769   -26816287.79749 -20082597.76948  20251234.152    20251240.157
  22024753.534   -15699984.51949 -12221555.52147  22024753.360    22024759.855
  21413398.815   -19804498.59749 -15172570.42647  21413398.373    21413404.390
  20594524.968   -25329082.20649 -19696312.83948  20594524.607    20594529.201
 03  3 26  0 32 30.0000000  0  8G 9G17G14G31G15G 3G23G18
  24104441.735    -4852932.46949  -3774092.32945  24104441.643    24104450.619
  21448146.752   -22466614.59949 -17062134.34547  21448146.247    21448153.060
  22381941.000   -13712151.12749 -10667582.38446  22381940.725    22381947.430
  23903039.490    -4194767.83549  -3251036.72045  23903039.181    23903047.039
  20250255.590   -26821433.32949 -20086607.27548  20250254.970    20250260.980
  22016154.651   -15745171.78949 -12256766.37747  22016154.464    22016160.983
  21422190.558   -19758297.64349 -15136569.70247  21422190.087    21422196.126
  20599765.801   -25301541.49549 -19674852.55548  20599765.429    20599770.024
 03  3 26  0 33  0.0000000  0  8G 9G17G14G31G15G 3G23G18
  24093864.757    -4908514.27649  -3817402.71845  24093864.745    24093873.618
  21456617.477   -22422100.80549 -17027448.30647  21456616.993    21456623.774
  22363177.759   -13810752.55549 -10744414.55346  22363177.465    22363184.149
  23886714.374    -4280556.40849  -3317884.87745  23886714.032    23886721.907
  20249339.250   -26826248.71549 -20090359.53148  20249338.645    20249344.648
  22007653.132   -15789847.80649 -12291578.85647  22007652.949    22007659.417
  21431011.571   -19711942.95349 -15100449.18647  21431011.130    21431017.135
  20605058.547   -25273727.76749 -19653179.53648  20605058.205    20605062.777
 03  3 26  0 33 30.0000000  0  8G 9G17G14G31G15G 3G23G18
  24083353.675    -4963750.30949  -3860443.64245  24083353.661    24083362.224
  21465145.291   -22377286.90849 -16992528.41747  21465144.800    21465151.615
  22344468.126   -13909071.88949 -10821026.91746  22344467.807    22344474.512
  23870454.258    -4366002.78149  -3384466.39045  23870453.939    23870461.980
  20248485.504   -26830735.08849 -20093855.41048  20248484.906    20248490.902
  21999248.744   -15834012.93349 -12325993.22947  21999248.537    21999255.088
  21439861.183   -19665438.00149 -15064211.57547  21439860.723    21439866.716
  20610402.685   -25245644.40549 -19631296.41148  20610402.315    20610406.867
 03  3 26  0 34  0.0000000  0  8G 9G17G14G31G15G 3G23G18
  24072909.754    -5018633.82349  -3903209.91545  24072909.711    24072918.308
  21473731.038   -22332168.42749 -16957371.19847  21473730.536    21473737.386
  22325813.356   -14007102.67349 -10897414.44346  22325813.071    22325819.773
  23854260.716    -4451100.53849  -3450776.25645  23854260.340    23854268.302
  20247695.334   -26834887.52549 -20097091.08048  20247694.733    20247700.728
  21990942.545   -15877661.90949 -12360005.40947  21990942.368    21990948.964
  21448739.855   -19618780.19449 -15027854.86447  21448739.417    21448745.449
  20615798.532   -25217289.08849 -19609201.36948  20615798.170    20615802.730
 03  3 26  0 34 30.0000000  0  8G 9G17G14G31G15G 3G23G18
  24062532.310    -5073166.63449  -3945702.90345  24062532.126    24062540.971
  21482373.930   -22286749.73849 -16921980.05147  21482373.422    21482380.273
  22307213.139   -14104847.00149 -10973578.75446  22307212.858    22307219.515
  23838133.122    -4535851.75149  -3516816.09145  23838132.763    23838140.616
  20246968.014   -26838709.46649 -20100069.21748  20246967.416    20246973.414
  21982734.056   -15920797.66849 -12393617.67647  21982733.900    21982740.477
  21457646.439   -19571975.67249 -14991383.82747  21457646.001    21457652.069
  20621245.041   -25188667.43049 -19586898.78848  20621244.679    20621249.256
 03  3 26  0 35  0.0000000  0  8G 9G17G14G31G15G 3G23G18
  24052223.171    -5127340.95249  -3987916.54345  24052222.992    24052231.866
  21491074.890   -22241026.07749 -16886351.25347  21491074.379    21491081.263
  22288668.901   -14202297.52949 -11049514.13746  22288668.586    22288675.179
  23822072.912    -4620249.07849  -3582580.17145  23822072.563    23822080.287
  20246304.710   -26842195.28249 -20102785.43748  20246304.095    20246310.082
  21974624.497   -15963414.11749 -12426825.28447  21974624.314    21974630.842
  21466581.613   -19525021.04749 -14954795.82247  21466581.155    21466587.259
  20626742.885   -25159775.99749 -19564385.98648  20626742.533    20626747.116
 03  3 26  0 35 30.0000000  0  8G 9G17G14G31G15G 3G23G18
  24041982.084    -5181157.82549  -4029851.65845  24041981.983    24041990.819
  21499833.292   -22195000.57249 -16850487.26947  21499832.795    21499839.656
  22270180.226   -14299455.71549 -11125221.72446  22270179.915    22270186.466
  23806079.530    -4704294.07849  -3648069.70545  23806079.225    23806086.882
  20245704.723   -26845348.03449 -20105242.12848  20245704.111    20245710.095
  21966613.195   -16005513.74749 -12459630.16747  21966613.020    21966619.570
  21475544.341   -19477921.63549 -14918095.00847  21475543.900    21475549.979
  20632291.097   -25130620.04949 -19541667.07648  20632290.742    20632295.336
 03  3 26  0 36  0.0000000  0  8G 9G17G14G31G15G 3G23G18
  24031810.255    -5234610.10449  -4071502.68145  24031810.145    24031819.025
  21508650.112   -22148668.40849 -16814384.32247  21508649.562    21508656.408
  22251748.464   -14396314.51449 -11200696.03246  22251748.175    22251754.774
  23790154.567    -4787979.73649  -3713279.23045  23790154.179    23790161.987
  20245169.188   -26848162.17449 -20107434.96448  20245168.582    20245174.592
  21958701.298   -16047090.91649 -12492027.93747  21958701.127    21958707.704
  21484535.242   -19430674.34949 -14881278.95947  21484534.796    21484540.864
  20637890.165   -25101196.59449 -19518739.71748  20637889.816    20637894.392
 03  3 26  0 36 30.0000000  0  8G 9G17G14G31G15G 3G23G18
  24021707.760    -5287699.32549  -4112870.78945  24021707.528    24021716.397
  21517524.311   -22102034.03649 -16778045.88847  21517523.798    21517530.631
  22233373.250   -14492876.10549 -11275938.75246  22233373.036    22233379.624
  23774297.630    -4871308.27449  -3778210.48445  23774297.277    23774305.018
  20244697.433   -26850641.33349 -20109366.77248  20244696.828    20244702.854
  21950888.217   -16088148.80249 -12524021.06447  21950887.997    21950894.617
  21493553.110   -19383285.26149 -14844352.41147  21493552.653    21493558.739
  20643538.994   -25071511.80649 -19495608.71448  20643538.656    20643543.207
 03  3 26  0 37  0.0000000  0  8G 9G17G14G31G15G 3G23G18
  24011675.483    -5340419.26149  -4153951.15645  24011675.244    24011684.153
  21526456.675   -22055094.04649 -16741469.31147  21526456.164    21526463.026
  22215055.819   -14589134.43049 -11350945.16846  22215055.627    22215062.155
  23758509.703    -4954273.72449  -3842858.80245  23758509.416    23758517.185
  20244290.295   -26852780.98449 -20111034.03848  20244289.680    20244295.708
  21943174.906   -16128682.41649 -12555605.68047  21943174.706    21943181.313
  21502598.320   -19335752.32949 -14807313.77947  21502597.891    21502603.949
  20649237.977   -25041563.50749 -19472272.38948  20649237.630    20649242.173
 03  3 26  0 37 30.0000000  0  8G 9G17G14G31G15G 3G23G18
  24001713.187    -5392770.02749  -4194743.86645  24001712.990    24001722.173
  21535446.864   -22007850.75349 -16704656.39647  21535446.341    21535453.197
  22196796.039   -14685090.14849 -11425715.77746  22196795.768    22196802.241
  23742790.857    -5036876.60949  -3907224.60445  23742790.579    23742798.312
  20243947.362   -26854583.05949 -20112438.25148  20243946.757    20243952.778
  21935561.030   -16168693.65649 -12586783.23747  21935560.807    21935567.399
  21511670.073   -19288079.86449 -14770166.41747  21511669.661    21511675.723
  20654986.317   -25011355.73849 -19448733.87248  20654985.961    20654990.555
 03  3 26  0 38  0.0000000  0  8G 9G17G14G31G15G 3G23G18
  23991822.624    -5444745.25749  -4235243.95245  23991822.447    23991831.467
  21544495.443   -21960300.43549 -16667604.24347  21544494.926    21544501.765
  22178594.997   -14780737.09649 -11500245.78746  22178594.719    22178601.126
  23727142.159    -5119111.01849  -3971303.29545  23727141.882    23727149.503
  20243669.550   -26856043.11449 -20113575.95948  20243668.930    20243674.970
  21928047.451   -16208177.52349 -12617549.85847  21928047.239    21928053.817
  21520768.830   -19240265.67549 -14732908.62947  21520768.392    21520774.470
  20660784.423   -24980886.63749 -19424991.72248  20660784.077    20660788.664
 03  3 26  0 38 30.0000000  0  8G 9G17G14G31G15G 3G23G18
  23982003.407    -5496345.09649  -4275451.50945  23982003.314    23982012.009
  21553601.935   -21912445.89649 -16630315.04547  21553601.402    21553608.255
  22160452.558   -14876075.72749 -11574535.55046  22160452.288    22160458.677
  23711563.453    -5200977.36949  -4035095.18745  23711563.136    23711570.747
  20243456.352   -26857163.19149 -20114448.74548  20243455.737    20243461.816
  21920633.861   -16247135.79849 -12647906.93247  21920633.681    21920640.239
  21529893.746   -19192314.08949 -14695543.76947  21529893.295    21529899.382
  20666631.434   -24950160.37849 -19401049.18848  20666631.069    20666635.667
 03  3 26  0 39  0.0000000  0  8G 9G17G14G31G15G 3G23G18
  23972256.356    -5547565.57549  -4315363.47345  23972256.233    23972265.067
  21562766.489   -21864285.88449 -16592787.79747  21562765.948    21562772.869
  22142369.435   -14971102.85849 -11648582.58146  22142369.177    22142375.525
  23696055.438    -5282472.32549  -4098597.66745  23696055.073    23696062.634
  20243308.264   -26857941.31149 -20115055.07148  20243307.660    20243313.760
  21913320.834   -16285566.17749 -12677852.65147  21913320.634    21913327.166
  21539044.655   -19144225.56049 -14658072.19747  21539044.240    21539050.300
  20672527.290   -24919177.33249 -19376906.56148  20672526.927    20672531.538
 03  3 26  0 39 30.0000000  0  8G 9G17G14G31G15G 3G23G18
  23962582.500    -5598401.59849  -4354975.86945  23962582.350    23962591.313
  21571989.723   -21815817.33549 -16555020.13947  21571989.222    21571996.205
  22124346.584   -15065813.47949 -11722382.98446  22124346.274    22124352.602
  23680618.846    -5363591.12249  -4161807.03845  23680618.400    23680626.171
  20243225.875   -26858374.14049 -20115392.34648  20243225.287    20243231.381
  21906108.819   -16323465.00649 -12707384.17847  21906108.647    21906115.248
  21548221.887   -19095999.06449 -14620493.12747  21548221.457    21548227.493
  20678472.207   -24887936.55449 -19352563.10948  20678471.842    20678476.438
 03  3 26  0 40  0.0000000  0  8G 9G17G14G31G15G 3G23G18
  23952981.264    -5648856.27949  -4394291.07445  23952981.156    23952989.994
  21581270.621   -21767046.21049 -16517016.70747  21581270.098    21581277.048
  22106383.335   -15160211.04449 -11795939.44646  22106382.950    22106389.273
  23665253.249    -5444337.11349  -4224725.89845  23665252.946    23665260.684
  20243208.347   -26858466.26849 -20115464.13948  20243207.739    20243213.817
  21898997.120   -16360836.95749 -12736505.14747  21898996.960    21899003.599
  21557423.978   -19047641.70949 -14582812.08947  21557423.526    21557429.597
  20684464.782   -24856445.27949 -19328024.46148  20684464.443    20684469.021
 03  3 26  0 40 30.0000000  0  8G 9G17G14G31G15G 3G23G18
  23943454.631    -5698918.99949  -4433300.88345  23943454.432    23943463.283
  21590610.530   -21717964.87849 -16478771.54947  21590610.012    21590616.894
  22088481.531   -15254285.45049 -11869244.08546  22088481.103    22088487.423
  23649960.781    -5524700.26649  -4287346.47145  23649960.403    23649967.988
  20243257.238   -26858209.52049 -20115264.08048  20243256.645    20243262.661
  21891987.434   -16397673.33249 -12765208.79047  21891987.233    21891993.809
  21566652.152   -18999147.21049 -14545024.18147  21566651.718    21566657.798
  20690506.233   -24824697.23249 -19303285.72748  20690505.901    20690510.491
 03  3 26  0 41  0.0000000  0  8G 9G17G14G31G15G 3G23G18
  23934002.002    -5748591.99749  -4472007.02145  23934001.855    23934010.779
  21600008.630   -21668577.53649 -16440287.93547  21600008.105    21600014.967
  22070640.734   -15348038.97749 -11942298.70346  22070640.354    22070646.679
  23634740.635    -5604682.96149  -4349670.57945  23634740.280    23634747.728
  20243371.824   -26857607.51249 -20114794.99648  20243371.236    20243377.227
  21885078.959   -16433977.50749 -12793497.73147  21885078.745    21885085.280
  21575905.320   -18950521.57949 -14507134.09747  21575904.892    21575910.984
  20696595.402   -24792698.34249 -19278351.54048  20696595.075    20696599.687
 03  3 26  0 41 30.0000000  0  8G 9G17G14G31G15G 3G23G18
  23924624.585    -5797870.74249  -4510405.92245  23924624.437    23924633.181
  21609465.318   -21618882.38249 -16401564.47547  21609464.789    21609471.676
  22052861.773   -15441467.51949 -12015100.07746  22052861.452    22052867.723
  23619593.621    -5684280.92449  -4411694.89645  23619593.206    23619600.617
  20243552.585   -26856657.58549 -20114054.80348  20243552.001    20243557.952
  21878272.317   -16469746.60249 -12821369.72947  21878272.097    21878278.593
  21585183.542   -18901764.34749 -14469141.46747  21585183.089    21585189.183
  20702732.472   -24760448.09449 -19253221.48748  20702732.137    20702736.718
 03  3 26  0 42  0.0000000  0  8G 9G17G14G31G15G 3G23G18
  23915322.192    -5846754.45649  -4548497.02445  23915322.037    23915330.783
  21618980.297   -21568880.47249 -16362601.97547  21618979.792    21618986.759
  22035144.777   -15534570.49149 -12087647.76146  22035144.477    22035150.710
  23604519.804    -5763493.71049  -4473419.08345  23604519.451    23604526.855
  20243799.429   -26855360.51149 -20113044.10448  20243798.840    20243804.774
  21871567.393   -16504981.32349 -12848825.32947  21871567.189    21871573.640
  21594486.133   -18852878.81749 -14431048.86247  21594485.699    21594491.786
  20708916.672   -24727949.95149 -19227898.26948  20708916.306    20708920.900
 03  3 26  0 42 30.0000000  0  8G 9G17G14G31G15G 3G23G18
  23906096.046    -5895237.52449  -4586275.94045  23906095.964    23906104.600
  21628554.286   -21518568.91249 -16323398.19547  21628553.774    21628560.800
  22017490.825   -15627342.48949 -12159937.54547  22017490.518    22017496.675
  23589520.405    -5842316.01149  -4534838.97645  23589520.025    23589527.418
  20244113.024   -26853712.64649 -20111760.05848  20244112.413    20244118.341
  21864964.855   -16539677.88149 -12875861.57947  21864964.650    21864971.096
  21603813.489   -18803863.41649 -14392855.05547  21603813.041    21603819.129
  20715148.266   -24695202.41149 -19202380.71748  20715147.931    20715152.555
 03  3 26  0 43  0.0000000  0  8G 9G17G14G31G15G 3G23G18
  23896946.103    -5943321.03749  -4623743.50845  23896946.018    23896954.577
  21638186.374   -21467951.93749 -16283956.43947  21638185.896    21638192.931
  21999899.536   -15719784.89149 -12231970.50847  21999899.207    21999905.347
  23574594.942    -5920749.27849  -4595955.74445  23574594.568    23574602.069
  20244492.814   -26851716.76149 -20110204.83348  20244492.210    20244498.170
  21858464.131   -16573838.87749 -12902480.51447  21858463.960    21858470.410
  21613164.625   -18754723.01949 -14354563.85747  21613164.168    21613170.272
  20721426.468   -24662210.36049 -19176672.63548  20721426.125    20721430.754
 03  3 26  0 43 30.0000000  0  8G 9G17G14G31G15G 3G23G18
  23887873.515    -5990996.70449  -4660893.28445  23887873.519    23887882.002
  21647877.819   -21417023.48549 -16244271.98347  21647877.356    21647884.318
  21982372.451   -15811890.06149 -12303740.69847  21982372.121    21982378.248
  23559745.036    -5998785.78249  -4656763.35045  23559744.639    23559752.126
  20244940.036   -26849366.43349 -20108373.42248  20244939.460    20244945.398
  21852066.635   -16607457.63249 -12928676.93047  21852066.469    21852072.946
  21622540.247   -18705453.66749 -14316172.17547  21622539.787    21622545.897
  20727751.909   -24628969.86149 -19150770.96048  20727751.576    20727756.193
 03  3 26  0 44  0.0000000  0  8G 9G17G14G31G15G 3G23G18
  23878878.372    -6038266.13349  -4697726.50445  23878878.357    23878886.825
  21657627.668   -21365787.73049 -16204348.04647  21657627.187    21657634.152
  21964909.089   -15903660.01249 -12375249.67447  21964908.790    21964914.933
  23544970.258    -6076427.59949  -4717263.40845  23544969.777    23544977.347
  20245454.071   -26846665.34049 -20106268.67848  20245453.474    20245459.385
  21845771.697   -16640537.72349 -12954453.60047  21845771.517    21845777.989
  21631939.365   -18656061.13849 -14277684.50647  21631938.940    21631945.037
  20734123.519   -24595486.87649 -19124680.33248  20734123.195    20734127.810
 03  3 26  0 44 30.0000000  0  8G 9G17G14G31G15G 3G23G18
  23869961.413    -6085125.03949  -4734239.84645  23869961.359    23869969.767
  21667436.305   -21314243.21949 -16164183.53347  21667435.806    21667442.779
  21947510.322   -15995090.48449 -12446494.12447  21947510.075    21947516.247
  23530271.248    -6153670.60949  -4777452.70945  23530270.872    23530278.424
  20246035.377   -26843610.64849 -20103888.40448  20246034.782    20246040.651
  21839579.834   -16673076.14749 -12979808.19947  21839579.654    21839586.124
  21641361.971   -18606545.01949 -14239100.53647  21641361.537    21641367.664
  20740541.356   -24561760.91549 -19098400.37748  20740541.012    20740545.667
 03  3 26  0 45  0.0000000  0  8G 9G17G14G31G15G 3G23G18
  23861123.391    -6131568.72649  -4770429.63445  23861123.318    23861131.599
  21677304.271   -21262387.28549 -16123776.35947  21677303.765    21677310.703
  21930177.065   -16086177.33449 -12517470.82047  21930176.795    21930182.903
  23515649.031    -6230510.52849  -4837327.91045  23515648.665    23515656.166
  20246684.530   -26840199.35749 -20101230.26648  20246683.942    20246689.787
  21833491.604   -16705070.02749 -13004738.48247  21833491.408    21833497.884
  21650808.269   -18556904.64049 -14200419.74047  21650807.807    21650813.933
  20747005.601   -24527791.05849 -19071930.37548  20747005.277    20747009.910
 03  3 26  0 45 30.0000000  0  8G 9G17G14G31G15G 3G23G18
  23852364.440    -6177597.15649  -4806295.87945  23852364.392    23852372.618
  21687230.968   -21210222.26449 -16083128.32747  21687230.453    21687237.433
  21912909.240   -16176920.52749 -12588179.72347  21912908.899    21912914.954
  23501103.456    -6306947.52549  -4896889.15045  23501103.065    23501110.692
  20247401.243   -26836432.99849 -20098295.44248  20247400.636    20247406.510
  21827506.668   -16736520.89949 -13029245.62747  21827506.462    21827512.946
  21660277.489   -18507143.65049 -14161644.95247  21660277.022    21660283.122
  20753515.559   -24493581.25049 -19045273.38348  20753515.201    20753519.818
 03  3 26  0 46  0.0000000  0  8G 9G17G14G31G15G 3G23G18
  23843685.200    -6223206.21449  -4841835.32245  23843685.111    23843693.466
  21697216.666   -21157746.64749 -16042238.27247  21697216.210    21697223.215
  21895707.392   -16267316.36749 -12658617.97447  21895707.068    21895713.101
  23486635.232    -6382977.67049  -4956133.37245  23486634.931    23486642.570
  20248185.949   -26832309.33449 -20095082.21148  20248185.343    20248191.231
  21821625.550   -16767426.21249 -13053327.68147  21821625.373    21821631.834
  21669769.719   -18457261.74049 -14122775.95047  21669769.251    21669775.335
  20760071.137   -24459131.26349 -19018429.25648  20760070.782    20760075.428
 03  3 26  0 46 30.0000000  0  8G 9G17G14G31G15G 3G23G18
  23835085.786    -6268396.07549  -4877048.14945  23835085.713    23835093.982
  21707261.123   -21104963.04149 -16001108.23347  21707260.636    21707267.635
  21878571.543   -16357365.22349 -12728785.84447  21878571.271    21878577.320
  23472244.475    -6458601.58849  -5015061.05745  23472244.154    23472251.757
  20249038.224   -26827830.53849 -20091592.24648  20249037.633    20249043.543
  21815847.918   -16797787.98649 -13076986.18947  21815847.723    21815854.137
  21679284.153   -18407263.18749 -14083816.04847  21679283.704    21679289.772
  20766671.651   -24424445.36149 -18991401.28948  20766671.312    20766675.944
 03  3 26  0 47  0.0000000  0  8G 9G17G14G31G15G 3G23G18
  23826566.712    -6313163.86949  -4911932.07245  23826566.721    23826574.802
  21717364.349   -21051870.78749 -15959737.69747  21717363.852    21717370.809
  21861502.311   -16447064.41049 -12798681.24647  21861502.047    21861508.073
  23457931.570    -6533816.51149  -5073670.04345  23457931.232    23457938.796
  20249958.366   -26822995.16149 -20087824.43048  20249957.766    20249963.705
  21810173.926   -16827604.74049 -13100220.00747  21810173.751    21810180.205
  21688820.648   -18357148.62849 -14044765.75447  21688820.202    21688826.250
  20773316.947   -24389524.19449 -18964190.00848  20773316.622    20773321.255
 03  3 26  0 47 30.0000000  0  8G 9G17G14G31G15G 3G23G18
  23818129.050    -6357503.46649  -4946482.35345  23818129.013    23818137.182
  21727526.812   -20998466.46349 -15918123.97947  21727526.317    21727533.368
  21844500.739   -16536408.36349 -12868299.82747  21844500.398    21844506.406
  23443697.566    -6608616.76149  -5131955.89346  23443697.226    23443704.688
  20250947.199   -26817798.96849 -20083775.45248  20250946.581    20250952.511
  21804604.454   -16856872.13049 -13123025.74947  21804604.297    21804610.779
  21698379.596   -18306915.99649 -14005623.44947  21698379.125    21698385.197
  20780007.311   -24354365.96849 -18936793.99548  20780007.000    20780011.632
 03  3 26  0 48  0.0000000  0  8G 9G17G14G31G15G 3G23G18
  23809773.146    -6401413.65549  -4980698.04145  23809773.147    23809781.269
  21737748.382   -20944751.51049 -15876268.20847  21737747.910    21737755.008
  21827566.866   -16625396.20749 -12937640.93047  21827566.510    21827572.509
  23429542.566    -6683001.61749  -5189918.07146  23429542.196    23429549.719
  20252004.527   -26812242.52749 -20079445.76848  20252003.929    20252009.848
  21799139.540   -16885590.83449 -13145403.95247  21799139.350    21799145.764
  21707960.508   -18256567.98749 -13966391.24747  21707960.052    21707966.104
  20786742.299   -24318973.44649 -18909215.41748  20786741.968    20786746.593
 03  3 26  0 48 30.0000000  0  8G 9G17G14G31G15G 3G23G18
  23801499.136    -6444894.21849  -5014578.91145  23801499.085    23801507.066
  21748028.886   -20890727.67449 -15834171.76547  21748028.383    21748035.388
  21810700.846   -16714027.63349 -13006704.30147  21810700.476    21810706.430
  23415466.664    -6756970.93649  -5247556.44846  23415466.340    23415473.815
  20253130.203   -26806327.00949 -20074836.28148  20253129.600    20253135.561
  21793778.680   -16913762.22849 -13167355.68047  21793778.471    21793784.877
  21717562.741   -18206107.96949 -13927071.76147  21717562.285    21717568.321
  20793521.205   -24283349.97349 -18881456.88248  20793520.885    20793525.512
 03  3 26  0 49  0.0000000  0  8G 9G17G14G31G15G 3G23G18
  23793307.806    -6487938.91949  -5048120.16145  23793307.827    23793315.888
  21758368.716   -20836391.71349 -15791832.10147  21758368.185    21758375.169
  21793903.748   -16802296.97249 -13075485.53447  21793903.345    21793909.296
  23401470.942    -6830518.90349  -5304866.50146  23401470.609    23401477.988
  20254325.053   -26800047.91549 -20069943.49248  20254324.453    20254330.425
  21788522.735   -16941382.03749 -13188877.60347  21788522.570    21788528.965
  21727186.694   -18155533.59549 -13887663.17247  21727186.272    21727192.315
  20800344.527   -24247493.52749 -18853516.81348  20800344.171    20800348.841
 03  3 26  0 49 30.0000000  0  8G 9G17G14G31G15G 3G23G18
  23785199.647    -6530547.62749  -5081321.68945  23785199.588    23785207.666
  21768767.447   -20781745.78449 -15749250.89847  21768766.957    21768774.045
  21777175.494   -16890204.09549 -13143984.51547  21777175.086    21777181.012
  23387555.335    -6903645.56249  -5361848.25646  23387555.032    23387562.283
  20255588.818   -26793406.78949 -20064768.59348  20255588.228    20255594.204
  21783371.644   -16968451.41549 -13209970.61747  21783371.466    21783377.854
  21736831.732   -18104848.51249 -13848168.31347  21736831.315    21736837.342
  20807211.446   -24211407.55649 -18825397.88748  20807211.107    20807215.791
 03  3 26  0 50  0.0000000  0  8G 9G17G14G31G15G 3G23G18
  23777175.334    -6572715.57749  -5114179.76645  23777175.194    23777183.345
  21779225.748   -20726787.25849 -15706426.12247  21779225.276    21779232.321
  21760516.977   -16977744.56549 -13212197.80247  21760516.608    21760522.510
  23373720.820    -6976346.32249  -5418498.14246  23373720.570    23373727.702
  20256922.138   -26786400.36849 -20059309.05148  20256921.535    20256927.470
  21778325.826   -16994967.32349 -13230632.34947  21778325.639    21778332.042
  21746498.124   -18054051.57249 -13808586.28647  21746497.683    21746503.683
  20814122.265   -24175091.04149 -18797099.30648  20814121.923    20814126.548
 03  3 26  0 50 30.0000000  0  8G 9G17G14G31G15G 3G23G18
  23769234.617    -6614444.11249  -5146695.41845  23769234.542    23769242.531
  21789742.841   -20671520.01649 -15663360.78847  21789742.355    21789749.312
  21743928.034   -17064919.77349 -13280126.47447  21743927.682    21743933.573
  23359967.082    -7048622.74349  -5474817.34646  23359966.771    23359974.000
  20258324.383   -26779031.53449 -20053567.11448  20258323.764    20258329.708
  21773384.731   -17020932.80349 -13250865.19247  21773384.559    21773390.928
  21756184.911   -18003147.50949 -13768920.80347  21756184.447    21756190.471
  20821075.957   -24138549.05449 -18768625.04448  20821075.599    20821080.249
 03  3 26  0 51  0.0000000  0  8G 9G17G14G31G15G 3G23G18
  23761378.926    -6655725.93449  -5178863.00645  23761378.830    23761386.782
  21800319.494   -20615939.41149 -15620051.27146  21800318.993    21800325.981
  21727409.831   -17151723.06249 -13347765.33847  21727409.498    21727415.403
  23346295.337    -7120467.96449  -5530800.56546  23346295.086    23346302.285
  20259796.600   -26771295.02649 -20047538.67648  20259796.015    20259801.924
  21768549.423   -17046342.62249 -13270665.04247  21768549.207    21768555.607
  21765892.581   -17952132.97049 -13729169.23447  21765892.136    21765898.243
  20828073.196   -24101778.27649 -18739972.49848  20828072.855    20828077.535
 03  3 26  0 51 30.0000000  0  8G 9G17G14G31G15G 3G23G18
  23753608.004    -6696561.28249  -5210682.69745  23753607.880    23753616.035
  21810955.279   -20560047.98749 -15576499.55046  21810954.780    21810961.817
  21710962.377   -17238154.65249 -13415114.57847  21710962.084    21710967.986
  23332705.588    -7191882.54949  -5586448.21646  23332705.264    23332712.401
  20261338.462   -26763192.51749 -20041225.04048  20261337.858    20261343.787
  21763819.451   -17071198.50249 -13290033.25647  21763819.262    21763825.684
  21775620.568   -17901011.83649 -13689334.60247  21775620.162    21775626.267
  20835113.264   -24064782.62649 -18711144.72248  20835112.921    20835117.579
 03  3 26  0 52  0.0000000  0  8G 9G17G14G31G15G 3G23G18
  23745922.713    -6736947.36249  -5242152.30845  23745922.690    23745930.784
  21821650.375   -20503845.20049 -15532705.21647  21821649.886    21821656.961
  21694586.146   -17324212.09949 -13482172.27947  21694585.831    21694591.702
  23319198.278    -7262863.79149  -5641758.19746  23319197.916    23319204.974
  20262950.212   -26754722.76149 -20034625.24448  20262949.612    20262955.531
  21759195.182   -17095499.14949 -13308968.82347  21759195.003    21759201.409
  21785368.762   -17849784.85449 -13649417.49047  21785368.353    21785374.405
  20842195.950   -24027562.93949 -18682142.37248  20842195.588    20842200.229
 03  3 26  0 52 30.0000000  0  8G 9G17G14G31G15G 3G23G18
  23738323.851    -6776879.42949  -5273268.11845  23738323.771    23738331.813
  21832405.160   -20447328.81849 -15488666.52146  21832404.651    21832411.693
  21678281.989   -17409890.85649 -13548934.90247  21678281.668    21678287.490
  23305774.204    -7333407.40849  -5696727.18146  23305773.799    23305780.897
  20264632.386   -26745882.81949 -20027736.98648  20264631.797    20264637.726
  21754677.090   -17119241.91749 -13327469.67547  21754676.901    21754683.301
  21795137.321   -17798450.99549 -13609417.10247  21795136.921    21795142.949
  20849321.399   -23990118.33149 -18652964.76248  20849321.075    20849325.710
 03  3 26  0 53  0.0000000  0  8G 9G17G14G31G15G 3G23G18
  23730811.317    -6816358.26449  -5304030.79045  23730811.201    23730819.205
  21843218.923   -20390502.16849 -15444386.05746  21843218.415    21843225.498
  21662049.707   -17495191.76449 -13615403.09847  21662049.395    21662055.187
  23292433.261    -7403514.23749  -5751355.79146  23292432.825    23292439.961
  20266384.617   -26736674.94849 -20020562.03548  20266384.014    20266389.962
  21750264.571   -17142429.36049 -13345537.81047  21750264.425    21750270.818
  21804925.365   -17747014.52649 -13569336.76447  21804924.955    21804931.036
  20856488.867   -23952453.20649 -18623615.32048  20856488.504    20856493.190
 03  3 26  0 53 30.0000000  0  8G 9G17G14G31G15G 3G23G18
  23723385.577    -6855380.16249  -5334437.40145  23723385.462    23723393.601
  21854092.090   -20333363.56049 -15399862.50846  21854091.567    21854098.680
  21645890.041   -17580111.28149 -13681574.10747  21645889.713    21645895.492
  23279176.020    -7473180.82449  -5805641.36446  23279175.612    23279182.743
  20268207.292   -26727096.79449 -20013098.54348  20268206.692    20268212.645
  21745958.306   -17165059.38249 -13363171.59247  21745958.116    21745964.449
  21814732.983   -17695475.27249 -13529176.32847  21814732.575    21814738.672
  20863698.269   -23914567.48949 -18594093.98548  20863697.922    20863702.576
 03  3 26  0 54  0.0000000  0  8G 9G17G14G31G15G 3G23G18
  23716047.230    -6893942.46749  -5364485.88645  23716047.272    23716055.322
  21865024.706   -20275912.39049 -15355095.40446  21865024.159    21865031.314
  21629803.398   -17664647.30649 -13747446.29847  21629803.019    21629808.803
  23266003.085    -7542404.85049  -5859582.09646  23266002.741    23266009.676
  20270100.591   -26717147.48049 -20005345.84048  20270099.972    20270105.924
  21741758.149   -17187131.19149 -13380370.39447  21741757.944    21741764.311
  21824560.006   -17643834.18149 -13488936.53947  21824559.582    21824565.643
  20870949.470   -23876462.20349 -18564401.55948  20870949.132    20870953.758
 03  3 26  0 54 30.0000000  0  8G 9G17G14G31G15G 3G23G18
  23708796.985    -6932043.28249  -5394174.76745  23708796.902    23708804.864
  21876016.529   -20218149.92549 -15310085.72746  21876016.019    21876023.207
  21613790.028   -17748797.88949 -13813018.14047  21613789.645    21613795.443
  23252914.725    -7611184.63849  -5913176.65046  23252914.303    23252921.279
  20272064.517   -26706826.75849 -19997303.72248  20272063.922    20272069.894
  21737664.243   -17208644.67149 -13397134.14147  21737664.088    21737670.428
  21834406.015   -17592092.87649 -13448618.65147  21834405.586    21834411.649
  20878242.092   -23838139.30649 -18534539.56448  20878241.734    20878246.379
 03  3 26  0 55  0.0000000  0  8G 9G17G14G31G15G 3G23G18
  23701634.806    -6969679.52649  -5423501.66745  23701634.859    23701642.830
  21887067.929   -20160074.80749 -15264832.43046  21887067.408    21887074.581
  21597850.500   -17832560.11349 -13878287.37147  21597850.150    21597855.948
  23239911.328    -7679517.23649  -5966422.75046  23239910.964    23239917.952
  20274099.442   -26696133.20049 -19988971.09148  20274098.853    20274104.815
  21733676.961   -17229598.25149 -13413461.60847  21733676.779    21733683.087
  21844271.080   -17540251.61549 -13408222.87747  21844270.666    21844276.743
  20885576.090   -23799598.88549 -18504508.08148  20885575.757    20885580.401
 03  3 26  0 55 30.0000000  0  8G 9G17G14G31G15G 3G23G18
  23694561.779    -7006848.15549  -5452464.18345  23694561.787    23694569.646
  21898178.971   -20101686.34849 -15219334.97446  21898178.427    21898185.601
  21581985.566   -17915931.09349 -13943251.73047  21581985.173    21581990.969
  23226993.694    -7747399.74149  -6019318.15046  23226993.367    23227000.287
  20276205.661   -26685064.93349 -19980346.47848  20276205.075    20276211.040
  21729796.347   -17249990.84949 -13429351.93447  21729796.165    21729802.557
  21854155.139   -17488310.70249 -13367749.44847  21854154.713    21854160.816
  20892951.357   -23760841.59249 -18474307.60148  20892951.031    20892955.679
 03  3 26  0 56  0.0000000  0  8G 9G17G14G31G15G 3G23G18
  23687577.917    -7043549.66349  -5481062.69945  23687577.821    23687585.409
  21909348.937   -20042987.49449 -15173595.64646  21909348.424    21909355.597
  21566194.821   -17998911.86549 -14007912.03047  21566194.424    21566200.186
  23214161.462    -7814833.12649  -6071863.57646  23214161.151    23214168.058
  20278382.783   -26673624.26049 -19971431.66948  20278382.188    20278388.133
  21726021.971   -17269825.00949 -13444807.12047  21726021.818    21726028.261
  21864057.357   -17436274.37949 -13327201.67847  21864056.918    21864063.026
  20900367.088   -23721871.57649 -18443941.36348  20900366.747    20900371.399
 03  3 26  0 56 30.0000000  0  8G 9G17G14G31G15G 3G23G18
  23680683.809    -7079777.56349  -5509292.18245  23680683.753    23680691.526
  21920578.805   -19983974.38349 -15127611.44646  21920578.289    21920585.520
  21550479.502   -18081495.83949 -14072263.14147  21550479.164    21550484.939
  23201415.854    -7881811.05549  -6124054.10646  23201415.525    23201422.474
  20280631.687   -26661806.09049 -19962222.71548  20280631.091    20280637.078
  21722354.923   -17289095.65649 -13459823.22247  21722354.767    21722361.144
  21873978.278   -17384139.51449 -13286577.12247  21873977.860    21873983.951
  20907823.872   -23682685.96749 -18413407.13548  20907823.525    20907828.199
 03  3 26  0 57  0.0000000  0  8G 9G17G14G31G15G 3G23G18
  23673879.707    -7115532.79649  -5537153.36945  23673879.634    23673887.505
  21931867.910   -19924650.02949 -15081384.71546  21931867.394    21931874.647
  21534839.607   -18163683.98849 -14136305.80347  21534839.251    21534845.025
  23188756.921    -7948334.36649  -6175890.39646  23188756.498    23188763.493
  20282952.068   -26649612.50449 -19952721.22348  20282951.455    20282957.459
  21718794.545   -17307805.45849 -13474402.28747  21718794.392    21718800.749
  21883917.182   -17331909.99449 -13245878.79947  21883916.760    21883922.855
  20915320.866   -23643289.08949 -18382708.27948  20915320.495    20915325.165
 03  3 26  0 57 30.0000000  0  8G 9G17G14G31G15G 3G23G18
  23667166.369    -7150811.74849  -5564643.39845  23667166.222    23667174.092
  21943216.501   -19865013.01049 -15034914.34746  21943215.998    21943223.263
  21519275.705   -18245472.82249 -14200037.31847  21519275.346    21519281.090
  23176185.008    -8014399.68849  -6227369.81746  23176184.662    23176191.559
  20285344.219   -26637041.64649 -19942925.75948  20285343.629    20285349.606
  21715341.230   -17325952.67549 -13488542.98247  21715341.072    21715347.461
  21893874.210   -17279585.62649 -13205106.58047  21893873.777    21893879.895
  20922858.105   -23603680.61949 -18351844.55648  20922857.737    20922862.411
 03  3 26  0 58  0.0000000  0  8G 9G17G14G31G15G 3G23G18
  23660543.971    -7185613.00149  -5591761.20545  23660543.756    23660551.507
  21954624.300   -19805064.46649 -14988201.22846  21954623.780    21954631.100
  21503787.917   -18326861.32349 -14263456.87747  21503787.578    21503793.318
  23163700.461    -8080006.07049  -6278491.62046  23163700.035    23163707.043
  20287808.141   -26624093.63649 -19932836.40348  20287807.543    20287813.520
  21711994.969   -17343537.60449 -13502245.52647  21711994.789    21712001.243
  21903848.828   -17227168.52049 -13164262.09147  21903848.421    21903854.561
  20930435.139   -23563862.87149 -18320817.74747  20930434.811    20930439.475
 03  3 26  0 58 30.0000000  0  8G 9G17G14G31G15G 3G23G18
  23654013.044    -7219933.23949  -5618504.19345  23654012.848    23654020.551
  21966091.711   -19744802.88449 -14941244.19446  21966091.171    21966098.445
  21488376.915   -18407846.48549 -14326562.14547  21488376.557    21488382.288
  23151303.773    -8145150.34849  -6329253.34146  23151303.446    23151310.488
  20290344.200   -26610766.67449 -19922451.75748  20290343.607    20290349.576
  21708755.882   -17360558.88649 -13515508.86747  21708755.741    21708762.163
  21913841.106   -17174658.73649 -13123345.38047  21913840.714    21913846.825
  20938051.945   -23523836.23649 -18289628.17648  20938051.628    20938056.324
 03  3 26  0 59  0.0000000  0  8G 9G17G14G31G15G 3G23G18
  23647574.255    -7253769.13249  -5644869.76145  23647574.065    23647581.633
  21977618.773   -19684227.89449 -14894042.93846  21977618.252    21977625.489
  21473043.274   -18488424.93949 -14389350.50147  21473042.942    21473048.675
  23138995.797    -8209829.32849  -6379652.51546  23138995.487    23139002.410
  20292952.698   -26597058.99849 -19911770.45748  20292952.092    20292958.057
  21705624.367   -17377015.12349 -13528331.91947  21705624.199    21705630.634
  21923851.098   -17122056.13749 -13082356.34947  21923850.694    21923856.776
  20945708.597   -23483600.56749 -18258275.72148  20945708.248    20945712.966
 03  3 26  0 59 30.0000000  0  8G 9G17G14G31G15G 3G23G18
  23641227.443    -7287121.76249  -5670858.71445  23641227.279    23641234.840
  21989204.882   -19623342.58449 -14846599.87946  21989204.391    21989211.612
  21457786.844   -18568597.75749 -14451822.77347  21457786.554    21457792.252
  23126776.037    -8274044.18849  -6429690.01446  23126775.707    23126782.628
  20295633.155   -26582973.06549 -19900794.40948  20295632.556    20295638.520
  21702599.827   -17392909.16849 -13540716.90047  21702599.663    21702606.154
  21933877.931   -17069364.85849 -13041298.22447  21933877.513    21933883.623
  20953404.159   -23443160.08649 -18226763.66747  20953403.800    20953408.516
 03  3 26  1  0  0.0000000  0  8G 9G17G14G31G15G 3G23G18
  23634973.435    -7319986.23649  -5696467.31745  23634973.299    23634980.847
  22000850.686   -19562143.92849 -14798912.64746  22000850.178    22000857.353
  21442608.522   -18648360.21849 -14513975.28547  21442608.201    21442613.895
  23114645.488    -8337790.27549  -6479362.26046  23114645.134    23114652.096
  20298386.321   -26568505.07049 -19889520.65548  20298385.710    20298391.677
  21699682.876   -17408237.79949 -13552661.29547  21699682.722    21699689.244
  21943921.963   -17016583.28149 -13000169.73647  21943921.539    21943927.662
  20961138.960   -23402513.39849 -18195090.92947  20961138.596    20961143.302
 03  3 26  1  0 30.0000000  0  8G 9G17G14G31G15G 3G23G18
  23628812.518    -7352361.51149  -5721694.73745  23628812.363    23628820.051
  22012555.645   -19500633.60749 -14750982.57146  22012555.165    22012562.386
  21427508.366   -18727711.54049 -14575807.42747  21427508.095    21427513.785
  23102604.388    -8401066.85249  -6528668.64846  23102604.000    23102611.035
  20301212.013   -26553655.93349 -19877949.90448  20301211.404    20301217.389
  21696873.343   -17423002.15449 -13564165.99847  21696873.157    21696879.647
  21953982.683   -16963713.89049 -12958972.82647  21953982.254    21953988.375
  20968912.523   -23361663.00249 -18163259.45947  20968912.184    20968916.882
 03  3 26  1  1  0.0000000  0  8G 9G17G14G31G15G 3G23G18
  23622745.282    -7384244.74549  -5746538.72845  23622745.224    23622752.739
  22024320.104   -19438810.90649 -14702809.07546  22024319.660    22024326.940
  21412487.055   -18806648.97849 -14637317.06047  21412486.744    21412492.438
  23090653.064    -8463871.09949  -6577606.98846  23090652.694    23090659.721
  20304110.563   -26538423.94249 -19866080.82648  20304109.957    20304115.951
  21694171.422   -17437200.84449 -13575229.92647  21694171.238    21694177.726
  21964060.106   -16910756.77049 -12917707.55947  21964059.648    21964065.804
  20976724.822   -23320609.32449 -18131269.59147  20976724.476    20976729.192
 03  3 26  1  1 30.0000000  0  8G 9G17G14G31G15G 3G23G18
  23616772.311    -7415633.08249  -5770997.07445  23616772.179    23616779.730
  22036144.285   -19376675.08049 -14654391.60046  22036143.795    22036151.102
  21397544.975   -18885169.78949 -14698502.05247  21397544.658    21397550.345
  23078792.216    -8526200.36549  -6626175.22446  23078791.855    23078798.766
  20307082.247   -26522807.69949 -19853912.33448  20307081.650    20307087.633
  21691577.307   -17450832.85149 -13585852.27747  21691577.134    21691583.595
  21974154.178   -16857712.16149 -12876374.12147  21974153.690    21974159.868
  20984575.676   -23279352.88049 -18099121.72047  20984575.331    20984580.057
 03  3 26  1  2  0.0000000  0  8G 9G17G14G31G15G 3G23G18
  23610893.532    -7446525.98749  -5795069.40145  23610893.309    23610900.865
  22048027.613   -19314227.88549 -14605731.48946  22048027.088    22048034.464
  21382682.231   -18963273.49549 -14759362.02847  21382681.987    21382687.660
  23067021.802    -8588054.06149  -6674372.87346  23067021.434    23067028.379
  20310126.908   -26506807.97049 -19841445.01848  20310126.292    20310132.264
  21689090.868   -17463899.39949 -13596034.01647  21689090.685    21689097.109
  21984264.435   -16804582.45049 -12834974.36447  21984263.971    21984270.148
  20992464.643   -23237895.98949 -18066817.64847  20992464.289    20992469.009
 03  3 26  1  2 30.0000000  0  8G 9G17G14G31G15G 3G23G18
  23605109.422    -7476920.86149  -5818753.66445  23605109.273    23605116.879
  22059970.212   -19251468.75149 -14556828.32246  22059969.711    22059977.108
  21367899.443   -19040957.59049 -14819895.03847  21367899.151    21367904.793
  23055342.266    -8649429.98149  -6722198.24046  23055341.929    23055348.929
  20313244.707   -26490423.65549 -19828678.03048  20313244.094    20313250.092
  21686712.106   -17476400.03949 -13605774.78847  21686711.922    21686718.338
  21994390.777   -16751368.32249 -12793508.83247  21994390.310    21994396.446
  21000391.511   -23196239.70849 -18034358.21247  21000391.172    21000395.887
 03  3 26  1  3  0.0000000  0  8G 9G17G14G31G15G 3G23G18
  23599420.884    -7506814.00849  -5842046.97745  23599420.711    23599428.405
  22071972.570   -19188396.60849 -14507681.24746  22071972.042    22071979.418
  21353197.179   -19118218.41549 -14880098.22847  21353196.899    21353202.487
  23043754.509    -8710324.40049  -6769648.41446  23043754.151    23043761.054
  20316436.202   -26473652.21849 -19815609.38648  20316435.594    20316441.591
  21684441.355   -17488332.81349 -13615073.06847  21684441.184    21684447.623
  22004533.339   -16698069.06149 -12751976.95847  22004532.889    22004538.992
  21008356.523   -23154383.42549 -18001742.93147  21008356.198    21008360.925
 03  3 26  1  3 30.0000000  0  8G 9G17G14G31G15G 3G23G18
  23593827.474    -7536206.69449  -5864950.30945  23593827.473    23593835.193
  22084033.838   -19125014.40049 -14458292.56346  22084033.292    22084040.725
  21338575.206   -19195057.51349 -14939972.80547  21338574.902    21338580.474
  23032257.987    -8770738.88049  -6816724.60646  23032257.580    23032264.526
  20319700.791   -26456496.55549 -19802241.34748  20319700.184    20319706.196
  21682278.170   -17499700.70949 -13623931.18847  21682278.011    21682284.375
  22014691.211   -16644688.95849 -12710382.09247  22014690.747    22014696.875
  21016358.770   -23112331.64649 -17968975.31847  21016358.418    21016363.139
 03  3 26  1  4  0.0000000  0  8G 9G17G14G31G15G 3G23G18
  23588330.663    -7565092.85349  -5887458.93745  23588330.619    23588338.208
  22096154.779   -19061318.22849 -14408659.23446  22096154.241    22096161.715
  21324034.650   -19271468.81349 -14999514.03247  21324034.258    21324039.828
  23020853.910    -8830667.36249  -6863422.10746  23020853.525    23020860.532
  20323039.475   -26438951.83049 -19788570.14648  20323038.863    20323044.904
  21680223.230   -17510499.69849 -13632345.99947  21680223.044    21680229.380
  22024865.074   -16591224.90149 -12668721.80647  22024864.623    22024870.737
  21024398.699   -23070081.51049 -17936053.14347  21024398.342    21024403.031
 03  3 26  1  4 30.0000000  0  8G 9G17G14G31G15G 3G23G18
  23582929.762    -7593474.12949  -5909574.17045  23582929.738    23582937.338
  22108334.819   -18997311.96349 -14358784.27246  22108334.269    22108341.699
  21309575.015   -19347453.97249 -15058723.20247  21309574.689    21309580.278
  23009542.078    -8890111.54849  -6909742.23246  23009541.686    23009548.574
  20326451.626   -26421020.76949 -19774597.89648  20326451.031    20326457.098
  21678275.846   -17520733.01349 -13640320.01647  21678275.672    21678282.082
  22035054.062   -16537681.28849 -12626999.52447  22035053.600    22035059.770
  21032475.490   -23027637.73849 -17902980.07847  21032475.130    21032479.835
 03  3 26  1  5  0.0000000  0  8G 9G17G14G31G15G 3G23G18
  23577625.758    -7621346.68949  -5931293.00245  23577625.699    23577633.265
  22120574.145   -18932994.13349 -14308666.53846  22120573.626    22120580.996
  21295197.294   -19423009.26349 -15117597.40947  21295196.992    21295202.548
  22998323.037    -8949067.72149  -6955682.08146  22998322.593    22998329.507
  20329937.734   -26402701.06949 -19760322.80648  20329937.137    20329943.225
  21676436.575   -17530398.67449 -13647851.71447  21676436.395    21676442.769
  22045258.341   -16484057.26649 -12585214.58647  22045257.905    22045264.077
  21040589.204   -22984999.81949 -17869755.72947  21040588.853    21040593.568
 03  3 26  1  5 30.0000000  0  8G 9G17G14G31G15G 3G23G18
  23572419.194    -7648707.70549  -5952613.20845  23572419.154    23572426.589
  22132872.964   -18868363.69949 -14258305.21446  22132872.441    22132879.802
  21280901.968   -19498131.87949 -15176134.46647  21280901.589    21280907.118
  22987197.367    -9007533.25249  -7001239.61346  22987196.954    22987203.958
  20333498.115   -26383991.25349 -19745743.73448  20333497.532    20333503.605
  21674705.472   -17539495.84349 -13654940.42947  21674705.244    21674711.640
  22055477.958   -16430352.95249 -12543367.08747  22055477.530    22055483.679
  21048739.867   -22942167.76149 -17836380.10447  21048739.511    21048744.222
 03  3 26  1  6  0.0000000  0  8G 9G17G14G31G15G 3G23G18
  23567309.766    -7675557.84949  -5973535.33745  23567309.731    23567317.128
  22145230.737   -18803423.62549 -14207702.60346  22145230.176    22145237.572
  21266688.732   -19572822.62649 -15234335.00247  21266688.378    21266693.899
  22976165.009    -9065509.04949  -7046415.53346  22976164.572    22976171.541
  20337132.359   -26364893.26049 -19730862.18148  20337131.757    20337137.841
  21673081.927   -17548027.22449 -13661588.26447  21673081.738    21673088.189
  22065712.168   -16376572.02749 -12501459.88347  22065711.716    22065717.855
  21056926.776   -22899145.36649 -17802856.16647  21056926.423    21056931.140
 03  3 26  1  6 30.0000000  0  8G 9G17G14G31G15G 3G23G18
  23562298.436    -7701892.03849  -5994055.38845  23562298.330    23562305.890
  22157647.854   -18738171.04949 -14156856.47946  22157647.300    22157654.751
  21252558.631   -19647076.54149 -15292195.15547  21252558.290    21252563.793
  22965226.776    -9122989.94949  -7091205.82146  22965226.345    22965233.241
  20340841.193   -26345403.12749 -19715675.06748  20340840.589    20340846.674
  21671566.855   -17555989.35549 -13667792.53547  21671566.617    21671573.063
  22075961.332   -16322712.17749 -12459491.18247  22075960.871    22075967.089
  21065150.284   -22855930.62249 -17769182.34947  21065149.910    21065154.664
 03  3 26  1  7  0.0000000  0  8G 9G17G14G31G15G 3G23G18
  23557385.190    -7727710.39949  -6014173.53245  23557385.112    23557392.727
  22170124.012   -18672608.45349 -14105768.79646  22170123.493    22170130.946
  21238511.661   -19720893.92649 -15349715.15447  21238511.285    21238516.771
  22954382.575    -9179976.42449  -7135610.84746  22954382.182    22954389.002
  20344624.339   -26325522.54449 -19700183.71148  20344623.750    20344629.827
  21670159.555   -17563384.52849 -13673555.01047  21670159.341    21670165.799
  22086224.892   -16268776.51449 -12417463.40747  22086224.465    22086230.713
  21073409.717   -22812526.73449 -17735361.14747  21073409.352    21073414.119
 03  3 26  1  7 30.0000000  0  8G 9G17G14G31G15G 3G23G18
  23552570.668    -7753011.04649  -6033888.24545  23552570.574    23552578.222
  22182659.290   -18606735.42149 -14054439.21246  22182658.765    22182666.223
  21224548.168   -19794272.23649 -15406893.01447  21224547.781    21224553.319
  22943632.919    -9236466.27749  -7179628.88446  22943632.534    22943639.354
  20348481.972   -26305250.49249 -19684387.31548  20348481.390    20348487.466
  21668860.365   -17570212.01049 -13678875.14047  21668860.160    21668866.583
  22096502.880   -16214765.33749 -12375376.78247  22096502.469    22096508.679
  21081705.009   -22768934.54849 -17701393.22047  21081704.679    21081709.430
 03  3 26  1  8  0.0000000  0  8G 9G17G14G31G15G 3G23G18
  23547855.287    -7777790.32849  -6053196.69345  23547855.130    23547862.736
  22195253.894   -18540550.50949 -14002866.60646  22195253.356    22195260.840
  21210668.795   -19867208.36249 -15463726.32547  21210668.450    21210673.957
  22932978.334    -9292456.09349  -7223257.27846  22932977.959    22932984.864
  20352414.493   -26284584.84349 -19668284.21748  20352413.917    20352419.993
  21667669.439   -17576470.48649 -13683751.87747  21667669.205    21667675.648
  22106795.422   -16160677.99549 -12333230.80847  22106795.004    22106801.110
  21090036.310   -22725153.52349 -17667278.14047  21090035.982    21090040.653
 03  3 26  1  8 30.0000000  0  8G 9G17G14G31G15G 3G23G18
  23543239.253    -7802047.54849  -6072098.36945  23543239.114    23543246.682
  22207907.531   -18474054.95749 -13951051.93346  22207907.056    22207914.584
  21196873.820   -19939701.65049 -15520214.55647  21196873.450    21196878.881
  22922419.049    -9347945.32549  -7266495.61046  22922418.710    22922425.541
  20356421.839   -26263526.08949 -19651874.80148  20356421.253    20356427.321
  21666586.514   -17582161.26549 -13688186.25147  21666586.294    21666592.752
  22117102.044   -16106516.70149 -12291027.20347  22117101.609    22117107.673
  21098403.110   -22681185.81649 -17633017.59347  21098402.760    21098407.438
 03  3 26  1  9  0.0000000  0  8G 9G17G14G31G15G 3G23G18
  23538722.542    -7825782.84449  -6090593.31745  23538722.342    23538729.932
  22220619.860   -18407251.45549 -13898997.30346  22220619.395    22220626.958
  21183163.063   -20011752.01449 -15576357.65447  21183162.662    21183168.148
  22911955.002    -9402934.13649  -7309344.00446  22911954.634    22911961.511
  20360503.756   -26242075.42249 -19635159.99548  20360503.177    20360509.274
  21665611.244   -17587286.34549 -13692179.82547  21665611.040    21665617.479
  22127422.142   -16052284.18649 -12248768.10847  22127421.685    22127427.776
  21106804.734   -22637034.58849 -17598614.05447  21106804.393    21106809.156
 03  3 26  1  9 30.0000000  0  8G 9G17G14G31G15G 3G23G18
  23534306.354    -7848990.04249  -6108676.77945  23534306.149    23534313.719
  22233391.599   -18340135.85549 -13846699.48346  22233391.173    22233398.650
  21169537.612   -20083353.63949 -15632151.08947  21169537.254    21169542.762
  22901587.280    -9457416.64149  -7351797.86746  22901586.961    22901593.784
  20364661.146   -26220228.06749 -19618136.08248  20364660.579    20364666.691
  21664744.437   -17591841.42849 -13695729.24647  21664744.259    21664750.695
  22137756.385   -15997976.97249 -12206450.80347  22137755.961    22137762.112
  21115241.993   -22592696.63249 -17564065.01247  21115241.642    21115246.432
 03  3 26  1 10  0.0000000  0  8G 9G17G14G31G15G 3G23G18
  23529990.336    -7871670.17749  -6126349.54945  23529990.097    23529997.731
  22246222.291   -18272710.85949 -13794160.60046  22246221.791    22246229.192
  21155997.549   -20154507.17749 -15687595.36047  21155997.168    21156002.638
  22891315.786    -9511393.58049  -7393857.78846  22891315.442    22891322.229
  20368893.702   -26197985.96649 -19600804.57448  20368893.129    20368899.210
  21663985.609   -17595829.27849 -13698836.66347  21663985.425    21663991.837
  22148104.255   -15943598.48349 -12164077.96747  22148103.827    22148110.030
  21123714.142   -22548175.57849 -17529373.28947  21123713.777    21123718.505
 03  3 26  1 10 30.0000000  0  8G 9G17G14G31G15G 3G23G18
  23525775.033    -7893821.68049  -6143610.42545  23525774.705    23525782.242
  22259111.535   -18204977.46849 -13741381.38546  22259111.018    22259118.509
  21142542.943   -20225211.32749 -15742689.46247  21142542.592    21142548.052
  22881140.786    -9564863.75549  -7435522.82146  22881140.436    22881147.167
  20373201.406   -26175349.03449 -19583165.40248  20373200.817    20373206.868
  21663334.540   -17599250.30049 -13701502.39147  21663334.386    21663340.866
  22158465.455   -15889150.00349 -12121650.58747  22158465.034    22158471.284
  21132220.783   -22503472.84649 -17494540.00147  21132220.428    21132225.123
 03  3 26  1 11  0.0000000  0  8G 9G17G14G31G15G 3G23G18
  23521660.934    -7915440.87549  -6160456.50945  23521660.683    23521668.115
  22272059.823   -18136933.61449 -13688360.25746  22272059.324    22272066.957
  21129174.559   -20295462.35649 -15797430.48247  21129174.227    21129179.701
  22871062.797    -9617823.58549  -7476790.18346  22871062.403    22871069.247
  20377584.685   -26152314.69249 -19565216.56148  20377584.102    20377590.160
  21662791.704   -17602102.81649 -13703725.13147  21662791.542    21662798.077
  22168840.222   -15834630.34549 -12079167.74847  22168839.802    22168846.056
  21140762.115   -22458587.75749 -17459564.62047  21140761.765    21140766.463
 03  3 26  1 11 30.0000000  0  8G 9G17G14G31G15G 3G23G18
  23517648.407    -7936526.87449  -6176887.10445  23517648.281    23517655.658
  22285067.029   -18068580.41249 -13635098.08546  22285066.530    22285074.231
  21115892.680   -20365259.07849 -15851817.49647  21115892.322    21115897.778
  22861082.156    -9670271.97149  -7517659.02046  22861081.782    22861088.639
  20382043.550   -26128883.01949 -19546958.10948  20382042.985    20382049.060
  21662356.968   -17604387.46249 -13705505.38147  21662356.803    21662363.332
  22179228.245   -15780041.09149 -12036630.67547  22179227.820    22179234.032
  21149337.893   -22413521.83949 -17424448.33547  21149337.548    21149342.264
 03  3 26  1 12  0.0000000  0  8G 9G17G14G31G15G 3G23G18
  23513737.438    -7957079.08449  -6192901.77745  23513737.319    23513744.705
  22298132.917   -17999919.08349 -13581595.80446  22298132.434    22298140.026
  21102697.266   -20434601.16749 -15905850.24847  21102696.897    21102702.366
  22851199.057    -9722208.42849  -7558128.96546  22851198.615    22851205.386
  20386577.986   -26105054.49949 -19528390.42348  20386577.396    20386583.496
  21662029.980   -17606105.75849 -13706844.31547  21662029.789    21662036.347
  22189629.148   -15725384.19549 -11994040.89047  22189628.720    22189634.895
  21157947.622   -22368277.37749 -17389192.92947  21157947.278    21157952.003
 03  3 26  1 12 30.0000000  0  8G 9G17G14G31G15G 3G23G18
  23509928.438    -7977094.76749  -6208498.38245  23509928.366    23509935.814
  22311257.604   -17930948.72849 -13527852.73246  22311257.098    22311264.667
  21089588.813   -20503486.07149 -15959526.75747  21089588.472    21089593.943
  22841413.687    -9773630.57449  -7598198.14046  22841413.298    22841420.014
  20391188.188   -26080827.76949 -19509512.44448  20391187.605    20391193.685
  21661810.912   -17607257.02349 -13707741.40947  21661810.720    21661817.246
  22200042.936   -15670659.51749 -11951398.28647  22200042.480    22200048.633
  21166591.393   -22322854.29549 -17353798.33547  21166591.024    21166595.744
 03  3 26  1 13  0.0000000  0  8G 9G17G14G31G15G 3G23G18
  23506222.090    -7996571.78449  -6223675.23245  23506221.921    23506229.356
  22324441.020   -17861669.42449 -13473868.91546  22324440.501    22324448.130
  21076567.957   -20571911.31649 -16012845.08647  21076567.596    21076573.037
  22831726.730    -9824536.05149  -7637864.72746  22831726.374    22831733.027
  20395874.327   -26056201.78649 -19490323.35748  20395873.740    20395879.841
  21661699.832   -17607840.83549 -13708196.33347  21661699.637    21661706.165
  22210469.522   -15615867.22049 -11908702.99647  22210469.082    22210475.236
  21175269.009   -22277253.14049 -17318264.98047  21175268.636    21175273.352
 03  3 26  1 13 30.0000000  0  8G 9G17G14G31G15G 3G23G18
  23502618.390    -8015510.17649  -6238432.35645  23502618.066    23502625.288
  22337682.762   -17792083.65149 -13419646.28146  22337682.244    22337689.996
  21063634.454   -20639877.10649 -16065805.39947  21063634.090    21063639.537
  22822137.930    -9874925.06949  -7677128.86946  22822137.533    22822144.249
  20400636.237   -26031177.90449 -19470824.22548  20400635.634    20400641.711
  21661696.318   -17607859.15149 -13708210.60847  21661696.150    21661702.671
  22220908.597   -15561009.80349 -11865956.96147  22220908.145    22220914.240
  21183979.943   -22231476.99949 -17282595.26747  21183979.566    21183984.240
 03  3 26  1 14  0.0000000  0  8G 9G17G14G31G15G 3G23G18
  23499117.712    -8033906.33449  -6252766.96845  23499117.459    23499124.591
  22350983.286   -17722189.36249 -13365183.26946  22350982.746    22350990.480
  21050789.054   -20707379.75549 -16118404.82547  21050788.722    21050794.179
  22812648.167    -9924793.98149  -7715987.73846  22812647.792    22812654.393
  20405474.290   -26005753.66549 -19451013.12548  20405473.685    20405479.750
  21661800.759   -17607310.45349 -13707783.05447  21661800.568    21661807.077
  22231360.284   -15506086.01349 -11823159.19947  22231359.820    22231365.896
  21192724.475   -22185524.43649 -17246788.07647  21192724.092    21192728.757
 03  3 26  1 14 30.0000000  0  8G 9G17G14G31G15G 3G23G18
  23495720.143    -8051759.92949  -6266678.80245  23495720.042    23495727.149
  22364342.173   -17651987.94749 -13310480.91546  22364341.678    22364349.465
  21038031.895   -20774418.76249 -16170642.97047  21038031.594    21038037.020
  22803257.517    -9974142.56449  -7754441.17246  22803257.104    22803263.566
  20410388.408   -25979929.55049 -19430890.43748  20410387.823    20410393.897
  21662012.791   -17606196.19649 -13706914.80347  21662012.601    21662019.110
  22241824.141   -15451097.95549 -11780311.36847  22241823.676    22241829.802
  21201502.030   -22139397.92149 -17210845.33747  21201501.666    21201506.339
 03  3 26  1 15  0.0000000  0  8G 9G17G14G31G15G 3G23G18
  23492425.972    -8069069.90549  -6280167.02945  23492426.002    23492433.123
  22377759.315   -17581480.29549 -13255539.96046  22377758.860    22377766.686
  21025363.271   -20840992.95849 -16222518.92547  21025362.954    21025368.322
  22793965.945   -10022969.48949  -7792488.10246  22793965.556    22793972.124
  20415378.692   -25953705.31749 -19410455.96648  20415378.118    20415384.207
  21662332.265   -17604517.03449 -13705606.37147  21662332.110    21662338.595
  22252300.082   -15396046.55549 -11737414.18147  22252299.624    22252305.783
  21210312.500   -22093098.66049 -17174767.99247  21210312.136    21210316.798
 03  3 26  1 15 30.0000000  0  8G 9G17G14G31G15G 3G23G18
  23489236.129    -8085832.67949  -6293228.87345  23489236.050    23489243.194
  22391235.218   -17510664.39549 -13200358.80146  22391234.730    22391242.522
  21012783.784   -20907098.57449 -16274029.75047  21012783.423    21012788.819
  22784774.415   -10071271.17849  -7830125.75846  22784774.010    22784780.619
  20420445.598   -25927078.46149 -19389707.76148  20420445.020    20420451.109
  21662759.688   -17602271.08849 -13703856.28847  21662759.514    21662766.026
  22262788.301   -15340930.48949 -11694466.60747  22262787.823    22262794.074
  21219156.007   -22046625.50749 -17138555.13847  21219155.644    21219160.318
 03  3 26  1 16  0.0000000  0  8G 9G17G14G31G15G 3G23G18
  23486150.428    -8102049.28049  -6305865.13345  23486150.047    23486157.157
  22404769.098   -17439543.89349 -13144940.28346  22404768.572    22404776.362
  21000293.157   -20972736.65449 -16325176.26347  21000292.860    21000298.271
  22775682.501   -10119049.04849  -7867355.24146  22775682.123    22775688.759
  20425588.731   -25900051.26149 -19368647.60248  20425588.139    20425594.220
  21663294.227   -17599461.84349 -13701667.27347  21663294.073    21663300.596
  22273288.100   -15285753.35849 -11651471.44847  22273287.644    22273293.959
  21228031.851   -21999982.59949 -17102210.01647  21228031.529    21228036.249
 03  3 26  1 16 30.0000000  0  8G 9G17G14G31G15G 3G23G18
  23483169.440    -8117716.04549  -6318072.95645  23483168.801    23483175.835
  22418361.279   -17368116.62549 -13089282.72546  22418360.792    22418368.582
  20987892.369   -21037903.41549 -16375955.51547  20987892.045    20987897.423
  22766691.098   -10166299.20249  -7904173.52646  22766690.728    22766697.293
  20430808.561   -25872621.07249 -19347273.42948  20430807.956    20430814.036
  21663936.401   -17596087.41049 -13699037.85947  21663936.219    21663942.690
  22283799.859   -15230513.53549 -11608427.44247  22283799.446    22283805.785
  21236940.390   -21953168.11849 -17065731.19847  21236940.052    21236944.737
 03  3 26  1 17  0.0000000  0  8G 9G17G14G31G15G 3G23G18
  23480292.360    -8132833.72349  -6329852.89945  23480291.982    23480299.059
  22432011.531   -17296384.57949 -13033387.68146  22432011.052    22432018.783
  20975581.043   -21102599.63149 -16426368.11047  20975580.708    20975586.077
  22757800.039   -10213022.44249  -7940581.22746  22757799.663    22757806.196
  20436104.726   -25844789.59949 -19325586.57448  20436104.129    20436110.173
  21664685.620   -17592150.33549 -13695970.01547  21664685.450    21664691.941
  22294323.092   -15175213.95549 -11565336.87347  22294322.652    22294328.988
  21245880.886   -21906185.60849 -17029121.44247  21245880.533    21245885.219
 03  3 26  1 17 30.0000000  0  8G 9G17G14G31G15G 3G23G18
  23477521.083    -8147396.85549  -6341200.75845  23477520.651    23477527.705
  22445720.226   -17224345.22949 -12977253.18446  22445719.732    22445727.455
  20963360.305   -21166819.71649 -16476409.69747  20963360.018    20963365.365
  22749010.117   -10259213.28349  -7976574.06546  22749009.738    22749016.395
  20441478.043   -25816552.55449 -19303583.68648  20441477.450    20441483.524
  21665542.589   -17587646.93249 -13692460.88447  21665542.437    21665548.913
  22304858.229   -15119851.34549 -11522197.19447  22304857.808    22304864.167
  21254853.889   -21859031.91049 -16992378.29647  21254853.551    21254858.211
 03  3 26  1 18  0.0000000  0  8G 9G17G14G31G15G 3G23G18
  23474854.527    -8161408.96149  -6352119.26345  23474854.176    23474861.212
  22459486.415   -17152003.13349 -12920882.75946  22459485.942    22459493.789
  20951229.610   -21230567.12049 -16526082.95547  20951229.266    20951234.589
  22740320.904   -10304875.36949  -8012154.88546  22740320.543    22740327.157
  20446927.737   -25787914.15449 -19281268.05748  20446927.157    20446933.227
  21666506.314   -17582582.79149 -13688514.81747  21666506.120    21666512.579
  22315404.294   -15064431.41149 -11479012.84347  22315403.857    22315410.190
  21263858.374   -21811713.10149 -16955506.49047  21263858.047    21263862.692
 03  3 26  1 18 30.0000000  0  8G 9G17G14G31G15G 3G23G18
  23472294.009    -8174865.02849  -6362604.43345  23472293.560    23472300.485
  22473310.935   -17079355.05149 -12864273.92246  22473310.451    22473318.341
  20939189.781   -21293836.51449 -16575383.73847  20939189.461    20939194.739
  22731733.466   -10350003.37249  -8047319.53846  22731733.039    22731739.496
  20452454.666   -25758870.06549 -19258636.30748  20452454.061    20452460.148
  21667577.350   -17576954.24049 -13684128.94547  21667577.188    21667583.683
  22325961.865   -15008950.99449 -11435781.36347  22325961.419    22325967.749
  21272894.910   -21764226.01149 -16918503.55847  21272894.542    21272899.196
 03  3 26  1 19  0.0000000  0  8G 9G17G14G31G15G 3G23G18
  23469839.148    -8187764.47549  -6372655.91845  23469838.848    23469845.801
  22487193.446   -17006402.48949 -12807427.83246  22487192.910    22487200.799
  20927241.090   -21356627.38749 -16624311.64747  20927240.773    20927246.001
  22723247.452   -10394596.86049  -8082067.68046  22723247.054    22723253.599
  20458058.646   -25729420.83949 -19235688.87148  20458058.061    20458064.118
  21668755.515   -17570762.99649 -13679304.62147  21668755.363    21668761.828
  22336530.615   -14953411.70549 -11392504.00147  22336530.222    22336536.502
  21281962.975   -21716572.86149 -16881371.23547  21281962.624    21281967.312
 03  3 26  1 19 30.0000000  0  8G 9G17G14G31G15G 3G23G18
  23467490.367    -8200107.90149  -6382274.12845  23467489.915    23467496.942
  22501133.356   -16933147.56749 -12750346.12246  22501132.840    22501140.783
  20915383.369   -21418940.18449 -16672867.02347  20915383.012    20915388.244
  22714863.116   -10438656.48349  -8116399.82846  22714862.748    22714869.398
  20463739.423   -25699568.26649 -19212427.13748  20463738.858    20463744.897
  21670040.284   -17564011.81049 -13674043.97647  21670040.094    21670046.548
  22347110.140   -14897816.13049 -11349182.78147  22347109.738    22347115.976
  21291062.126   -21668756.47549 -16844111.71847  21291061.775    21291066.467
 03  3 26  1 20  0.0000000  0  8G 9G17G14G31G15G 3G23G18
  23465247.719    -8211890.78049  -6391455.54045  23465247.638    23465254.715
  22515131.404   -16859587.54249 -12693026.67746  22515130.929    22515138.811
  20903617.491   -21480770.04149 -16721046.08847  20903617.147    20903622.367
  22706581.445   -10482177.47849  -8150312.27046  22706581.031    22706587.581
  20469497.658   -25669308.48149 -19188848.09248  20469497.082    20469503.134
  21671432.131   -17556697.52749 -13668344.55847  21671431.950    21671438.431
  22357700.889   -14842161.57249 -11305815.61047  22357700.496    22357706.697
  21300192.827   -21620774.29249 -16806723.01147  21300192.474    21300197.152
 03  3 26  1 20 30.0000000  0  8G 9G17G14G31G15G 3G23G18
  23463111.842    -8223114.59049  -6400201.32945  23463111.776    23463118.819
  22529187.045   -16785725.66649 -12635472.02046  22529186.489    22529194.412
  20891943.187   -21542118.42649 -16768849.97547  20891942.889    20891948.078
  22698401.773   -10525161.32249  -8183806.13346  22698401.414    22698407.947
  20475332.917   -25638643.98649 -19164953.68448  20475332.332    20475338.390
  21672930.519   -17548823.58849 -13662209.03947  21672930.332    21672936.803
  22368302.154   -14786451.35549 -11262405.06447  22368301.757    22368307.997
  21309354.347   -21572630.01449 -16769207.99247  21309353.991    21309358.669
 03  3 26  1 21  0.0000000  0  8G 9G17G14G31G15G 3G23G18
  23461083.053    -8233777.53249  -6408510.09745  23461082.741    23461089.603
  22543299.877   -16711562.08749 -12577682.27146  22543299.269    22543307.293
  20880360.899   -21602983.44449 -16816277.21347  20880360.607    20880365.806
  22690324.672   -10567606.34349  -8216880.14846  22690324.365    22690330.956
  20481245.345   -25607574.09149 -19140743.39448  20481244.759    20481250.812
  21674535.383   -17540390.45449 -13655637.79547  21674535.172    21674541.565
  22378913.963   -14730685.91249 -11218951.48447  22378913.570    22378919.781
  21318546.590   -21524324.35749 -16731567.23447  21318546.248    21318550.924
 03  3 26  1 21 30.0000000  0  8G 9G17G14G31G15G 3G23G18
  23459160.966    -8243876.93849  -6416379.71745  23459160.881    23459167.746
  22557470.332   -16637095.74949 -12519656.60646  22557469.768    22557477.785
  20868871.192   -21663362.02149 -16863325.40547  20868870.891    20868876.145
  22682350.740   -10609509.70549  -8249532.08146  22682350.426    22682357.099
  20487235.313   -25576096.65749 -19116215.53548  20487234.732    20487240.779
  21676246.727   -17531397.08449 -13648629.99747  21676246.527    21676252.950
  22389536.527   -14674864.19549 -11175454.05447  22389536.127    22389542.270
  21327769.673   -21475856.71549 -16693800.25147  21327769.342    21327774.031
 03  3 26  1 22  0.0000000  0  8G 9G17G14G31G15G 3G23G18
  23457346.305    -8253412.04849  -6423809.62445  23457346.357    23457353.332
  22571698.252   -16562327.63549 -12461395.78546  22571697.718    22571705.686
  20857474.166   -21723253.41049 -16909993.97447  20857473.901    20857479.133
  22674480.063   -10650870.54949  -8281761.26946  22674479.685    22674486.390
  20493302.820   -25544211.71349 -19091370.13048  20493302.222    20493308.282
  21678064.507   -17521844.71849 -13641186.62047  21678064.318    21678070.738
  22400169.549   -14618987.33449 -11131913.63647  22400169.155    22400175.285
  21337023.406   -21427228.18149 -16655907.90147  21337023.056    21337027.781
 03  3 26  1 22 30.0000000  0  8G 9G17G14G31G15G 3G23G18
  23455639.013    -8262384.70049  -6430801.27145  23455638.899    23455645.846
  22585982.991   -16487261.29549 -12402902.59346  22585982.479    22585990.397
  20846169.595   -21782659.40749 -16956284.30847  20846169.307    20846174.478
  22666712.173   -10691690.81349  -8313569.22846  22666711.762    22666718.461
  20499447.256   -25511922.18149 -19066209.46048  20499446.688    20499452.768
  21679987.961   -17511737.14749 -13633310.61747  21679987.747    21679994.173
  22410812.382   -14563059.15349 -11088333.23147  22410811.988    22410818.048
  21346306.940   -21378442.91749 -16617893.42047  21346306.609    21346311.339
 03  3 26  1 23  0.0000000  0  8G 9G17G14G31G15G 3G23G18
  23454039.650    -8270788.10049  -6437349.32645  23454039.636    23454046.687
  22600325.465   -16411891.65349 -12344173.05046  22600324.920    22600332.815
  20834958.699   -21841572.88549 -17002190.87047  20834958.379    20834963.539
  22659048.509   -10731963.54649  -8344950.54546  22659048.127    22659054.789
  20505669.881   -25479222.03249 -19040728.83748  20505669.341    20505675.398
  21682017.917   -17501069.24249 -13624997.99347  21682017.742    21682024.238
  22421465.967   -14507074.61549 -11044708.91747  22421465.552    22421471.560
  21355621.160   -21329496.06649 -16579753.02947  21355620.861    21355625.585
 03  3 26  1 23 30.0000000  0  8G 9G17G14G31G15G 3G23G18
  23452548.767    -8278625.57949  -6443456.44445  23452548.308    23452555.295
  22614724.731   -16336223.43149 -12285210.85346  22614724.162    22614731.997
  20823840.888   -21899997.05849 -17047716.15347  20823840.595    20823845.773
  22651488.446   -10771692.21649  -8375907.91346  22651488.011    22651494.699
  20511969.851   -25446115.62949 -19014931.64648  20511969.289    20511975.337
  21684153.608   -17489846.33749 -13616252.89747  21684153.413    21684159.888
  22432129.134   -14451039.01849 -11001044.81047  22432128.730    22432134.744
  21364965.089   -21280393.29149 -16541491.13147  21364964.812    21364969.528
 03  3 26  1 24  0.0000000  0  8G 9G17G14G31G15G 3G23G18
  23451165.361    -8285894.11549  -6449120.17245  23451165.126    23451172.082
  22629180.918   -16260255.27849 -12226014.94646  22629180.415    22629188.173
  20812816.856   -21957928.63949 -17092857.59547  20812816.527    20812821.687
  22644032.363   -10810873.42149  -8406438.68146  22644031.983    22644038.742
  20518347.550   -25412600.57149 -18988816.02148  20518346.984    20518353.017
  21686395.127   -17478067.07149 -13607074.27447  21686394.951    21686401.457
  22442802.398   -14394950.56249 -10957339.52247  22442801.991    22442808.078
  21374338.941   -21231133.38549 -16503106.79847  21374338.643    21374343.335
 03  3 26  1 24 30.0000000  0  8G 9G17G14G31G15G 3G23G18
  23449890.336    -8292592.51849  -6454339.66945  23449890.279    23449897.312
  22643694.125   -16183987.76149 -12166585.77546  22643693.667    22643701.422
  20801886.780   -22015366.43649 -17137614.27347  20801886.434    20801891.586
  22636680.845   -10849506.22749  -8436542.13446  22636680.442    22636687.070
  20524803.074   -25378676.64849 -18962381.79148  20524802.495    20524808.541
  21688742.370   -17465732.48249 -13597462.92747  21688742.166    21688748.671
  22453485.627   -14338810.06349 -10913593.67947  22453485.206    22453491.316
  21383742.594   -21181716.98849 -16464600.52047  21383742.283    21383746.997
 03  3 26  1 25  0.0000000  0  8G 9G17G14G31G15G 3G23G18
  23448724.620    -8298720.23549  -6459114.51345  23448724.186    23448731.235
  22658264.234   -16107421.66449 -12106923.95546  22658263.730    22658271.560
  20791050.815   -22072309.62149 -17181985.54347  20791050.485    20791055.591
  22629433.806   -10887589.96149  -8466217.74046  22629433.369    22629439.900
  20531336.456   -25344343.85349 -18935628.97948  20531335.872    20531341.880
  21691195.012   -17452843.82749 -13587419.84347  21691194.808    21691201.295
  22464178.482   -14282618.58649 -10869808.11547  22464178.073    22464184.170
  21393175.651   -21132145.90849 -16425973.71247  21393175.323    21393180.028
 03  3 26  1 25 30.0000000  0  8G 9G17G14G31G15G 3G23G18
  23447667.469    -8304275.72249  -6463443.42345  23447667.028    23447674.087
  22672891.177   -16030556.73849 -12047029.27646  22672890.654    22672898.564
  20780309.376   -22128756.16749 -17225969.82048  20780309.022    20780314.119
  22622291.473   -10925122.59449  -8495463.91746  22622291.104    22622297.691
  20537947.826   -25309601.04449 -18908556.66148  20537947.215    20537953.236
  21693753.084   -17439401.12749 -13576945.03147  21693752.907    21693759.403
  22474881.114   -14226375.85649 -10825982.60447  22474880.684    22474886.807
  21402638.259   -21082419.92249 -16387226.19247  21402637.912    21402642.588
 03  3 26  1 26  0.0000000  0  8G 9G17G14G31G15G 3G23G18
  23446719.078    -8309259.31349  -6467326.70345  23446718.754    23446725.660
  22687574.533   -15953395.20849 -11986903.46846  22687574.029    22687582.029
  20769662.390   -22184706.21749 -17269567.21948  20769662.032    20769667.136
  22615254.030   -10962104.57949  -8524281.02346  22615253.676    22615260.241
  20544636.948   -25274449.41449 -18881165.77748  20544636.334    20544642.420
  21696416.120   -17425406.76549 -13566040.35547  21696415.934    21696422.469
  22485593.080   -14170083.95849 -10782118.78646  22485592.648    22485598.767
  21412129.839   -21032541.44949 -16348359.84947  21412129.481    21412134.161
 03  3 26  1 26 30.0000000  0  8G 9G17G14G31G15G 3G23G18
  23445879.868    -8313668.51949  -6470762.40645  23445879.655    23445886.533
  22702314.477   -15875936.55949 -11926546.15446  22702313.974    22702321.917
  20759110.419   -22240157.03449 -17312775.60548  20759110.057    20759115.134
  22608321.801   -10998533.48049  -8552667.15946  22608321.415    22608327.934
  20551404.132   -25238887.52149 -18853455.20448  20551403.539    20551409.627
  21699184.316   -17410859.89349 -13554705.14747  21699184.147    21699190.673
  22496314.504   -14113741.96349 -10738215.93546  22496314.106    22496320.183
  21421650.537   -20982509.78349 -16309374.14147  21421650.190    21421654.889
 03  3 26  1 27  0.0000000  0  8G 9G17G14G31G15G 3G23G18
  23445149.737    -8317503.91749  -6473751.00745  23445149.761    23445156.670
  22717110.674   -15798182.56449 -11865958.70446  22717110.162    22717118.102
  20748653.279   -22295109.30049 -17355595.50948  20748652.937    20748658.006
  22601494.609   -11034409.93549  -8580622.81046  22601494.291    22601500.808
  20558249.181   -25202916.73649 -18825426.01948  20558248.590    20558254.630
  21702057.103   -17395763.46449 -13542941.71647  21702056.929    21702063.431
  22507045.161   -14057352.19949 -10694275.86646  22507044.737    22507050.806
  21431199.889   -20932327.65449 -16270271.18347  21431199.519    21431204.256
 03  3 26  1 27 30.0000000  0  8G 9G17G14G31G15G 3G23G18
  23444529.537    -8320762.30949  -6476289.97245  23444529.699    23444536.620
  22731963.249   -15720131.61649 -11805139.84846  22731962.760    22731970.826
  20738291.752   -22349559.36649 -17398024.08648  20738291.420    20738296.456
  22594773.400   -11069730.34149  -8608145.18446  22594773.044    22594779.590
  20565172.510   -25166534.45649 -18797076.18948  20565171.908    20565177.919
  21705034.730   -17380115.84049 -13530748.78047  21705034.537    21705041.051
  22517785.229   -14000912.71549 -10650297.05546  22517784.822    22517790.884
  21440778.209   -20881993.26849 -16231049.58547  21440777.848    21440782.608
 03  3 26  1 28  0.0000000  0  8G 9G17G14G31G15G 3G23G18
  23444019.137    -8323444.69649  -6478380.09645  23444019.263    23444026.082
  22746871.965   -15641785.94049 -11744091.33646  22746871.449    22746879.595
  20728025.619   -22403508.03749 -17440061.96648  20728025.277    20728030.325
  22588157.721   -11104495.73349  -8635235.08746  22588157.354    22588163.935
  20572173.757   -25129742.33549 -18768407.00048  20572173.151    20572179.215
  21708116.735   -17363919.77349 -13518128.48347  21708116.534    21708123.055
  22528534.347   -13944425.91349 -10606281.37247  22528533.920    22528540.018
  21450384.892   -20831509.51649 -16191711.59647  21450384.548    21450389.309
 03  3 26  1 28 30.0000000  0  8G 9G17G14G31G15G 3G23G18
  23443617.927    -8325550.06649  -6480020.60445  23443618.561    23443625.421
  22761836.644   -15563146.34449 -11682813.80746  22761836.158    22761844.318
  20717855.134   -22456954.01049 -17481708.13648  20717854.818    20717859.849
  22581647.851   -11138705.03149  -8661891.66446  22581647.481    22581654.057
  20579253.031   -25092540.16849 -18739418.29648  20579252.440    20579258.560
  21711302.958   -17347176.21949 -13505081.57247  21711302.768    21711309.327
  22539292.393   -13887892.07749 -10562229.04047  22539291.953    22539298.121
  21460019.895   -20780877.13949 -16152257.79647  21460019.568    21460024.343
 03  3 26  1 29  0.0000000  0  8G 9G17G14G31G15G 3G23G18
  23443327.727    -8327075.57149  -6481209.27945  23443328.212    23443335.141
  22776857.386   -15484211.70849 -11621306.37746  22776856.950    22776865.117
  20707780.961   -22509894.23549 -17522960.21548  20707780.612    20707785.616
  22575244.476   -11172355.21849  -8688112.58546  22575244.074    22575250.576
  20586410.823   -25054925.64749 -18710108.27847  20586410.225    20586416.337
  21714593.593   -17329884.18049 -13491607.27547  21714593.390    21714599.902
  22550059.639   -13831309.81949 -10518138.98246  22550059.209    22550065.369
  21469683.451   -20730094.65849 -16112687.02647  21469683.128    21469687.858
 03  3 26  1 29 30.0000000  0  8G 9G17G14G31G15G 3G23G18
  23443147.313    -8328023.25049  -6481947.67945  23443147.857    23443154.741
  22791933.785   -15404985.00249 -11559571.34646  22791933.343    22791941.548
  20697802.621   -22562330.48149 -17563819.58548  20697802.300    20697807.298
  22568946.977   -11205448.21549  -8713899.31446  22568946.594    22568953.193
  20593646.608   -25016901.48549 -18680479.06347  20593646.035    20593652.092
  21717987.745   -17312047.60249 -13477708.65047  21717987.570    21717994.092
  22560835.457   -13774682.47449 -10474013.79546  22560834.999    22560841.195
  21479374.885   -20679166.03949 -16073002.38347  21479374.539    21479379.246
 03  3 26  1 30  0.0000000  0  8G 9G17G14G31G15G 3G23G18
  23443077.376    -8328391.35149  -6482234.44745  23443077.736    23443084.613
  22807065.929   -15325465.90249 -11497608.48046  22807065.437    22807073.655
  20687920.673   -22614260.38349 -17604284.39948  20687920.331    20687925.296
  22562756.005   -11237982.07149  -8739250.36346  22562755.609    22562762.159
  20600960.540   -24978466.58949 -18650529.80347  20600959.932    20600965.968
  21721485.541   -17293666.52849 -13463385.75047  21721485.369    21721491.903
  22571619.860   -13718009.53449 -10429853.07146  22571619.453    22571625.691
  21489094.216   -20628090.78449 -16033203.47847  21489093.870    21489098.544
 03  3 26  1 30 30.0000000  0  8G 9G17G14G31G15G 3G23G18
  23443117.742    -8328178.65749  -6482068.67345  23443118.157    23443124.965
  22822253.512   -15245655.01749 -11435418.24646  22822252.983    22822261.223
  20678135.271   -22665682.70949 -17644353.70048  20678134.955    20678139.918
  22556671.667   -11269955.55649  -8764164.76446  22556671.271    22556677.770
  20608352.731   -24939620.24449 -18620259.92247  20608352.155    20608358.227
  21725086.860   -17274741.53349 -13448639.01447  21725086.695    21725093.200
  22582413.041   -13661291.09849 -10385656.90346  22582412.601    22582418.874
  21498841.249   -20576869.66149 -15993290.90147  21498840.892    21498845.608
 03  3 26  1 31  0.0000000  0  8G 9G17G14G31G15G 3G23G18
  23443268.833    -8327383.35749  -6481448.91045  23443269.472    23443276.368
  22837496.741   -15165551.76149 -11373000.21046  22837496.190    22837504.448
  20668446.819   -22716595.51449 -17684025.97148  20668446.522    20668451.517
  22550694.277   -11301366.89849  -8788641.11846  22550693.929    22550700.429
  20615823.456   -24900361.45249 -18589668.65447  20615822.873    20615828.944
  21728791.583   -17255272.90449 -13433468.66147  21728791.441    21728797.992
  22593214.888   -13604526.85949 -10341425.03646  22593214.493    22593220.751
  21508616.115   -20525502.34649 -15953264.41847  21508615.765    21508620.532
 03  3 26  1 31 30.0000000  0  8G 9G17G14G31G15G 3G23G18
  23443531.060    -8326006.95349  -6480376.32745  23443531.341    23443538.269
  22852795.088   -15085158.74349 -11310356.37646  22852794.530    22852802.791
  20658855.149   -22766999.92949 -17723302.09748  20658854.842    20658859.814
  22544823.682   -11332217.33649  -8812680.42046  22544823.333    22544829.767
  20623372.296   -24860692.08449 -18558757.46447  20623371.697    20623377.726
  21732599.213   -17235263.86249 -13417877.21847  21732599.055    21732605.643
  22604025.049   -13547719.30649 -10297159.42446  22604024.629    22604030.912
  21518418.162   -20473991.77549 -15913126.30747  21518417.829    21518422.629
 03  3 26  1 32  0.0000000  0  8G 9G17G14G31G15G 3G23G18
  23443904.351    -8324047.83149  -6478849.69145  23443904.163    23443911.056
  22868148.433   -15004476.15549 -11247486.88746  22868147.871    22868156.204
  20649360.686   -22816893.76749 -17762180.36948  20649360.355    20649365.278
  22539060.072   -11362504.95749  -8836281.16246  22539059.734    22539066.156
  20630999.428   -24820611.20249 -18527525.60447  20630998.857    20631004.904
  21736509.632   -17214714.44449 -13401864.70147  21736509.478    21736516.072
  22614843.559   -13490867.70549 -10252859.48246  22614843.130    22614849.389
  21528247.643   -20422337.53449 -15872876.24347  21528247.324    21528252.067
 03  3 26  1 32 30.0000000  0  8G 9G17G14G31G15G 3G23G18
  23444388.078    -8321504.60049  -6476867.91246  23444388.077    23444395.010
  22883556.921   -14923504.11649 -11184391.86346  22883556.453    22883564.723
  20639963.597   -22866275.52849 -17800659.62148  20639963.291    20639968.199
  22533403.915   -11392228.34949  -8859442.24246  22533403.559    22533409.950
  20638705.038   -24780117.93149 -18495972.40547  20638704.462    20638710.551
  21740522.790   -17193625.12249 -13385431.47847  21740522.639    21740529.198
  22625670.396   -13433972.11249 -10208525.25946  22625669.975    22625676.241
  21538104.408   -20370540.09149 -15832514.59447  21538104.071    21538108.768
 03  3 26  1 33  0.0000000  0  8G 9G17G14G31G15G 3G23G18
  23444983.054    -8318376.81849  -6474430.66446  23444983.226    23444990.209
  22899020.499   -14842243.03349 -11121071.59845  22899020.018    22899028.201
  20630664.130   -22915144.52949 -17838739.31448  20630663.799    20630668.699
  22527855.150   -11421387.14649  -8882163.37046  22527854.791    22527861.224
  20646489.132   -24739212.21449 -18464097.81947  20646488.543    20646494.633
  21744638.514   -17171997.26249 -13368578.60747  21744638.330    21744644.882
  22636505.506   -13377033.19649 -10164157.27546  22636505.073    22636511.342
  21547988.202   -20318600.58249 -15792042.24647  21547987.858    21547992.537
 03  3 26  1 33 30.0000000  0  8G 9G17G14G31G15G 3G23G18
  23445689.799    -8314663.89049  -6471537.42945  23445689.797    23445696.683
  22914538.899   -14760693.83149 -11057526.83246  22914538.405    22914546.501
  20621462.409   -22963499.69249 -17876418.61948  20621462.089    20621466.977
  22522413.984   -11449980.38449  -8904443.80446  22522413.628    22522420.113
  20654351.741   -24697894.09449 -18431901.88747  20654351.150    20654357.176
  21748856.418   -17149832.10649 -13351307.07047  21748856.230    21748862.794
  22647348.800   -13320051.26049 -10119755.76846  22647348.377    22647354.607
  21557898.960   -20266519.33249 -15751459.45447  21557898.607    21557903.308
 03  3 26  1 34  0.0000000  0  8G 9G17G14G31G15G 3G23G18
  23446507.386    -8310367.07749  -6468189.21045  23446507.381    23446514.207
  22930111.589   -14678859.01449 -10993759.49046  22930111.085    22930119.203
  20612358.306   -23011341.96749 -17913698.27248  20612357.991    20612362.847
  22517080.337   -11478009.16249  -8926284.41346  22517079.980    22517086.414
  20662292.439   -24656165.44449 -18399386.05747  20662291.843    20662297.899
  21753175.907   -17127132.67649 -13333619.21647  21753175.750    21753182.364
  22658199.838   -13263028.63749 -10075322.56046  22658199.435    22658205.656
  21567836.207   -20214298.80249 -15710768.13847  21567835.878    21567840.553
 03  3 26  1 34 30.0000000  0  8G 9G17G14G31G15G 3G23G18
  23447436.849    -8305482.53749  -6464383.05345  23447436.887    23447443.595
  22945739.020   -14596735.92249 -10929767.51346  22945738.566    22945746.793
  20603352.605   -23058667.06849 -17950574.93248  20603352.276    20603357.111
  22511854.799   -11505469.46749  -8947682.04246  22511854.428    22511860.846
  20670311.953   -24614022.68749 -18366547.55247  20670311.371    20670317.391
  21757597.515   -17103896.94949 -13315513.47547  21757597.369    21757603.943
  22669059.234   -13205962.34449 -10030855.31446  22669058.787    22669065.037
  21577800.393   -20161936.66249 -15669966.47547  21577800.050    21577804.737
 03  3 26  1 35  0.0000000  0  8G 9G17G14G31G15G 3G23G18
  23448477.699    -8300011.94149  -6460120.22245  23448477.836    23448484.600
  22961421.002   -14514327.18849 -10865552.96946  22961420.499    22961428.707
  20594445.065   -23105476.25749 -17987049.58148  20594444.733    20594449.606
  22506737.111   -11532362.69349  -8968637.79046  22506736.780    22506743.295
  20678409.836   -24571468.06049 -18333388.10747  20678409.255    20678415.227
  21762120.605   -17080128.52349 -13296992.64247  21762120.408    21762126.968
  22679926.383   -13148854.83149  -9986355.95946  22679925.924    22679932.207
  21587790.990   -20109435.67349 -15629056.61647  21587790.643    21587795.278
 03  3 26  1 35 30.0000000  0  8G 9G17G14G31G15G 3G23G18
  23449630.700    -8293954.21449  -6455399.85645  23449630.589    23449637.353
  22977157.290   -14431633.47349 -10801116.35945  22977156.706    22977164.946
  20585635.978   -23151768.31049 -18023121.27348  20585635.651    20585640.497
  22501727.638   -11558687.71849  -8989150.79746  22501727.288    22501733.769
  20686586.206   -24528500.87649 -18299907.19147  20686585.605    20686591.593
  21766744.857   -17055827.76149 -13278057.00247  21766744.676    21766751.288
  22690801.407   -13091706.09749  -9941824.48746  22690800.985    22690807.329
  21597808.038   -20056795.96249 -15588038.66547  21597807.709    21597812.297
 03  3 26  1 36  0.0000000  0  8G 9G17G14G31G15G 3G23G18
  23450895.859    -8287308.58549  -6450221.43045  23450895.223    23450901.862
  22992947.481   -14348655.15549 -10736457.98445  22992946.864    22992955.202
  20576925.532   -23197542.03949 -18058789.06648  20576925.161    20576929.965
  22496826.404   -11584443.78349  -9009220.44646  22496826.081    22496832.520
  20694841.130   -24485120.90349 -18266104.61447  20694840.540    20694846.542
  21771470.146   -17030996.03249 -13258707.62347  21771469.995    21771476.593
  22701684.239   -13034516.41049  -9897261.10046  22701683.801    22701690.175
  21607851.294   -20004018.39249 -15546913.29247  21607850.966    21607855.526
 03  3 26  1 36 30.0000000  0  8G 9G17G14G31G15G 3G23G18
  23452272.110    -8280076.54249  -6444586.00545  23452271.361    23452278.021
  23008791.527   -14265394.82949 -10671579.85845  23008790.915    23008799.136
  20568313.410   -23242798.49449 -18094053.79548  20568313.093    20568317.899
  22492033.146   -11609632.08949  -9028847.68946  22492032.839    22492039.303
  20703174.279   -24441330.03949 -18231981.86847  20703173.661    20703179.691
  21776295.879   -17005636.65849 -13238947.08947  21776295.724    21776302.319
  22712574.488   -12977287.91049  -9852667.46546  22712574.062    22712580.441
  21617920.287   -19951105.26349 -15505682.29347  21617919.936    21617924.540
 03  3 26  1 37  0.0000000  0  8G 9G17G14G31G15G 3G23G18
  23453760.417    -8272254.89649  -6438491.18345  23453759.700    23453766.381
  23024689.388   -14181851.20849 -10606480.99545  23024688.740    23024696.978
  20559800.455   -23287534.22849 -18128912.76648  20559800.147    20559804.944
  22487348.760   -11634249.36849  -9048029.97546  22487348.422    22487354.827
  20711586.073   -24397125.51549 -18197536.78647  20711585.468    20711591.563
  21781222.361   -16979748.19549 -13218774.28147  21781222.194    21781228.795
  22723472.563   -12920018.43749  -9808041.90046  22723472.127    22723478.487
  21628015.462   -19898054.73449 -15464344.22447  21628015.107    21628019.731
 03  3 26  1 37 30.0000000  0  8G 9G17G14G31G15G 3G23G18
  23455360.734    -8263843.80849  -6431937.06245  23455360.273    23455366.929
  23040640.937   -14098024.89249 -10541161.84045  23040640.406    23040648.604
  20551386.704   -23331748.88449 -18163365.70348  20551386.361    20551391.145
  22482772.868   -11658295.50449  -9066767.21246  22482772.521    22482779.019
  20720076.505   -24352507.82849 -18162769.75847  20720075.920    20720081.999
  21786249.078   -16953332.50149 -13198190.64347  21786248.924    21786255.562
  22734378.266   -12862708.71249  -9763384.98446  22734377.808    22734384.177
  21638136.558   -19844867.86249 -15422899.91047  21638136.190    21638140.871
 03  3 26  1 38  0.0000000  0  8G 9G17G14G31G15G 3G23G18
  23457073.507    -8254842.75249  -6424923.22645  23457073.016    23457079.724
  23056646.296   -14013916.78549 -10475623.10145  23056645.826    23056653.929
  20543072.209   -23375441.59749 -18197411.93148  20543071.877    20543076.668
  22478305.725   -11681769.84849  -9085058.89346  22478305.413    22478311.953
  20728645.623   -24307477.00049 -18127680.81247  20728645.038    20728651.072
  21791375.921   -16926390.62749 -13177196.99747  21791375.784    21791382.423
  22745291.629   -12805359.00649  -9718696.90646  22745291.162    22745297.488
  21648283.430   -19791545.46449 -15381349.99147  21648283.085    21648287.783
 03  3 26  1 38 30.0000000  0  8G 9G17G14G31G15G 3G23G18
  23458898.358    -8245252.43049  -6417450.20045  23458897.894    23458904.739
  23072704.765   -13929528.56349 -10409866.08945  23072704.280    23072712.553
  20534856.914   -23418612.85049 -18231051.82848  20534856.595    20534861.386
  22473947.537   -11704672.90849  -9102905.42046  22473947.200    22473953.621
  20737293.157   -24262034.26049 -18092270.88947  20737292.531    20737298.585
  21796602.540   -16898925.06549 -13155795.27847  21796602.346    21796608.958
  22756212.284   -12747970.64549  -9673978.71346  22756211.813    22756218.136
  21658455.856   -19738089.07349 -15339695.65947  21658455.503    21658460.185
 03  3 26  1 39  0.0000000  0  8G 9G17G14G31G15G 3G23G18
  23460835.545    -8235072.34249  -6409517.61145  23460835.121    23460841.986
  23088816.358   -13844860.99949 -10343891.41145  23088815.915    23088824.380
  20526741.093   -23461261.75449 -18264284.69848  20526740.763    20526745.541
  22469698.021   -11727004.03149  -9120306.28346  22469697.662    22469704.170
  20746018.994   -24216179.39649 -18056539.83647  20746018.400    20746024.464
  21801928.440   -16870937.21049 -13133986.58547  21801928.249    21801934.897
  22767140.226   -12690543.94749  -9629230.63946  22767139.737    22767146.081
  21668653.651   -19684499.34649 -15297937.43147  21668653.303    21668657.942
 03  3 26  1 39 30.0000000  0  8G 9G17G14G31G15G 3G23G18
  23462884.930    -8224301.98549  -6401125.09645  23462884.633    23462891.520
  23104981.255   -13759914.64549 -10277699.51045  23104980.744    23104989.214
  20518724.907   -23503386.97849 -18297109.51148  20518724.573    20518729.350
  22465557.425   -11748762.41049  -9137260.84746  22465557.118    22465563.694
  20754823.450   -24169911.82949 -18020487.19847  20754822.845    20754828.861
  21807353.490   -16842428.18149 -13111771.78147  21807353.333    21807359.999
  22778075.528   -12633078.77849  -9584452.58846  22778075.047    22778081.313
  21678876.804   -19630776.28849 -15256075.30947  21678876.476    21678881.090
 03  3 26  1 40  0.0000000  0  8G 9G17G14G31G15G 3G23G18
  23465046.661    -8212941.59349  -6392272.79845  23465046.447    23465053.204
  23121198.944   -13674690.76449 -10211291.34745  23121198.497    23121206.799
  20510808.362   -23544988.51749 -18329526.25548  20510808.033    20510812.801
  22461526.012   -11769948.13649  -9153769.19646  22461525.669    22461532.128
  20763706.233   -24123232.57249 -17984113.75847  20763705.606    20763711.607
  21812877.407   -16813400.03349 -13089152.46947  21812877.239    21812883.859
  22789017.864   -12575576.12649  -9539645.32746  22789017.392    22789023.663
  21689125.066   -19576921.29249 -15214110.37347  21689124.741    21689129.330
 03  3 26  1 40 30.0000000  0  8G 9G17G14G31G15G 3G23G18
  23467320.422    -8200991.14249  -6382960.74345  23467320.532    23467327.251
  23137469.164   -13589190.47549 -10144667.80545  23137468.764    23137477.113
  20502991.522   -23586066.06749 -18361534.69348  20502991.185    20502995.934
  22457603.430   -11790561.26849  -9169831.35846  22457603.075    22457609.612
  20772667.300   -24076141.89549 -17947419.73147  20772666.682    20772672.711
  21818499.799   -16783854.49049 -13066129.99347  21818499.607    21818506.251
  22799967.247   -12518036.62549  -9494809.35746  22799966.762    22799973.069
  21699398.278   -19522935.29649 -15172043.36047  21699397.929    21699402.528
 03  3 26  1 41  0.0000000  0  8G 9G17G14G31G15G 3G23G18
  23469707.236    -8188448.38849  -6373187.12245  23469707.250    23469714.003
  23153792.223   -13503412.68349 -10077828.02245  23153791.723    23153800.133
  20495274.914   -23626616.84849 -18393132.67248  20495274.597    20495279.349
  22453790.313   -11810599.07749  -9185445.22546  22453790.005    22453796.493
  20781707.015   -24028637.83349 -17910403.59147  20781706.394    20781712.462
  21824220.709   -16753790.90649 -13042703.84947  21824220.516    21824227.173
  22810924.018   -12460458.38449  -9449943.19046  22810923.556    22810929.811
  21709696.631   -19468816.91349 -15129873.18447  21709696.310    21709700.901
 03  3 26  1 41 30.0000000  0  8G 9G17G14G31G15G 3G23G18
  23472206.526    -8175314.56049  -6362952.93245  23472206.559    23472213.257
  23170167.528   -13417359.49249 -10010773.65345  23170167.037    23170175.527
  20487658.397   -23666641.65949 -18424320.80348  20487658.090    20487662.819
  22450086.577   -11830062.59949  -9200611.60446  22450086.239    22450092.675
  20790825.129   -23980721.80549 -17873066.43747  20790824.512    20790830.584
  21830039.610   -16723212.35849 -13018876.44047  21830039.428    21830046.071
  22821887.883   -12402843.09049  -9405048.16646  22821887.386    22821893.695
  21720019.821   -19414568.21349 -15087601.47147  21720019.473    21720024.102
 03  3 26  1 42  0.0000000  0  8G 9G17G14G31G15G 3G23G18
  23474817.849    -8161591.03449  -6352259.24245  23474818.002    23474824.735
  23186594.923   -13331033.28349  -9943506.54645  23186594.395    23186602.959
  20480141.849   -23706141.36849 -18455099.75948  20480141.503    20480146.238
  22446491.818   -11848953.00949  -9215331.39546  22446491.487    22446497.966
  20800021.326   -23932395.35049 -17835409.46547  20800020.715    20800026.799
  21835955.981   -16692121.72349 -12994649.99547  21835955.792    21835962.432
  22832858.381   -12345192.57349  -9360125.68946  22832857.912    22832864.257
  21730367.394   -19360191.24449 -15045229.80247  21730367.030    21730371.723
 03  3 26  1 42 30.0000000  0  8G 9G17G14G31G15G 3G23G18
  23477541.828    -8147274.80549  -6341103.71445  23477542.176    23477548.978
  23203074.591   -13244432.58149  -9876025.55145  23203074.106    23203082.545
  20472725.828   -23745112.50349 -18485466.84248  20472725.497    20472730.244
  22443006.811   -11867267.25049  -9229602.23846  22443006.440    22443012.857
  20809296.091   -23883655.84549 -17797430.63647  20809295.505    20809301.575
  21841969.986   -16660517.86549 -12970023.64447  21841969.819    21841976.496
  22843836.042   -12287504.33249  -9315173.82146  22843835.592    22843841.968
  21740739.726   -19305683.88049 -15002756.53447  21740739.389    21740744.141
 03  3 26  1 43  0.0000000  0  8G 9G17G14G31G15G 3G23G18
  23480378.723    -8132368.32249  -6329488.24645  23480378.762    23480385.577
  23219605.848   -13157560.06449  -9808332.74845  23219605.332    23219613.821
  20465409.995   -23783557.30749 -18515423.79648  20465409.682    20465414.396
  22439630.816   -11885007.54749  -9243425.83346  22439630.487    22439636.925
  20818649.005   -23834506.01849 -17759132.07847  20818648.410    20818654.503
  21848080.843   -16628405.16749 -12945000.79547  21848080.658    21848087.340
  22854820.411   -12229781.22849  -9270194.77446  22854819.957    22854826.341
  21751136.318   -19251049.29649 -14960184.13447  21751135.972    21751140.765
 03  3 26  1 43 30.0000000  0  8G 9G17G14G31G15G 3G23G18
  23483328.265    -8116869.48449  -6317411.18545  23483328.040    23483334.879
  23236188.938   -13070414.99449  -9740427.55745  23236188.342    23236197.044
  20458194.824   -23821473.22649 -18544968.62848  20458194.507    20458199.199
  22436364.651   -11902171.55649  -9256800.39346  22436364.288    22436370.730
  20828080.304   -23784944.26949 -17720512.53947  20828079.720    20828085.807
  21854288.680   -16595783.05349 -12919580.99647  21854288.461    21854295.128
  22865811.688   -12172021.50549  -9225187.19946  22865811.259    22865817.632
  21761557.322   -19196286.30749 -14917511.67547  21761556.998    21761561.833
 03  3 26  1 44  0.0000000  0  8G 9G17G14G31G15G 3G23G18
  23486389.735    -8100780.20449  -6304874.05645  23486389.851    23486396.551
  23252823.514   -12983000.49649  -9672312.44345  23252822.935    23252831.594
  20451080.014   -23858861.64249 -18574102.42248  20451079.692    20451084.384
  22433207.802   -11918761.21349  -9269727.40046  22433207.444    22433213.823
  20837589.606   -23734972.60949 -17681573.59547  20837589.017    20837595.089
  21860592.693   -16562655.11449 -12893767.05347  21860592.517    21860599.197
  22876809.496   -12114227.58049  -9180152.97546  22876809.075    22876815.418
  21772002.310   -19141397.42749 -14874741.12847  21772001.977    21772006.844
 03  3 26  1 44 30.0000000  0  8G 9G17G14G31G15G 3G23G18
  23489564.563    -8084097.46349  -6291874.46745  23489564.443    23489571.126
  23269509.812   -12895314.21549  -9603985.54245  23269509.273    23269517.913
  20444066.316   -23895718.82249 -18602822.26348  20444065.998    20444070.654
  22430160.825   -11934772.92849  -9282204.06246  22430160.443    22430166.931
  20847177.527   -23684587.92749 -17642312.81247  20847176.940    20847183.014
  21866993.298   -16529019.91049 -12867557.83547  21866993.116    21866999.775
  22887814.391   -12056396.37749  -9135089.70546  22887813.986    22887820.216
  21782471.855   -19086379.83049 -14831870.27847  21782471.509    21782476.392
 03  3 26  1 45  0.0000000  0  8G 9G17G14G31G15G 3G23G18
  23492850.938    -8066825.15349  -6278415.50045  23492851.198    23492857.844
  23286246.834   -12807360.85649  -9535450.52445  23286246.257    23286254.905
  20437153.009   -23932048.46049 -18631131.02648  20437152.664    20437157.292
  22427223.100   -11950210.62849  -9294233.45246  22427222.717    22427229.209
  20856843.211   -23633794.45249 -17602733.48847  20856842.628    20856848.686
  21873489.279   -16494883.30949 -12840957.91847  21873489.099    21873495.805
  22898825.590   -11998532.19449  -9090000.72746  22898825.153    22898831.405
  21792964.925   -19031238.31449 -14788902.86747  21792964.594    21792969.462
 03  3 26  1 45 30.0000000  0  8G 9G17G14G31G15G 3G23G18
  23496250.523    -8048959.94049  -6264494.54445  23496250.854    23496257.365
  23303035.051   -12719138.38249  -9466705.80945  23303034.485    23303043.042
  20430340.789   -23967846.63349 -18659025.66548  20430340.440    20430345.068
  22424395.359   -11965070.60649  -9305812.66946  22424394.994    22424401.402
  20866587.278   -23582588.95949 -17562833.10647  20866586.683    20866592.768
  21880081.086   -16460243.27149 -12813965.71347  21880080.895    21880087.611
  22909843.670   -11940631.75349  -9044883.50446  22909843.256    22909849.486
  21803482.177   -18975969.82149 -14745836.51247  21803481.853    21803486.702
 03  3 26  1 46  0.0000000  0  8G 9G17G14G31G15G 3G23G18
  23499762.767    -8030503.75749  -6250113.04545  23499762.953    23499769.471
  23319874.077   -12630648.92249  -9397753.05345  23319873.488    23319882.109
  20423629.486   -24003114.57949 -18686507.13848  20423629.156    20423633.784
  22421677.196   -11979354.54749  -9316943.01946  22421676.806    22421683.326
  20876409.319   -23530973.55449 -17522613.31147  20876408.733    20876414.859
  21886768.030   -16425103.39449 -12786584.02347  21886767.826    21886774.513
  22920868.292   -11882697.18549  -8999739.69246  22920867.854    22920874.042
  21814023.149   -18920576.99349 -14702673.27647  21814022.806    21814027.613
 03  3 26  1 46 30.0000000  0  8G 9G17G14G31G15G 3G23G18
  23503387.658    -8011456.62149  -6235271.08845  23503387.463    23503393.919
  23336763.487   -12541893.88349  -9328593.34945  23336763.005    23336771.767
  20417019.187   -24037851.85149 -18713575.09748  20417018.832    20417023.435
  22419068.674   -11993062.23449  -9327624.34146  22419068.322    22419074.852
  20886309.412   -23478948.18449 -17482074.06647  20886308.829    20886314.946
  21893549.713   -16389465.43049 -12758814.21047  21893549.531    21893556.289
  22931899.305   -11824728.54449  -8954569.31946  22931898.877    22931905.145
  21824587.655   -18865060.23949 -14659413.46647  21824587.313    21824592.050
 03  3 26  1 47  0.0000000  0  8G 9G17G14G31G15G 3G23G18
  23507124.759    -7991817.07449  -6219967.49945  23507124.806    23507131.229
  23353703.817   -12452872.12349  -9259225.81745  23353703.347    23353712.169
  20410510.160   -24072056.59649 -18740228.10548  20410509.828    20410514.431
  22416570.163   -12006192.04549  -9337855.37546  22416569.832    22416576.299
  20896287.724   -23426511.88649 -17441214.61947  20896287.141    20896293.239
  21900426.176   -16353329.63849 -12730656.47947  21900425.980    21900432.763
  22942937.079   -11766724.58949  -8909371.42646  22942936.675    22942942.958
  21835175.894   -18809418.61349 -14616056.35747  21835175.583    21835180.241
 03  3 26  1 47 30.0000000  0  8G 9G17G14G31G15G 3G23G18
  23510974.273    -7971588.16449  -6204204.67745  23510974.211    23510980.614
  23370694.093   -12363587.83349  -9189653.71445  23370693.675    23370702.436
  20404102.035   -24105731.29349 -18766468.08548  20404101.714    20404106.302
  22414181.052   -12018746.82749  -9347638.32946  22414180.736    22414187.171
  20906343.627   -23373667.75849 -17400037.38147  20906343.030    20906349.144
  21907396.484   -16316700.60549 -12702114.40447  21907396.275    21907403.072
  22953980.988   -11708688.54049  -8864148.53446  22953980.580    22953986.896
  21845787.282   -18753655.38649 -14572604.48647  21845786.976    21845791.582
 03  3 26  1 48  0.0000000  0  8G 9G17G14G31G15G 3G23G18
  23514936.698    -7950764.93949  -6187978.75845  23514936.598    23514943.030
  23387734.963   -12274036.93049  -9119873.85645  23387734.618    23387743.443
  20397795.774   -24138870.78449 -18792291.02348  20397795.450    20397800.014
  22411902.443   -12030721.48649  -9356969.24346  22411902.053    22411908.513
  20916478.052   -23320411.12949 -17358538.71447  20916477.464    20916483.560
  21914461.201   -16279575.11849 -12673185.47947  21914461.004    21914467.838
  22965031.947   -11650615.64249  -8818896.92746  22965031.519    22965037.831
  21856422.618   -18697766.42149 -14529054.63447  21856422.284    21856426.884
 03  3 26  1 48 30.0000000  0  8G 9G17G14G31G15G 3G23G18
  23519011.098    -7929352.69849  -6171293.87645  23519011.188    23519017.691
  23404825.315   -12184226.13049  -9049891.48345  23404825.017    23404833.811
  20391590.501   -24171479.69749 -18817700.52748  20391590.156    20391594.706
  22409733.144   -12042121.12649  -9365852.08746  22409732.745    22409739.208
  20926690.011   -23266747.20949 -17316722.67947  20926689.424    20926695.486
  21921619.186   -16241960.14149 -12643875.14547  21921618.999    21921625.712
  22976088.899   -11592511.07949  -8773620.64746  22976088.465    22976094.766
  21867080.819   -18641757.20349 -14485411.08347  21867080.475    21867085.089
 03  3 26  1 49  0.0000000  0  8G 9G17G14G31G15G 3G23G18
  23523198.181    -7907351.01249  -6154149.65845  23523197.969    23523204.482
  23421965.309   -12094155.22049  -8979706.41645  23421964.961    23421973.789
  20385486.417   -24203556.70049 -18842695.55548  20385486.092    20385490.611
  22407673.458   -12052944.76649  -9374286.10246  22407673.051    22407679.481
  20936979.545   -23212675.46549 -17274588.85347  20936978.921    20936984.979
  21928870.132   -16203856.51949 -12614184.03847  21928869.929    21928876.568
  22987151.958   -11534374.17349  -8728319.17046  22987151.556    22987157.892
  21877761.954   -18585627.36649 -14441673.53847  21877761.611    21877766.245
 03  3 26  1 49 30.0000000  0  8G 9G17G14G31G15G 3G23G18
  23527497.374    -7884758.40749  -6136544.99845  23527497.133    23527503.686
  23439154.970   -12003823.75049  -8909318.31045  23439154.631    23439163.268
  20379483.933   -24235100.06249 -18867274.75648  20379483.577    20379488.063
  22405723.770   -12063190.74749  -9382269.99246  22405723.361    22405729.793
  20947346.923   -23158194.52149 -17232136.17147  20947346.324    20947352.364
  21936213.987   -16165264.06049 -12584112.02347  21936213.805    21936220.526
  22998221.545   -11476203.27749  -8682991.20346  22998221.113    22998227.489
  21888466.283   -18529375.70649 -14397841.06047  21888465.940    21888470.569
 03  3 26  1 50  0.0000000  0  8G 9G17G14G31G15G 3G23G18
  23531908.545    -7861577.43749  -6118481.88645  23531908.279    23531914.792
  23456393.604   -11913234.43449  -8838729.29245  23456393.197    23456401.904
  20373582.542   -24266111.83749 -18891439.73948  20373582.213    20373586.678
  22403883.413   -12072861.56949  -9389805.70746  22403883.044    22403889.504
  20957791.628   -23103307.20449 -17189366.84347  20957791.023    20957797.046
  21943649.999   -16126187.48749 -12553662.77947  21943649.817    21943656.606
  23009297.009   -11418001.13749  -8637638.89446  23009296.615    23009302.991
  21899193.226   -18473005.26249 -14353916.02347  21899192.894    21899197.522
 03  3 26  1 50 30.0000000  0  8G 9G17G14G31G15G 3G23G18
  23536432.133    -7837804.84149  -6099957.74745  23536431.977    23536438.447
  23473681.567   -11822385.44749  -8767937.92545  23473681.059    23473689.793
  20367783.042   -24296588.27049 -18915187.56948  20367782.698    20367787.135
  22402153.255   -12081953.87249  -9396890.62846  22402152.852    22402159.323
  20968314.230   -23048010.24049 -17146278.30547  20968313.639    20968319.690
  21951178.478   -16086625.08249 -12522834.96547  21951178.315    21951185.087
  23020379.110   -11359764.44649  -8592259.65746  23020378.723    23020385.041
  21909943.290   -18416513.23349 -14309896.24847  21909942.952    21909947.578
 03  3 26  1 51  0.0000000  0  8G 9G17G14G31G15G 3G23G18
  23541067.947    -7813443.61049  -6080974.94445  23541067.748    23541074.201
  23491018.411   -11731279.82549  -8696946.57645  23491017.986    23491026.655
  20362084.980   -24326531.78349 -18938520.14048  20362084.632    20362089.059
  22400532.602   -12090470.30549  -9403526.81646  22400532.254    22400538.730
  20978914.273   -22992306.66749 -17102872.93047  20978913.680    20978919.723
  21958798.674   -16046581.53149 -12491632.22847  21958798.450    21958805.156
  23031467.344   -11301495.91849  -8546855.60446  23031466.937    23031473.114
  21920715.938   -18359902.57849 -14265784.03747  21920715.594    21920720.200
 03  3 26  1 51 30.0000000  0  8G 9G17G14G31G15G 3G23G18
  23545816.080    -7788492.01349  -6061532.12045  23545815.791    23545822.333
  23508404.442   -11639916.87049  -8625754.72145  23508404.020    23508412.646
  20356488.769   -24355939.97249 -18961435.57948  20356488.406    20356492.800
  22399022.004   -12098408.83949  -9409712.69646  22399021.610    22399028.058
  20989592.071   -22936194.62849 -17059149.27247  20989591.478    20989597.524
  21966510.249   -16006056.59849 -12460054.38547  21966510.062    21966516.852
  23042561.916   -11243193.59649  -8501425.23146  23042561.516    23042567.626
  21931511.531   -18303171.61049 -14221578.08047  21931511.181    21931515.760
 03  3 26  1 52  0.0000000  0  8G 9G17G14G31G15G 3G23G18
  23550676.011    -7762952.40549  -6041631.11545  23550675.787    23550682.283
  23525838.746   -11548299.56749  -8554364.68045  23525838.281    23525846.935
  20350994.087   -24384814.69349 -18983935.32748  20350993.730    20350998.059
  22397620.901   -12105771.65449  -9415449.96746  22397620.500    22397626.994
  21000347.111   -22879676.43849 -17015109.13147  21000346.523    21000352.585
  21974312.769   -15965054.03149 -12428104.36347  21974312.600    21974319.434
  23053662.543   -11184859.56049  -8455970.14146  23053662.132    23053668.251
  21942329.504   -18246322.85249 -14177280.34047  21942329.132    21942333.724
 03  3 26  1 52 30.0000000  0  8G 9G17G14G31G15G 3G23G18
  23555647.183    -7736828.33149  -6021274.64645  23555647.085    23555653.488
  23543320.587   -11456432.01049  -8482779.60445  23543320.168    23543328.801
  20345600.287   -24413158.98849 -19006021.74948  20345599.924    20345604.276
  22396328.738   -12112562.04649  -9420741.19046  22396328.335    22396334.841
  21011178.760   -22822755.81849 -16970755.41547  21011178.194    21011184.210
  21982205.271   -15923579.03249 -12395786.20247  21982205.076    21982211.856
  23064768.528   -11126497.04449  -8410492.86746  23064768.103    23064774.253
  21953169.202   -18189359.98849 -14132893.67947  21953168.827    21953173.351
 03  3 26  1 53  0.0000000  0  8G 9G17G14G31G15G 3G23G18
  23560730.890    -7710112.57649  -6000457.14745  23560730.866    23560737.234
  23560851.297   -11364307.87249  -8410994.62245  23560851.032    23560859.381
  20340308.930   -24440965.04349 -19027688.77248  20340308.578    20340312.923
  22395146.914   -12118772.53149  -9425580.53646  22395146.542    22395153.005
  21022088.422   -22765425.58149 -16926082.52047  21022087.841    21022093.802
  21990188.615   -15881626.03449 -12363095.58147  21990188.459    21990195.233
  23075881.371   -11068098.62749  -8364987.61246  23075880.920    23075887.154
  21964031.955   -18132275.91849 -14088412.58847  21964031.587    21964036.118
 03  3 26  1 53 30.0000000  0  8G 9G17G14G31G15G 3G23G18
  23565926.183    -7682811.15049  -5979183.26945  23565926.079    23565932.492
  23578429.600   -11271933.69649  -8339014.81045  23578429.212    23578437.607
  20335119.002   -24468238.10149 -19048940.47048  20335118.640    20335123.002
  22394074.402   -12124408.77449  -9429972.42446  22394074.025    22394080.491
  21033074.849   -22707691.43849 -16881094.88947  21033074.256    21033080.232
  21998261.615   -15839202.34949 -12330038.19347  21998261.450    21998268.217
  23086999.958   -11009669.86249  -8319458.72146  23086999.533    23087005.755
  21974916.612   -18075076.56749 -14043841.66647  21974916.252    21974920.769
 03  3 26  1 54  0.0000000  0  8G 9G17G14G31G15G 3G23G18
  23571233.268    -7654922.52849  -5957451.85845  23571233.125    23571239.538
  23596055.546   -11179308.32549  -8266839.25945  23596055.152    23596063.739
  20330030.881   -24494976.15649 -19069775.28648  20330030.533    20330034.872
  22393111.514   -12129468.93049  -9433915.40946  22393111.142    22393117.569
  21044138.442   -22649551.69549 -16835791.20947  21044137.857    21044143.881
  22006424.185   -15796308.01049 -12296614.05747  22006424.010    22006430.801
  23098124.705   -10951208.76349  -8273904.62446  23098124.291    23098130.533
  21985823.538   -18017760.11749 -13999179.50447  21985823.161    21985827.727
 03  3 26  1 54 30.0000000  0  8G 9G17G14G31G15G 3G23G18
  23576652.054    -7626446.60849  -5935262.79945  23576651.824    23576658.338
  23613729.268   -11086432.34949  -8194468.42045  23613728.846    23613737.530
  20325044.712   -24521178.60549 -19090192.74248  20325044.345    20325048.695
  22392258.228   -12133952.73349  -9437409.28246  22392257.873    22392264.339
  21055279.279   -22591006.31049 -16790171.44647  21055278.694    21055284.665
  22014676.023   -15752944.36249 -12262824.21947  22014675.837    22014682.662
  23109255.644   -10892714.97949  -8228325.05746  23109255.226    23109261.496
  21996752.719   -17960326.60449 -13954426.11747  21996752.355    21996756.946
 03  3 26  1 55  0.0000000  0  8G 9G17G14G31G15G 3G23G18
  23582181.869    -7597386.28749  -5912618.37745  23582181.725    23582188.363
  23631450.106   -10993309.16949  -8121904.94845  23631449.677    23631458.326
  20320160.043   -24546847.43349 -19110194.39448  20320159.716    20320164.038
  22391514.202   -12137862.77449  -9440456.06946  22391513.837    22391520.244
  21066496.778   -22532058.09849 -16744237.79947  21066496.168    21066502.144
  22023016.357   -15709115.82649 -12228672.14547  22023016.173    22023022.960
  23120392.410   -10834190.68649  -8182721.71946  23120391.996    23120398.350
  22007703.699   -17902778.80249 -13909583.68347  22007703.334    22007707.921
 03  3 26  1 55 30.0000000  0  8G 9G17G14G31G15G 3G23G18
  23587823.045    -7567741.71349  -5889518.69345  23587822.940    23587829.497
  23649217.762   -10899939.96349  -8049149.76545  23649217.298    23649225.931
  20315377.019   -24571982.35049 -19129780.00948  20315376.668    20315380.977
  22390879.308   -12141198.99849  -9443055.71546  22390878.937    22390885.419
  21077790.843   -22472707.11849 -16697990.29347  21077790.259    21077796.294
  22031444.812   -15664824.00149 -12194159.06147  22031444.618    22031451.400
  23131535.106   -10775635.71449  -8137094.46946  23131534.672    23131541.023
  22018676.398   -17845116.84649 -13864652.29047  22018676.038    22018680.609
 03  3 26  1 56  0.0000000  0  8G 9G17G14G31G15G 3G23G18
  23593575.406    -7537512.88549  -5865963.71945  23593575.328    23593581.721
  23667032.111   -10806325.03649  -7976203.10645  23667031.665    23667040.272
  20310695.644   -24596582.79149 -19148949.15248  20310695.318    20310699.608
  22390353.665   -12143961.27649  -9445208.13946  22390353.321    22390359.804
  21089161.601   -22412953.34649 -16651428.93147  21089161.018    21089167.103
  22039961.140   -15620070.55049 -12159286.27647  22039960.952    22039967.710
  23142683.632   -10717049.68649  -8091443.02146  23142683.194    23142689.578
  22029670.905   -17787340.50649 -13819631.77647  22029670.536    22029675.096
 03  3 26  1 56 30.0000000  0  8G 9G17G14G31G15G 3G23G18
  23599439.288    -7506698.62849  -5841952.57845  23599439.068    23599445.451
  23684893.332   -10712463.64049  -7903064.38545  23684892.950    23684901.634
  20306116.340   -24620647.23649 -19167700.63048  20306115.989    20306120.265
  22389937.508   -12146148.29449  -9446912.29646  22389937.159    22389943.610
  21100609.293   -22352795.68449 -16604552.84647  21100608.682    21100614.697
  22048565.223   -15574855.88649 -12124054.08747  22048565.066    22048571.825
  23153838.308   -10658431.07549  -8045766.18546  23153837.912    23153844.297
  22040687.289   -17729448.61449 -13774521.21047  22040686.960    22040691.571
 03  3 26  1 57  0.0000000  0  8G 9G17G14G31G15G 3G23G18
  23605414.059    -7475300.38149  -5817486.39445  23605413.952    23605420.394
  23702801.074   -10618357.92149  -7829735.29645  23702800.662    23702809.472
  20301638.813   -24644176.54749 -19186035.12748  20301638.458    20301642.724
  22389630.533   -12147761.31349  -9448169.18846  22389630.171    22389636.614
  21112133.538   -22292235.58349 -16557363.18547  21112132.914    21112138.924
  22057256.456   -15529183.01349 -12088464.86747  22057256.329    22057263.092
  23164999.057   -10599780.69749  -8000064.60546  23164998.695    23165005.098
  22051725.467   -17671442.54949 -13729321.69247  22051725.128    22051729.739
 03  3 26  1 57 30.0000000  0  8G 9G17G14G31G15G 3G23G18
  23611499.495    -7443320.50949  -5792567.00845  23611499.489    23611505.876
  23720754.871   -10524010.33449  -7756217.73545  23720754.404    23720763.096
  20297262.927   -24667172.06349 -19203953.67648  20297262.568    20297266.848
  22389432.419   -12148802.20949  -9448980.24546  22389432.059    22389438.505
  21123733.911   -22231274.82549 -16509861.31447  21123733.294    21123739.400
  22066034.339   -15483055.43649 -12052521.33347  22066034.162    22066040.911
  23176165.624   -10541100.04649  -7954339.42546  23176165.225    23176171.663
  22062785.003   -17613324.06249 -13684034.56247  22062784.672    22062789.331
 03  3 26  1 58  0.0000000  0  8G 9G17G14G31G15G 3G23G18
  23617695.789    -7410758.54849  -5767194.02245  23617695.859    23617702.184
  23738754.629   -10429421.15049  -7682511.90645  23738754.153    23738762.895
  20292988.734   -24689632.98449 -19221455.65748  20292988.357    20292992.635
  22389343.372   -12149270.24149  -9449344.92246  22389343.000    22389349.464
  21135410.708   -22169912.83149 -16462046.79847  21135410.090    21135416.232
  22074898.476   -15436474.16349 -12016224.26447  22074898.286    22074905.023
  23187338.162   -10482388.08749  -7908589.85146  23187337.740    23187344.174
  22073866.047   -17555092.69549 -13638659.46747  22073865.731    22073870.410
 03  3 26  1 58 30.0000000  0  8G 9G17G14G31G15G 3G23G18
  23624002.570    -7377616.81349  -5741369.24645  23624002.464    23624008.778
  23756799.813   -10334593.35049  -7608620.15645  23756799.350    23756808.127
  20288816.008   -24711560.75249 -19238542.19648  20288815.635    20288819.872
  22389362.884   -12149167.40349  -9449264.76346  22389362.547    22389369.079
  21147163.472   -22108151.70249 -16413921.26347  21147162.864    21147168.968
  22083848.191   -15389442.90849 -11979576.56247  22083848.020    22083854.797
  23198516.328   -10423646.52949  -7862817.20946  23198515.892    23198522.316
  22084968.270   -17496750.33449 -13593197.89347  22084967.935    22084972.616
 03  3 26  1 59  0.0000000  0  8G 9G17G14G31G15G 3G23G18
  23630419.688    -7343894.65049  -5715092.20445  23630419.561    23630425.846
  23774890.572   -10239526.12049  -7534541.83745  23774890.046    23774899.048
  20284744.864   -24732954.38349 -19255212.52848  20284744.524    20284748.762
  22389491.223   -12148492.96149  -9448739.20246  22389490.888    22389497.393
  21158992.362   -22045990.64549 -16365484.09447  21158991.735    21158997.882
  22092883.410   -15341962.61149 -11942578.97047  22092883.235    22092889.992
  23209700.395   -10364874.11349  -7817020.53246  23209699.920    23209706.338
  22096091.800   -17438295.96749 -13547649.03747  22096091.454    22096096.118
 03  3 26  1 59 30.0000000  0  8G 9G17G14G31G15G 3G23G18
  23636947.030    -7309592.06149  -5688362.93045  23636947.072    23636953.384
  23793026.612   -10144220.53049  -7460277.77645  23793026.160    23793035.177
  20280775.621   -24753812.96449 -19271465.93148  20280775.272    20280779.498
  22389728.409   -12147246.72749  -9447768.08446  22389728.064    22389734.498
  21170897.335   -21983429.53049 -16316735.19247  21170896.723    21170902.883
  22102003.910   -15294034.56449 -11905232.47647  22102003.691    22102010.444
  23220890.432   -10306070.20249  -7771199.30646  23220889.942    23220896.335
  22107236.680   -17379729.28849 -13502012.66247  22107236.329    22107240.966
 03  3 26  2  0  0.0000000  0  8G 9G17G14G31G15G 3G23G18
  23643584.699    -7274710.74349  -5661182.66745  23643584.747    23643591.011
  23811207.723   -10048678.51649  -7385829.50845  23811207.244    23811216.164
  20276907.891   -24774137.62249 -19287303.29948  20276907.549    20276911.758
  22390074.051   -12145430.01049  -9446352.43046  22390073.744    22390080.179
  21182878.159   -21920469.87549 -16267675.73647  21182877.559    21182883.687
  22111209.002   -15245661.70549 -11867539.38047  22111208.769    22111215.489
  23232086.282   -10247235.56049  -7725354.13646  23232085.831    23232092.172
  22118402.765   -17321051.33749 -13456289.58247  22118402.399    22118406.995
 03  3 26  2  0 30.0000000  0  8G 9G17G14G31G15G 3G23G18
  23650332.303    -7239251.53649  -5633552.09345  23650332.306    23650338.626
  23829433.786    -9952900.74449  -7311197.53745  23829433.216    23829442.089
  20273141.835   -24793928.37149 -19302724.63048  20273141.476    20273145.685
  22390528.297   -12143043.20749  -9444492.56646  22390527.990    22390534.356
  21194934.760   -21857112.21349 -16218306.15547  21194934.162    21194940.274
  22120498.268   -15196846.01049 -11829501.20547  22120498.098    22120504.855
  23243288.002   -10188370.04949  -7679484.91246  23243287.547    23243293.964
  22129589.837   -17262262.65349 -13410480.21747  22129589.494    22129594.046
 03  3 26  2  1  0.0000000  0  8G 9G17G14G31G15G 3G23G18
  23657189.951    -7203214.50049  -5605471.25945  23657189.939    23657196.192
  23847704.382    -9856888.03149  -7236382.47745  23847703.818    23847712.776
  20269477.407   -24813184.78149 -19317729.59748  20269477.053    20269481.265
  22391091.017   -12140086.24249  -9442188.41046  22391090.661    22391097.024
  21207067.098   -21793356.47849 -16168626.37947  21207066.493    21207072.634
  22129871.513   -15147589.39049 -11791119.45647  22129871.349    22129878.134
  23254495.714   -10129473.07449  -7633591.17346  23254495.278    23254501.713
  22140798.137   -17203362.82249 -13364584.23647  22140797.805    22140802.300
 03  3 26  2  1 30.0000000  0  8G 9G17G14G31G15G 3G23G18
  23664156.850    -7166603.86549  -5576943.46945  23664156.735    23664163.001
  23866018.752    -9760645.01349  -7161387.95645  23866018.299    23866027.178
  20265914.008   -24831910.55349 -19332321.07648  20265913.660    20265917.828
  22391761.362   -12136563.13149  -9439443.10046  22391761.017    22391767.374
  21219274.422   -21729206.54149 -16118639.43247  21219273.823    21219280.016
  22139327.641   -15097897.43149 -11752398.48147  22139327.452    22139334.187
  23265708.763   -10070548.06149  -7587675.59546  23265708.345    23265714.806
  22152026.845   -17144355.65249 -13318604.61947  22152026.491    22152031.004
 03  3 26  2  2  0.0000000  0  8G 9G17G14G31G15G 3G23G18
  23671233.322    -7129416.36549  -5547966.19945  23671233.296    23671239.569
  23884377.578    -9664169.22149  -7086212.06945  23884377.130    23884385.913
  20262452.339   -24850101.63749 -19346495.91348  20262451.976    20262456.158
  22392540.131   -12132470.45249  -9436253.97246  22392539.787    22392546.189
  21231557.431   -21664659.01349 -16068342.67347  21231556.829    21231563.023
  22148866.911   -15047768.35049 -11713336.89047  22148866.689    22148873.426
  23276927.919   -10011590.84749  -7541734.90846  23276927.499    23276934.034
  22163276.681   -17085237.31249 -13272538.37647  22163276.353    22163280.855
 03  3 26  2  2 30.0000000  0  8G 9G17G14G31G15G 3G23G18
  23678418.732    -7091656.11649  -5518542.61645  23678418.802    23678425.086
  23902780.022    -9567464.31049  -7010857.63245  23902779.470    23902788.430
  20259091.748   -24867761.29549 -19360256.65848  20259091.413    20259095.581
  22393426.616   -12127811.83849  -9432623.86046  22393426.284    22393432.700
  21243915.402   -21599717.52449 -16017738.93947  21243914.814    21243920.951
  22158488.331   -14997207.29549 -11673938.70647  22158488.148    22158494.925
  23288152.604    -9952604.47149  -7495771.49946  23288152.267    23288158.800
  22174547.082   -17026011.18249 -13226388.14947  22174546.741    22174551.208
 03  3 26  2  3  0.0000000  0  8G 9G17G14G31G15G 3G23G18
  23685713.506    -7053322.10749  -5488671.93845  23685713.521    23685719.826
  23921226.111    -9470529.38649  -6935323.96645  23921225.531    23921234.470
  20255832.607   -24884888.17749 -19373602.24148  20255832.249    20255836.411
  22394421.004   -12122586.27849  -9428551.96746  22394420.665    22394427.026
  21256348.599   -21534380.91049 -15966827.30047  21256347.977    21256354.133
  22168191.880   -14946214.85749 -11634204.36847  22168191.690    22168198.504
  23299383.302    -9893587.13449  -7449783.96346  23299382.913    23299389.414
  22185838.138   -16966676.11449 -13180153.02747  22185837.794    22185842.340
 03  3 26  2  3 30.0000000  0  8G 9G17G14G31G15G 3G23G18
  23693117.163    -7014415.85049  -5458355.34145  23693117.107    23693123.359
  23939715.382    -9373366.79349  -6859612.89745  23939714.880    23939723.916
  20252674.656   -24901482.93349 -19386533.18848  20252674.325    20252678.514
  22395523.019   -12116794.81749  -9424039.11946  22395522.712    22395529.025
  21268856.718   -21468650.21149 -15915608.58047  21268856.097    21268862.301
  22177977.059   -14894793.68649 -11594135.95047  22177976.856    22177983.686
  23310619.769    -9834539.27849  -7403772.64446  23310619.354    23310625.824
  22197149.845   -16907232.64449 -13133833.43047  22197149.483    22197154.022
 03  3 26  2  4  0.0000000  0  8G 9G17G14G31G15G 3G23G18
  23700629.590    -6974937.83449  -5427593.24845  23700629.545    23700635.869
  23958247.960    -9275977.17349  -6783724.89045  23958247.381    23958256.639
  20249618.095   -24917545.26049 -19399049.25148  20249617.751    20249621.911
  22396732.793   -12110437.66449  -9419085.47246  22396732.425    22396738.734
  21281439.797   -21402525.54949 -15864082.88347  21281439.176    21281445.400
  22187843.439   -14842945.49649 -11553734.79347  22187843.236    22187850.099
  23321862.107    -9775460.28149  -7357737.06546  23321861.691    23321868.162
  22208482.260   -16847680.54549 -13087429.19847  22208481.878    22208486.431
 03  3 26  2  4 30.0000000  0  8G 9G17G14G31G15G 3G23G18
  23708250.743    -6934888.43249  -5396385.90145  23708250.690    23708257.054
  23976823.797    -9178361.18549  -6707660.51045  23976823.121    23976832.502
  20246662.901   -24933075.04649 -19411150.34848  20246662.547    20246666.660
  22398050.027   -12103515.01249  -9413691.17846  22398049.693    22398056.076
  21294097.821   -21336007.14049 -15812250.36947  21294097.213    21294103.415
  22197790.694   -14790672.18649 -11513002.37347  22197790.519    22197797.389
  23333110.535    -9716349.63049  -7311676.82846  23333110.104    23333116.440
  22219835.283   -16788019.66149 -13040940.19547  22219834.948    22219839.489
 03  3 26  2  5  0.0000000  0  8G 9G17G14G31G15G 3G23G18
  23715980.092    -6894270.66449  -5364735.66845  23715980.018    23715986.319
  23995442.085    -9080522.06149  -6631422.27745  23995441.462    23995450.655
  20243808.554   -24948074.52349 -19422838.21348  20243808.183    20243812.312
  22399474.445   -12096029.60949  -9407858.37746  22399474.107    22399480.488
  21306830.307   -21269097.55149 -15760113.03547  21306829.719    21306835.877
  22207818.147   -14737977.95249 -11471941.95947  22207817.957    22207824.815
  23344364.565    -9657209.33749  -7265593.48546  23344364.143    23344370.391
  22231208.646   -16728252.25249 -12994368.18147  22231208.325    22231212.866
 03  3 26  2  5 30.0000000  0  8G 9G17G14G31G15G 3G23G18
  23723817.371    -6853085.47749  -5332643.29245  23723817.303    23723823.615
  24014102.394    -8982461.12649  -6555011.14645  24014101.773    24014110.944
  20241055.062   -24962543.99949 -19434113.09048  20241054.699    20241058.820
  22401005.788   -12087982.12249  -9401587.58046  22401005.457    22401011.830
  21319637.185   -21201797.50649 -15707671.45447  21319636.553    21319642.648
  22217925.242   -14684864.90549 -11430555.19147  22217925.020    22217931.940
  23355624.370    -9598039.08449  -7219486.78946  23355623.948    23355630.075
  22242602.248   -16668378.52049 -12947713.32047  22242601.897    22242606.446
 03  3 26  2  6  0.0000000  0  8G 9G17G14G31G15G 3G23G18
  23731762.281    -6811334.40749  -5300109.96945  23731762.223    23731768.495
  24032804.596    -8884179.71249  -6478428.23345  24032804.086    24032813.315
  20238402.304   -24976484.18249 -19444975.53648  20238401.946    20238406.054
  22402643.826   -12079373.86049  -9394879.82246  22402643.523    22402649.971
  21332517.961   -21134108.46349 -15654926.75747  21332517.336    21332523.477
  22228111.338   -14631336.06749 -11388844.43047  22228111.169    22228118.172
  23366889.770    -9538839.28749  -7173357.09646  23366889.279    23366895.350
  22254015.880   -16608399.38749 -12900976.32747  22254015.536    22254020.057
 03  3 26  2  6 30.0000000  0  8G 9G17G14G31G15G 3G23G18
  23739815.058    -6769016.61349  -5267135.04445  23739814.918    23739821.293
  24051548.973    -8785677.55049  -6401673.30445  24051548.539    24051557.602
  20235850.512   -24989893.49749 -19455424.31848  20235850.212    20235854.311
  22404388.879   -12070203.63549  -9387734.18646  22404388.544    22404394.971
  21345473.059   -21066028.73449 -15601877.63347  21345472.467    21345478.642
  22238376.672   -14577391.63649 -11346809.83447  22238376.502    22238383.524
  23378161.100    -9479607.87549  -7127202.74946  23378160.706    23378166.745
  22265449.901   -16548313.10449 -12854155.84247  22265449.570    22265454.101
 03  3 26  2  7  0.0000000  0  8G 9G17G14G31G15G 3G23G18
  23747975.524    -6726132.37549  -5233718.72745  23747975.399    23747981.927
  24070335.468    -8686954.91449  -6324746.61045  24070335.184    24070344.091
  20233399.857   -25002771.90849 -19465459.40948  20233399.529    20233403.591
  22406240.836   -12060471.69849  -9380150.85246  22406240.503    22406246.838
  21358502.555   -20997558.49449 -15548524.21447  21358501.937    21358508.113
  22248720.785   -14523033.50049 -11304452.87247  22248720.571    22248727.547
  23389438.627    -9420344.24949  -7081023.31646  23389438.169    23389444.211
  22276904.384   -16488119.19749 -12807251.49347  22276904.060    22276908.580
 03  3 26  2  7 30.0000000  0  8G 9G17G14G31G15G 3G23G18
  23756242.949    -6682686.74749  -5199864.98145  23756242.895    23756249.347
  24089162.695    -8588017.34549  -6247652.39945  24089162.321    24089171.041
  20231049.393   -25015123.40049 -19475083.91648  20231049.076    20231053.137
  22408198.759   -12050182.68549  -9372133.42846  22408198.397    22408204.762
  21371605.406   -20928702.21449 -15494869.98347  21371604.836    21371611.039
  22259142.390   -14468267.78149 -11261778.30747  22259142.176    22259149.099
  23400721.572    -9361051.88549  -7034821.48046  23400721.128    23400727.250
  22288378.612   -16427821.76449 -12760266.47147  22288378.277    22288382.795
 03  3 26  2  8  0.0000000  0  8G 9G17G14G31G15G 3G23G18
  23764617.628    -6638677.32749  -5165571.90945  23764617.568    23764624.022
  24108031.207    -8488862.04249  -6170388.53145  24108030.708    24108039.593
  20228799.827   -25026944.93049 -19484295.46448  20228799.494    20228803.510
  22410263.163   -12039333.89949  -9363679.81846  22410262.828    22410269.236
  21384782.291   -20859457.23749 -15440912.87747  21384781.733    21384787.888
  22269641.761   -14413093.17549 -11218785.13647  22269641.568    22269648.466
  23412010.621    -9301727.12449  -6988594.39746  23412010.193    23412016.433
  22299873.142   -16367417.41549 -12713198.15447  22299872.810    22299877.332
 03  3 26  2  8 30.0000000  0  8G 9G17G14G31G15G 3G23G18
  23773098.963    -6594107.93949  -5130842.48945  23773098.846    23773105.298
  24126940.516    -8389492.91749  -6092958.04245  24126940.087    24126948.910
  20226650.460   -25038239.59849 -19493096.48248  20226650.152    20226654.189
  22412433.527   -12027928.80749  -9354792.74746  22412433.175    22412439.499
  21398032.592   -20789826.90049 -15386655.49547  21398031.991    21398038.110
  22280218.054   -14357514.54949 -11175477.14847  22280217.836    22280224.766
  23423305.431    -9242372.52549  -6942344.07946  23423304.993    23423311.294
  22311387.528   -16306908.79549 -12666048.57747  22311387.218    22311391.741
 03  3 26  2  9  0.0000000  0  9G 9G17G14G31G25G15G 3G23G18
  23781686.018    -6548982.14649  -5095679.52345  23781685.942    23781692.469
  24145889.831    -8289913.98649  -6015364.07045  24145889.339    24145898.319
  20224600.868   -25049010.28549 -19501489.19148  20224600.550    20224604.585
  22414708.957   -12015970.98049  -9345474.95046  22414708.620    22414714.948
  24532294.936    -4159755.02149  -3224277.50645  24532294.896    24532305.233
  21411355.477   -20719814.56549 -15332100.43747  21411354.868    21411361.044
  22290870.251   -14301537.06949 -11131858.35347  22290869.992    22290876.958
  23434605.460    -9182990.53849  -6896072.39146  23434604.991    23434611.353
  22322921.190   -16246299.12649 -12618820.26846  22322920.844    22322925.359
 03  3 26  2  9 30.0000000  0  9G 9G17G14G31G25G15G 3G23G18
  23790379.540    -6503297.46849  -5060081.06445  23790379.513    23790385.921
  24164879.428    -8190122.87249  -5937604.75245  24164878.883    24164887.977
  20222651.549   -25059253.79749 -19509471.11948  20222651.240    20222655.239
  22417090.217   -12003457.67049  -9335724.32746  22417089.852    22417096.194
  24513641.023    -4257781.28149  -3300661.36445  24513640.890    24513651.161
  21424751.630   -20649417.42049 -15277245.54447  21424751.023    21424757.196
  22301598.384   -14245159.68949 -11087927.94847  22301598.205    22301605.230
  23445911.316    -9123577.36749  -6849776.44146  23445910.884    23445917.317
  22334474.694   -16185584.87249 -12571510.46246  22334474.346    22334478.903
 03  3 26  2 10  0.0000000  0  9G 9G17G14G31G25G15G 3G23G18
  23799179.696    -6457052.79849  -5024046.22345  23799179.551    23799185.931
  24183909.497    -8090118.58349  -5859679.32145  24183909.038    24183918.130
  20220802.902   -25068968.34849 -19517040.87048  20220802.610    20220806.609
  22419577.395   -11990387.41749  -9325539.72646  22419576.980    22419583.371
  24494977.014    -4355860.70849  -3377086.66445  24494976.811    24494986.971
  21438221.272   -20578633.80749 -15222089.50847  21438220.689    21438226.888
  22312402.769   -14188382.07149 -11043685.67547  22312402.625    22312409.659
  23457223.702    -9064130.36349  -6803454.11246  23457223.262    23457229.653
  22346048.578   -16124763.75149 -12524117.38546  22346048.213    22346052.809
 03  3 26  2 10 30.0000000  0  9G 9G17G14G31G25G15G 3G23G18
  23808085.726    -6410251.50849  -4987577.67445  23808085.605    23808091.921
  24202979.738    -7989904.50949  -5781590.43245  24202979.226    24202988.253
  20219054.407   -25078156.66849 -19524200.57348  20219054.080    20219058.060
  22422169.891   -11976763.37249  -9314923.60546  22422169.535    22422175.895
  24476302.817    -4453992.80849  -3453553.01445  24476302.699    24476312.891
  21451763.951   -20507466.57449 -15166634.54847  21451763.363    21451769.550
  22323282.521   -14131209.06749 -10999135.31647  22323282.333    22323289.313
  23468542.179    -9004651.70549  -6757107.11546  23468541.737    23468548.096
  22357642.371   -16063838.15649 -12476642.90646  22357641.986    22357646.594
 03  3 26  2 11  0.0000000  0  9G 9G17G14G31G25G15G 3G23G18
  23817097.012    -6362897.22949  -4950678.21545  23817096.857    23817103.144
  24222089.208    -7889484.20249  -5703340.82245  24222088.687    24222097.553
  20217405.525   -25086821.53149 -19530952.38348  20217405.212    20217409.175
  22424867.231   -11962588.80949  -9303878.50746  22424866.877    22424873.236
  24457618.660    -4552177.08349  -3530060.03845  24457618.663    24457628.728
  21465379.132   -20435918.65749 -15110882.95247  21465378.518    21465384.683
  22334236.601   -14073645.14449 -10954280.32947  22334236.380    22334243.438
  23479866.251    -8945143.34549  -6710736.97346  23479865.817    23479872.148
  22369255.569   -16002810.42549 -12429088.83746  22369255.197    22369259.785
 03  3 26  2 11 30.0000000  0  9G 9G17G14G31G25G15G 3G23G18
  23826213.650    -6314988.72549  -4913346.89145  23826213.505    23826219.795
  24241237.914    -7788856.68849  -5624929.74845  24241237.480    24241246.432
  20215856.641   -25094960.78149 -19537294.62548  20215856.314    20215860.289
  22427669.561   -11947862.30249  -9292403.32946  22427669.248    22427675.616
  24438925.661    -4650408.62949  -3606603.88445  24438925.534    24438935.687
  21479066.967   -20363988.57649 -15054833.56447  21479066.362    21479072.562
  22345265.004   -14015690.36849 -10909120.78447  22345264.805    22345271.900
  23491196.472    -8885602.72549  -6664341.69246  23491196.034    23491202.398
  22380888.620   -15941678.59149 -12381453.65446  22380888.223    22380892.822
 03  3 26  2 12  0.0000000  0  9G 9G17G14G31G25G15G 3G23G18
  23835435.391    -6266527.91949  -4875585.20345  23835435.282    23835441.574
  24260425.679    -7688023.38449  -5546358.32545  24260425.268    24260434.372
  20214407.554   -25102575.56549 -19543228.19248  20214407.237    20214411.215
  22430576.725   -11932585.29249  -9280499.19546  22430576.375    22430582.749
  24420224.150    -4748685.13549  -3683182.76345  24420223.972    24420234.013
  21492827.328   -20291677.47949 -14998487.28247  21492826.726    21492832.930
  22356367.315   -13957347.58449 -10863658.89146  22356367.089    22356374.180
  23502532.720    -8826030.05849  -6617921.44246  23502532.295    23502538.724
  22392541.334   -15880442.98149 -12333737.59846  22392540.966    22392545.546
 03  3 26  2 12 30.0000000  0  9G 9G17G14G31G25G15G 3G23G18
  23844761.858    -6217517.16949  -4837394.98845  23844761.676    23844767.982
  24279652.332    -7586986.96549  -5467628.62845  24279651.856    24279660.917
  20213057.943   -25109667.71749 -19548754.51248  20213057.621    20213061.591
  22433588.141   -11916760.13149  -9268167.92046  22433587.780    22433594.167
  24401514.380    -4847005.27249  -3759795.63445  24401514.074    24401524.073
  21506659.814   -20218987.25749 -14941845.57447  21506659.200    21506665.442
  22367542.696   -13898620.54349 -10817897.57346  22367542.483    22367549.587
  23513874.913    -8766426.42349  -6571477.05146  23513874.484    23513880.892
  22404213.562   -15819105.02449 -12285941.80046  22404213.166    22404217.756
 03  3 26  2 13  0.0000000  0  8G 9G14G31G25G15G 3G23G18
  23854192.793    -6167957.07149  -4798776.71145  23854192.596    23854198.878
  20211807.809   -25116237.08049 -19553873.45948  20211807.497    20211811.447
  22436703.873   -11900387.21449  -9255409.82846  22436703.484    22436709.847
  24382796.895    -4945365.43149  -3836439.71645  24382796.552    24382806.545
  21520564.281   -20145918.40049 -14884908.81447  21520563.704    21520569.987
  22378790.807   -13839511.14349 -10771838.30746  22378790.616    22378797.717
  23525223.168    -8706790.78249  -6525007.71946  23525222.717    23525229.159
  22415905.285   -15757664.41449 -12238066.00046  22415904.902    22415909.503
 03  3 26  2 13 30.0000000  0  8G 9G14G31G25G15G 3G23G18
  23863727.919    -6117849.61849  -4759731.93745  23863727.706    23863734.021
  20210656.966   -25122284.75549 -19558585.89648  20210656.624    20210660.586
  22439923.526   -11883468.12349  -9242226.14846  22439923.135    22439929.425
  24364072.128    -5043763.53249  -3913113.34045  24364071.875    24364081.742
  21534540.726   -20072472.08149 -14827677.94147  21534540.128    21534546.368
  22390111.287   -13780021.93549 -10725483.08946  22390111.069    22390118.145
  23536577.427    -8647123.52749  -6478513.76846  23536576.977    23536583.492
  22427616.464   -15696121.65049 -12190110.59846  22427616.084    22427620.669
 03  3 26  2 14  0.0000000  0  8G 9G14G31G25G15G 3G23G18
  23873366.981    -6067195.58949  -4720261.26045  23873366.832    23873373.199
  20209605.318   -25127811.15449 -19562892.14448  20209604.972    20209608.901
  22443246.913   -11866003.41349  -9228617.31446  22443246.563    22443252.863
  24345340.656    -5142196.34849  -3989814.01345  24345340.532    24345350.267
  21548589.016   -19998648.50749 -14770153.10547  21548588.373    21548594.531
  22401503.584   -13720155.03749 -10678833.57246  22401503.362    22401510.479
  23547937.813    -8587423.88449  -6431994.57446  23547937.372    23547943.935
  22439347.177   -15634476.19849 -12142075.18046  22439346.774    22439351.424
 03  3 26  2 14 30.0000000  0  8G 9G14G31G25G15G 3G23G18
  23883109.635    -6015997.70149  -4680366.80345  23883109.508    23883115.799
  20208652.554   -25132817.86049 -19566793.43648  20208652.201    20208656.115
  22446673.789   -11847995.58949  -9214585.27646  22446673.391    22446679.666
  24326602.869    -5240662.67349  -4066540.78545  24326602.774    24326612.602
  21562708.410   -19924450.22849 -14712336.27247  21562707.798    21562714.041
  22412966.899   -13659914.51749 -10631892.91646  22412966.736    22412973.873
  23559304.239    -8527693.12449  -6385451.13646  23559303.813    23559310.290
  22451097.111   -15572729.75149 -12093961.07146  22451096.709    22451101.419
 03  3 26  2 15  0.0000000  0  8G 9G14G31G25G15G 3G23G18
  23892955.557    -5964257.07349  -4640049.41045  23892955.361    23892961.669
  20207798.584   -25137305.27549 -19570290.08848  20207798.233    20207802.147
  22450203.761   -11829445.56549  -9200130.74646  22450203.378    22450209.677
  24307859.295    -5339159.22949  -4143291.11245  24307859.290    24307869.040
  21576899.012   -19849877.64349 -14654227.77947  21576898.464    21576904.737
  22424501.079   -13599302.21849 -10584662.56946  22424500.911    22424508.015
  23570676.747    -8467930.61549  -6338882.94846  23570676.250    23570682.630
  22462866.338   -15510882.23649 -12045768.20346  22462865.952    22462870.621
 03  3 26  2 15 30.0000000  0  8G 9G14G31G25G15G 3G23G18
  23902904.588    -5911973.97549  -4599309.31945  23902904.454    23902910.762
  20207043.517   -25141273.00949 -19573381.79848  20207043.155    20207047.075
  22453836.802   -11810353.51149  -9185253.84946  22453836.452    22453842.802
  24289110.770    -5437682.49049  -4220062.24745  24289110.699    24289120.293
  21591161.051   -19774930.47349 -14595827.41647  21591160.471    21591166.696
  22436105.680   -13538319.92449 -10537143.92046  22436105.477    22436112.516
  23582055.442    -8408135.07649  -6292289.02846  23582054.943    23582061.335
  22474654.998   -15448932.46549 -11997495.65646  22474654.650    22474659.217
 03  3 26  2 16  0.0000000  0  8G 9G14G31G25G15G 3G23G18
  23912956.037    -5859152.78449  -4558149.94045  23912955.975    23912962.224
  20206386.618   -25144724.79449 -19576071.46348  20206386.270    20206390.185
  22457572.349   -11790723.36249  -9169957.66246  22457571.936    22457578.317
  24270357.251    -5536232.44549  -4296854.17045  24270357.201    24270366.653
  21605493.603   -19699612.70349 -14537138.25947  21605492.998    21605499.219
  22447779.565   -13476972.90149 -10489341.05546  22447779.396    22447786.491
  23593440.012    -8348308.92849  -6245671.25546  23593439.522    23593445.898
  22486462.521   -15386883.50649 -11949145.81046  22486462.156    22486466.704
 03  3 26  2 16 30.0000000  0  8G 9G14G31G25G15G 3G23G18
  23923110.198    -5805791.84649  -4516569.97745  23923110.145    23923116.398
  20205828.444   -25147657.98249 -19578357.03148  20205828.096    20205831.995
  22461410.598   -11770553.19849  -9154240.67746  22461410.209    22461416.580
  24251599.701    -5634803.21649  -4373662.29845  24251599.597    24251608.930
  21619897.029   -19623922.04349 -14478158.53747  21619896.427    21619902.664
  22459522.988   -13415260.59349 -10441253.55746  22459522.856    22459529.961
  23604831.029    -8288448.83749  -6199027.04146  23604830.556    23604836.869
  22498289.574   -15324732.16549 -11900716.18746  22498289.219    22498293.651
 03  3 26  2 17  0.0000000  0  8G 9G14G31G25G15G 3G23G18
  23933366.558    -5751894.45049  -4474571.97045  23933366.465    23933372.708
  20205368.417   -25150074.99049 -19580240.39048  20205368.095    20205372.004
  22465351.055   -11749845.89049  -9138105.13846  22465350.721    22465357.049
  24232838.317    -5733393.87249  -4450485.91945  24232838.275    24232847.517
  21634371.088   -19547860.85949 -14418890.10347  21634370.437    21634376.614
  22471335.267   -13353186.94749 -10392884.50546  22471335.078    22471342.238
  23616228.201    -8228556.26149  -6152357.49546  23616227.766    23616234.083
  22510135.713   -15262480.41249 -11852208.32846  22510135.328    22510139.738
 03  3 26  2 17 30.0000000  0  9G 9G14G31G11G25G15G 3G23G18
  23943724.268    -5697464.28349  -4432158.82545  23943724.115    23943730.396
  20205006.134   -25151978.80649 -19581723.85648  20205005.816    20205009.698
  22469393.228   -11728605.12749  -9121553.92646  22469392.803    22469399.064
  24677414.840    -5597346.65749  -3892345.19045  24677414.492    24677420.802
  24214073.243    -5832004.02649  -4527324.71145  24214073.147    24214082.424
  21648914.975   -19471432.50449 -14359335.55547  21648914.299    21648920.441
  22483215.337   -13290756.71849 -10344237.58546  22483215.174    22483222.355
  23627631.248    -8168633.27749  -6105664.26946  23627630.781    23627637.114
  22522000.436   -15200130.76249 -11803624.18246  22522000.074    22522004.439
 03  3 26  2 18  0.0000000  0  9G 9G14G31G11G25G15G 3G23G18
  23954183.116    -5642502.72449  -4389331.62745  23954183.074    23954189.276
  20204741.347   -25153370.09149 -19582807.95148  20204741.019    20204744.906
  22473536.496   -11706831.96849  -9104587.83846  22473536.065    22473542.419
  24658321.491    -5697682.20249  -3970528.64745  24658321.100    24658327.547
  24195305.062    -5930630.36949  -4604176.10845  24195304.939    24195314.263
  21663528.470   -19394637.83449 -14299495.56847  21663527.832    21663533.980
  22495162.834   -13227972.36749 -10295314.74146  22495162.653    22495169.794
  23639040.166    -8108679.31149  -6058946.89646  23639039.663    23639045.944
  22533883.929   -15137682.70649 -11754963.35046  22533883.557    22533887.902
 03  3 26  2 18 30.0000000  0  9G 9G14G31G11G25G15G 3G23G18
  23964743.279    -5587009.14149  -4346089.85145  23964743.133    23964749.387
  20204574.403   -25154247.24849 -19583491.42848  20204574.094    20204577.957
  22477781.216   -11684525.44049  -9087206.15146  22477780.846    22477787.221
  24639239.180    -5797959.76949  -4048666.92845  24639238.730    24639245.120
  24176534.772    -6029268.10549  -4681036.36145  24176534.724    24176543.954
  21678212.013   -19317475.33449 -14239368.95647  21678211.387    21678217.542
  22507177.715   -13164834.14149 -10246116.14746  22507177.495    22507184.607
  23650455.357    -8048691.81649  -6012203.39846  23650454.891    23650461.197
  22545786.465   -15075134.32649 -11706224.34446  22545786.097    22545790.426
 03  3 26  2 19  0.0000000  0  9G 9G14G31G11G25G15G 3G23G18
  23975404.529    -5530983.82949  -4302433.74145  23975404.343    23975410.613
  20204505.355   -25154610.13149 -19583774.16948  20204505.022    20204508.879
  22482127.459   -11661685.79449  -9069409.04546  22482127.097    22482133.439
  24620168.532    -5898176.03049  -4126757.46145  24620168.122    24620174.382
  24157763.151    -6127912.99449  -4757902.16945  24157763.019    24157772.184
  21692965.488   -19239944.94449 -14178955.68147  21692964.873    21692971.098
  22519259.470   -13101343.64549 -10196643.05346  22519259.281    22519266.435
  23661877.231    -7988669.36149  -5965432.65346  23661876.783    23661883.084
  22557708.281   -15012484.56949 -11657406.33646  22557707.934    22557712.290
 03  3 26  2 19 30.0000000  0  9G 9G14G31G11G25G15G 3G23G18
  23986166.580    -5474428.87849  -4258364.91345  23986166.402    23986172.527
  20204533.878   -25154460.09049 -19583657.23548  20204533.563    20204537.403
  22486574.861   -11638314.93249  -9051197.99946  22486574.478    22486580.785
  24601109.752    -5998329.82549  -4204799.31845  24601109.387    24601115.561
  24138990.393    -6226563.16149  -4834772.07945  24138990.345    24138999.505
  21707788.687   -19162048.22349 -14118256.94747  21707788.121    21707794.421
  22531407.752   -13037504.14749 -10146898.02046  22531407.551    22531414.718
  23673305.756    -7928612.27849  -5918634.92346  23673305.282    23673311.574
  22569649.339   -14949733.79949 -11608509.62346  22569649.007    22569653.365
 03  3 26  2 20  0.0000000  0  9G 9G14G31G11G25G15G 3G23G18
  23997028.478    -5417348.83249  -4213886.94845  23997028.333    23997034.435
  20204659.360   -25153800.59349 -19583143.32148  20204659.036    20204662.853
  22491122.522   -11614417.06149  -9032576.30346  22491122.120    22491128.474
  24582062.804    -6098421.57749  -4282792.86145  24582062.492    24582068.672
  24120216.520    -6325218.92049  -4911646.33245  24120216.463    24120225.547
  21722681.027   -19083788.80049 -14057275.59447  21722680.431    21722686.712
  22543621.500   -12973320.96749 -10096885.18446  22543621.286    22543628.425
  23684740.280    -7868523.13649  -5871812.22346  23684739.875    23684746.120
  22581609.058   -14886885.14649 -11559536.64246  22581608.688    22581613.052
 03  3 26  2 20 30.0000000  0  9G 9G14G31G11G25G15G 3G23G18
  24007990.504    -5359742.92649  -4168999.20445  24007990.364    24007996.364
  20204882.062   -25152630.20449 -19582231.31448  20204881.731    20204885.534
  22495770.573   -11589991.08949  -9013543.09246  22495770.212    22495776.579
  24563028.572    -6198446.97849  -4360734.69045  24563028.270    24563034.298
  24101442.713    -6423874.71349  -4988520.61945  24101442.728    24101451.692
  21737642.584   -19005165.36349 -13996010.59147  21737641.994    21737648.219
  22555900.516   -12908794.21349 -10046604.63546  22555900.335    22555907.459
  23696181.516    -7808399.25549  -5824962.46646  23696181.075    23696187.255
  22593587.718   -14823936.61249 -11510485.84746  22593587.385    22593591.752
 03  3 26  2 21  0.0000000  0  9G 9G14G31G11G25G15G 3G23G18
  24019052.001    -5301614.23249  -4123704.10545  24019051.908    24019057.906
  20205201.583   -25150951.07249 -19580922.87248  20205201.250    20205205.035
  22500518.722   -11565039.86449  -8994100.58946  22500518.325    22500524.596
  24544007.210    -6298404.95149  -4438623.98045  24544006.918    24544012.803
  24082669.323    -6522528.92749  -5065393.66345  24082669.186    24082678.192
  21752672.903   -18926180.27249 -13934463.77047  21752672.338    21752678.576
  22568244.279   -12843927.66249  -9996059.28446  22568244.080    22568251.145
  23707629.147    -7748241.72949  -5778086.47046  23707628.680    23707634.773
  22605585.258   -14760889.18549 -11461357.97146  22605584.929    22605589.267
 03  3 26  2 21 30.0000000  0  9G 9G14G31G11G25G15G 3G23G18
  24030212.767    -5242963.81949  -4078002.45945  24030212.550    24030218.752
  20205617.844   -25148763.42049 -19579218.19248  20205617.522    20205621.319
  22505366.556   -11539564.30249  -8974249.52046  22505366.169    22505372.453
  24524999.079    -6398293.18149  -4516458.91945  24524998.787    24525004.716
  24063896.693    -6621178.70449  -5142263.26145  24063896.492    24063905.374
  21767772.012   -18846834.21549 -13872635.69747  21767771.445    21767777.676
  22580652.324   -12778723.55449  -9945250.92446  22580652.080    22580659.107
  23719083.249    -7688049.68849  -5731183.59546  23719082.870    23719088.912
  22617601.669   -14697742.49249 -11412152.76146  22617601.341    22617605.673
 03  3 26  2 22  0.0000000  0  9G 9G14G31G11G25G15G 3G23G18
  24041472.447    -5183793.39549  -4031895.63145  24041472.345    24041478.549
  20206130.650   -25146068.52249 -19577118.24748  20206130.317    20206134.087
  22510313.865   -11513565.96949  -8953991.08846  22510313.464    22510319.798
  24506004.618    -6498109.73449  -4594237.99345  24506004.306    24506010.119
  24045125.247    -6719821.26549  -5219127.26445  24045125.047    24045133.973
  21782939.617   -18767128.12649 -13810527.06647  21782939.005    21782945.248
  22593123.917   -12713184.54749  -9894181.58046  22593123.706    22593130.766
  23730544.057    -7627822.97349  -5684253.67745  23730543.696    23730549.670
  22629636.862   -14634496.86549 -11362870.45346  22629636.529    22629640.892
 03  3 26  2 22 30.0000000  0  9G 9G14G31G11G25G15G 3G23G18
  24052830.266    -5124106.94849  -3985386.69345  24052830.133    24052836.420
  20206739.439   -25142869.32649 -19574625.34648  20206739.096    20206742.859
  22515359.975   -11487048.54649  -8933328.16946  22515359.551    22515365.919
  24487023.696    -6597854.57349  -4671961.15145  24487023.417    24487029.338
  24026355.279    -6818455.81449  -5295985.04245  24026355.181    24026364.062
  21798175.085   -18687065.13149 -13748140.32547  21798174.488    21798180.751
  22605658.352   -12647315.43849  -9842855.03146  22605658.189    22605665.297
  23742011.084    -7567563.26549  -5637298.06446  23742010.678    23742016.734
  22641690.504   -14571154.32849 -11313512.63846  22641690.224    22641694.594
 03  3 26  2 23  0.0000000  0  9G 9G14G31G11G25G15G 3G23G18
  24064286.375    -5063904.35649  -3938475.55645  24064286.292    24064292.555
  20207444.325   -25139164.81249 -19571738.68848  20207444.028    20207447.795
  22520504.927   -11460011.59149  -8912260.43046  22520504.489    22520510.905
  24468057.106    -6697523.64549  -4749625.26545  24468056.787    24468062.877
  24007587.821    -6917077.90849  -5372833.13545  24007587.793    24007596.595
  21813478.668   -18606644.53049 -13685474.93647  21813478.073    21813484.314
  22618255.513   -12581116.99549  -9791271.85146  22618255.357    22618262.446
  23753484.751    -7507268.40149  -5590315.04745  23753484.365    23753490.511
  22653763.049   -14507712.92049 -11264077.77646  22653762.726    22653767.079
 03  3 26  2 23 30.0000000  0  9G 9G14G31G11G25G15G 3G23G18
  24075840.579    -5003186.68949  -3891163.07445  24075840.562    24075846.766
  20208245.372   -25134955.33949 -19568458.56348  20208245.023    20208248.785
  22525748.606   -11432455.98649  -8890788.54246  22525748.189    22525754.581
  24449105.503    -6797114.22749  -4827228.19545  24449105.208    24449111.410
  23988823.515    -7015683.78149  -5449668.59745  23988823.604    23988832.105
  21828850.225   -18525866.68049 -13622531.18347  21828849.612    21828855.839
  22630915.021   -12514591.14249  -9739433.55846  22630914.864    22630921.897
  23764965.315    -7446937.39949  -5543303.87745  23764964.947    23764971.211
  22665854.515   -14444172.00549 -11214565.37846  22665854.186    22665858.548
 03  3 26  2 24  0.0000000  0  9G 9G14G31G11G25G15G 3G23G18
  24087491.673    -4941959.68749  -3843453.69545  24087491.626    24087497.925
  20209141.513   -25130245.94649 -19564788.88048  20209141.173    20209144.947
  22531089.889   -11404387.38349  -8868916.91446  22531089.461    22531095.816
  24430168.506    -6896628.19149  -4904771.40345  24430168.096    24430174.414
  23970062.248    -7114274.60949  -5526492.35945  23970062.112    23970070.513
  21844288.651   -18444736.63849 -13559312.98047  21844288.084    21844294.342
  22643635.542   -12447744.54849  -9687345.32846  22643635.338    22643642.340
  23776452.140    -7386573.95149  -5496267.40245  23776451.775    23776457.997
  22677964.111   -14380535.76849 -11164978.70546  22677963.762    22677968.145
 03  3 26  2 24 30.0000000  0  9G 9G14G31G11G25G15G 3G23G18
  24099240.099    -4880221.51949  -3795346.00745  24099239.993    24099246.194
  20210133.314   -25125033.94049 -19560727.55848  20210132.966    20210136.750
  22536529.116   -11375803.73149  -8846643.95846  22536528.706    22536535.097
  24411247.228    -6996059.90549  -4982250.53345  24411246.845    24411253.121
  23951304.888    -7212844.46449  -5603299.79845  23951304.647    23951312.949
  21859794.701   -18363252.04549 -13495818.52047  21859794.119    21859800.344
  22656417.280   -12380576.14849  -9635006.34046  22656417.079    22656424.103
  23787945.776    -7326174.18449  -5449202.64145  23787945.388    23787951.688
  22690092.495   -14316800.73549 -11115315.05146  22690092.146    22690096.570
 03  3 26  2 25  0.0000000  0  9G 9G14G31G11G25G15G 3G23G18
  24111085.292    -4817974.74249  -3746841.98945  24111085.183    24111091.254
  20211220.401   -25119321.08549 -19556275.96048  20211220.034    20211223.817
  22542066.023   -11346707.24149  -8823971.37846  22542065.613    22542072.011
  24392341.878    -7095407.81849  -5059664.34745  24392341.563    24392347.628
  23932551.726    -7311391.10049  -5680089.16145  23932551.540    23932559.991
  21875367.941   -18281414.60749 -13432049.10447  21875367.318    21875373.516
  22669259.575   -12313089.54849  -9582419.39846  22669259.358    22669266.370
  23799446.289    -7265738.46449  -5402109.87645  23799445.877    23799452.221
  22702239.508   -14252967.62549 -11065574.95646  22702239.166    22702243.645
 03  3 26  2 25 30.0000000  0  9G 9G14G31G11G25G15G 3G23G18
  24123026.686    -4755222.19649  -3697943.87345  24123026.626    24123032.651
  20212402.460   -25113109.23149 -19551435.53548  20212402.105    20212405.869
  22547700.007   -11317100.55049  -8800901.24046  22547699.612    22547705.971
  24373452.549    -7194670.81849  -5137011.98945  24373452.350    24373458.396
  23913803.331    -7409912.36649  -5756858.78445  23913803.309    23913811.694
  21891007.869   -18199226.42849 -13368006.38447  21891007.241    21891013.447
  22682161.764   -12245288.32549  -9529587.29746  22682161.556    22682168.530
  23810953.579    -7205267.41749  -5354989.57145  23810953.150    23810959.487
  22714405.038   -14189037.32449 -11015759.14046  22714404.705    22714409.178
 03  3 26  2 26  0.0000000  0  9G 9G14G31G11G25G15G 3G23G18
  24135063.913    -4691966.33549  -3648653.54445  24135063.922    24135069.654
  20213679.117   -25106400.16549 -19546207.66848  20213678.761    20213682.524
  22553430.619   -11286985.95649  -8777435.32946  22553430.235    22553436.494
  24354579.716    -7293847.53249  -5214292.41145  24354579.655    24354585.571
  23895060.475    -7508406.59049  -5833607.32445  23895060.335    23895068.550
  21906714.078   -18116689.34949 -13303691.79447  21906713.478    21906719.714
  22695123.196   -12177175.62449  -9476512.47946  22695122.994    22695129.952
  23822467.476    -7144761.36949  -5307842.00846  23822467.069    23822473.365
  22726588.915   -14125010.48649 -10965868.09446  22726588.600    22726593.092
 03  3 26  2 26 30.0000000  0  9G 9G14G31G11G25G15G 3G23G18
  24147196.543    -4628208.25049  -3598971.87445  24147196.644    24147202.381
  20215050.355   -25099194.22349 -19540592.62848  20215050.012    20215053.752
  22559257.766   -11256364.29849  -8753574.31446  22559257.371    22559263.608
  24335723.970    -7392934.92049  -5291503.22745  24335723.859    24335729.707
  23876323.429    -7606869.89449  -5910331.78645  23876323.216    23876331.353
  21922486.640   -18033803.73349 -13239105.60747  21922486.069    21922492.331
  22708143.413   -12108753.45849  -9423196.53146  22708143.250    22708150.281
  23833988.296    -7084219.18149  -5260666.28746  23833987.903    23833994.163
  22738791.324   -14060886.50349 -10915901.35346  22738791.003    22738795.478
 03  3 26  2 27  0.0000000  0  9G 9G14G31G11G25G15G 3G23G18
  24159424.503    -4563949.55949  -3548900.13945  24159424.618    24159430.355
  20216516.075   -25091491.84049 -19534590.75048  20216515.707    20216519.433
  22565181.081   -11225237.04549  -8729319.31546  22565180.690    22565186.996
  24316885.583    -7491930.57849  -5368642.56845  24316885.521    24316891.298
  23857592.886    -7705299.19649  -5987029.74945  23857592.603    23857600.605
  21938325.489   -17950570.42449 -13174248.49847  21938324.874    21938331.126
  22721222.154   -12040024.26049  -9369641.33246  22721221.995    22721229.056
  23845516.181    -7023640.13449  -5213461.83946  23845515.783    23845522.045
  22751012.323   -13996664.84549 -10865858.50946  22751011.972    22751016.447
 03  3 26  2 27 30.0000000  0  9G 9G14G31G11G25G15G 3G23G18
  24171747.368    -4499192.18649  -3498439.83945  24171747.467    24171753.274
  20218075.982   -25083294.36549 -19528203.08348  20218075.618    20218079.314
  22571200.363   -11193605.75449  -8704671.55646  22571199.954    22571206.257
  24298065.131    -7590832.26649  -5445708.71145  24298065.139    24298070.826
  23838869.278    -7803691.31849  -6063698.75845  23838869.005    23838877.042
  21954230.240   -17866990.63649 -13109121.41247  21954229.603    21954235.847
  22734358.904   -11970990.75549  -9315849.01546  22734358.691    22734365.725
  23857050.997    -6963024.00749  -5166228.50245  23857050.567    23857056.884
  22763251.801   -13932345.77249 -10815739.73646  22763251.459    22763255.945
 03  3 26  2 28  0.0000000  0  9G 9G14G31G11G25G15G 3G23G18
  24184164.189    -4433941.37749  -3447595.02945  24184164.212    24184170.187
  20219729.226   -25074606.46249 -19521433.26648  20219728.873    20219732.561
  22577314.450   -11161475.55049  -8679635.03146  22577314.091    22577320.400
  24279262.371    -7689641.19649  -5522702.57445  24279262.317    24279268.066
  23820152.342    -7902046.99149  -6140339.37845  23820152.252    23820160.328
  21970200.023   -17783068.75349 -13043727.74647  21970199.427    21970205.665
  22747552.287   -11901658.98149  -9261824.27446  22747552.108    22747559.152
  23868592.344    -6902373.67149  -5118968.49745  23868591.898    23868598.276
  22775509.180   -13867932.52449 -10765547.59246  22775508.864    22775513.332
 03  3 26  2 28 30.0000000  0  9G 9G14G31G11G25G15G 3G23G18
  24196675.305    -4368194.75749  -3396363.89545  24196675.241    24196681.259
  20221476.438   -25065424.66249 -19514278.59348  20221476.083    20221479.766
  22583524.082   -11128843.86249  -8654207.74046  22583523.712    22583530.018
  24260478.527    -7788350.82249  -5599619.05845  24260478.451    24260484.250
  23801443.915    -8000359.28849  -6216946.19845  23801443.953    23801451.965
  21986235.535   -17698801.73849 -12978065.15247  21986234.926    21986241.144
  22760802.645   -11832027.36449  -9207565.89646  22760802.524    22760809.582
  23880141.169    -6841684.51049  -5071678.25645  23880140.713    23880147.054
  22787785.326   -13803420.84249 -10715278.74546  22787784.975    22787789.466
 03  3 26  2 29  0.0000000  0  9G 9G14G31G11G25G15G 3G23G18
  24209280.080    -4301956.21249  -3344749.43345  24209280.024    24209286.138
  20223317.045   -25055752.09249 -19506741.50248  20223316.689    20223320.361
  22589828.460   -11095714.42749  -8628392.59246  22589828.047    22589834.363
  24241713.540    -7886961.08349  -5676458.11345  24241713.472    24241719.186
  23782744.210    -8098627.11749  -6293518.37245  23782744.169    23782752.065
  22002336.066   -17614192.82149 -12912136.14447  22002335.470    22002341.702
  22774109.346   -11762100.71749  -9153077.62746  22774109.162    22774116.150
  23891697.050    -6780958.10449  -5024358.98545  23891696.633    23891702.939
  22800079.807   -13738812.66649 -10664934.71746  22800079.463    22800083.971
 03  3 26  2 29 30.0000000  0  9G 9G14G31G11G25G15G 3G23G18
  24221978.246    -4235226.88049  -3292752.52845  24221978.193    24221984.338
  20225250.980   -25045589.21849 -19498822.35448  20225250.620    20225254.275
  22596227.292   -11062088.28749  -8602190.39846  22596226.858    22596233.221
  24222968.096    -7985468.78749  -5753217.27145  24222967.999    24222973.566
  23764053.608    -8196846.73149  -6370052.97845  23764053.528    23764061.292
  22018501.648   -17529242.44649 -12845941.06747  22018501.019    22018507.230
  22787471.806   -11691880.81149  -9098360.84146  22787471.602    22787478.577
  23903260.196    -6720193.37649  -4977009.84145  23903259.788    23903266.061
  22812392.822   -13674107.30149 -10614514.95146  22812392.469    22812397.002
 03  3 26  2 30  0.0000000  0  9G 9G14G31G11G25G15G 3G23G18
  24234769.007    -4168010.92249  -3240376.43445  24234768.979    24234775.114
  20227277.583   -25034939.13649 -19490523.56748  20227277.227    20227280.874
  22602719.844   -11027969.24849  -8575604.12846  22602719.423    22602725.884
  24204242.234    -8083873.93849  -5829896.51745  24204242.122    24204247.617
  23745372.281    -8295017.62049  -6446549.61445  23745372.131    23745379.728
  22034731.596   -17443953.66249 -12779482.29147  22034730.943    22034737.166
  22800889.123   -11621372.28949  -9043419.15646  22800888.913    22800895.954
  23914830.245    -6659392.03049  -4929632.18245  23914829.808    23914836.168
  22824723.969   -13609306.67749 -10564020.96246  22824723.633    22824728.167
 03  3 26  2 30 30.0000000  0  9G 9G14G31G11G25G15G 3G23G18
  24247652.008    -4100310.31649  -3187622.67745  24247652.019    24247657.949
  20229396.695   -25023802.95849 -19481846.00248  20229396.360    20229399.987
  22609305.898   -10993359.04849  -8548635.11946  22609305.503    22609311.988
  24185536.290    -8182174.17749  -5906494.00345  24185536.151    24185541.584
  23726700.727    -8393136.64449  -6523005.83745  23726700.528    23726708.140
  22051025.670   -17358327.66149 -12712760.74247  22051024.993    22051031.273
  22814360.817   -11550577.87249  -8988254.70346  22814360.666    22814367.742
  23926407.347    -6598553.55949  -4882225.58645  23926406.963    23926413.329
  22837073.296   -13544410.50349 -10513452.50846  22837072.914    22837077.460
 03  3 26  2 31  0.0000000  0  9G 9G14G31G11G25G15G 3G23G18
  24260627.286    -4032125.01649  -3134491.24345  24260627.137    24260633.034
  20231608.476   -25012179.98149 -19472789.11848  20231608.119    20231611.758
  22615985.629   -10958257.59249  -8521283.33846  22615985.159    22615991.531
  24166851.028    -8280365.47949  -5983006.59845  24166850.819    24166856.288
  23708039.801    -8491199.31549  -6599418.13945  23708039.676    23708047.282
  22067383.971   -17272363.89949 -12645776.01347  22067383.319    22067389.613
  22827886.812   -11479498.61049  -8932868.29246  22827886.673    22827893.661
  23937992.027    -6537675.73749  -4834788.31445  23937991.613    23937997.986
  22849441.143   -13479417.07049 -10462808.27446  22849440.751    22849445.256
 03  3 26  2 31 30.0000000  0  9G 9G14G31G11G25G15G 3G23G18
  24273693.934    -3963459.21949  -3080985.37645  24273693.812    24273699.548
  20233912.219   -25000073.48149 -19463355.46748  20233911.874    20233915.517
  22622757.902   -10922668.93649  -8493551.90246  22622757.431    22622763.816
  24148186.482    -8378447.70449  -6059434.18845  24148186.229    24148191.777
  23689389.904    -8589204.76749  -6675785.86145  23689389.757    23689397.318
  22083805.901   -17186065.74049 -12578530.70447  22083805.320    22083811.642
  22841466.158   -11408139.45449  -8877263.78346  22841465.932    22841472.902
  23949583.877    -6476760.37949  -4787321.79845  23949583.338    23949589.820
  22861827.080   -13414328.73049 -10412090.09246  22861826.697    22861831.166
 03  3 26  2 32  0.0000000  0  9G 9G14G31G11G25G15G 3G23G18
  24286852.078    -3894312.80049  -3027105.00845  24286851.982    24286857.643
  20236308.240   -24987482.40149 -19453544.21848  20236307.876    20236311.490
  22629622.856   -10886592.64149  -8465440.49346  22629622.498    22629628.916
  24129543.596    -8476416.31449  -6135773.25545  24129543.395    24129548.960
  23670751.956    -8687147.56249  -6752104.74945  23670751.749    23670759.250
  22100291.714   -17099432.13649 -12511024.00747  22100291.147    22100297.531
  22855098.573   -11336500.78549  -8821441.46846  22855098.315    22855105.329
  23961183.308    -6415804.75949  -4739823.90945  23961182.798    23961189.356
  22874231.539   -13349142.94749 -10361295.97946  22874231.149    22874235.571
 03  3 26  2 32 30.0000000  0  9G 9G14G31G11G25G15G 3G23G18
  24300100.609    -3824691.28349  -2972854.47645  24300100.619    24300106.327
  20238795.444   -24974411.80849 -19443359.32548  20238795.084    20238798.711
  22636579.740   -10850034.12149  -8436953.32446  22636579.332    22636585.774
  24110922.063    -8574272.74649  -6212024.90645  24110921.806    24110927.432
  23652125.691    -8785028.91749  -6828375.77645  23652125.495    23652132.919
  22116840.520   -17012468.00049 -12443259.76047  22116839.910    22116846.263
  22868782.928   -11264588.76349  -8765406.15946  22868782.721    22868789.787
  23972789.840    -6354812.16149  -4692297.20245  23972789.343    23972795.856
  22886653.861   -13283863.34449 -10310428.75046  22886653.459    22886657.870
 03  3 26  2 33  0.0000000  0  9G 9G14G31G11G25G15G 3G23G18
  24313439.600    -3754593.85749  -2918233.10345  24313439.566    24313445.469
  20241374.305   -24960859.69849 -19432799.22648  20241373.958    20241377.581
  22643628.593   -10812992.33549  -8408089.59346  22643628.212    22643634.609
  24092322.891    -8672011.70249  -6288185.01745  24092322.652    24092328.212
  23633512.227    -8882842.90749  -6904594.31545  23633512.020    23633519.365
  22133452.463   -16925171.64349 -12375236.64847  22133451.870    22133458.145
  22882519.370   -11192403.26349  -8709157.75746  22882519.151    22882526.248
  23984404.015    -6293779.15449  -4644739.00845  23984403.533    23984409.987
  22899094.624   -13218486.82749 -10259486.01446  22899094.217    22899098.663
 03  3 26  2 33 30.0000000  0  9G 9G14G31G11G25G15G 3G23G18
  24326868.549    -3684023.89749  -2863243.48745  24326868.559    24326874.505
  20244044.254   -24946829.04749 -19421866.24248  20244043.900    20244047.518
  22650768.707   -10775470.64049  -8378851.90746  22650768.349    22650774.688
  24073746.293    -8769632.36449  -6364252.95545  24073746.072    24073751.475
  23614911.896    -8980587.56749  -6980758.83845  23614911.677    23614918.955
  22150127.115   -16837545.72149 -12306956.73246  22150126.537    22150132.802
  22896307.096   -11119948.54249  -8652699.56546  22896306.867    22896313.938
  23996025.607    -6232706.72149  -4597150.10245  23996025.197    23996031.609
  22911553.519   -13153014.71549 -10208468.77946  22911553.142    22911557.560
 03  3 26  2 34  0.0000000  0  9G 9G14G31G11G25G15G 3G23G18
  24340387.200    -3612983.58749  -2807887.38845  24340387.111    24340393.118
  20246805.092   -24932320.70049 -19410561.02748  20246804.739    20246808.341
  22657999.836   -10737470.89749  -8349241.71746  22657999.454    22658005.788
  24055192.650    -8867132.40149  -6440226.89245  24055192.296    24055197.648
  23596325.264    -9078260.30349  -7056867.32546  23596325.065    23596332.278
  22166864.277   -16749591.35049 -12238420.87246  22166863.690    22166869.974
  22910145.654   -11047226.97949  -8596033.45946  22910145.347    22910152.385
  24007654.888    -6171594.25049  -4549529.99445  24007654.456    24007660.876
  22924030.715   -13087446.75349 -10157376.85846  22924030.354    22924034.725
 03  3 26  2 34 30.0000000  0  9G 9G14G31G11G25G15G 3G23G18
  24353994.675    -3541476.11649  -2752167.26245  24353994.610    24354000.558
  20249656.344   -24917337.28949 -19398885.63448  20249655.985    20249659.578
  22665321.277   -10698996.17849  -8319261.41846  22665320.885    22665327.282
  24036662.061    -8964510.56649  -6516105.88545  24036661.805    24036667.103
  23577752.696    -9175859.53949  -7132918.54846  23577752.482    23577759.650
  22183663.447   -16661311.12149 -12169631.09846  22183662.860    22183669.169
  22924034.066   -10974242.81349  -8539162.71646  22924033.792    22924040.815
  24019291.749    -6110442.53649  -4501879.31445  24019291.310    24019297.651
  22936525.826   -13021784.39449 -10106211.39246  22936525.474    22936529.853
 03  3 26  2 35  0.0000000  0  8G14G31G11G25G15G 3G23G18
  20252598.091   -24901878.12949 -19386839.52648  20252597.728    20252601.342
  22672733.102   -10660046.70749  -8288911.19446  22672732.734    22672739.076
  24018155.387    -9061763.01849  -6591886.90545  24018155.127    24018160.472
  23559195.093    -9273380.25249  -7208908.58646  23559194.809    23559201.944
  22200524.735   -16572704.39849 -12100586.91846  22200524.177    22200530.523
  22937972.298   -10900996.94149  -8482088.04146  22937972.053    22937979.134
  24030936.373    -6049249.49049  -4454196.41445  24030935.999    24030942.233
  22949039.314   -12956025.64549 -10054970.79846  22949038.961    22949043.309
 03  3 26  2 35 30.0000000  0  8G14G31G11G25G15G 3G23G18
  20255629.617   -24885947.32449 -19374425.90048  20255629.250    20255632.851
  22680234.484   -10620627.02649  -8258194.57046  22680234.061    22680240.402
  23999672.788    -9158889.77649  -6667569.99945  23999672.473    23999677.823
  23540652.333    -9370822.27749  -7284837.30246  23540652.036    23540659.130
  22217447.389   -16483775.36649 -12031291.57946  22217446.871    22217453.223
  22951959.353   -10827494.56349  -8424813.49346  22951959.109    22951966.210
  24042588.545    -5988017.24349  -4406482.97145  24042588.162    24042594.314
  22961570.607   -12890173.12849 -10003657.14446  22961570.256    22961574.596
 03  3 26  2 36  0.0000000  0  8G14G31G11G25G15G 3G23G18
  20258751.198   -24869543.23549 -19361643.48648  20258750.819    20258754.439
  22687825.437   -10580736.16249  -8227110.78846  22687825.046    22687831.420
  23981214.908    -9255885.88049  -6743151.29245  23981214.641    23981219.845
  23522125.563    -9468179.59949  -7360700.03846  23522125.442    23522132.512
  22234431.664   -16394522.32349 -11961743.77246  22234431.154    22234437.524
  22965995.228   -10753735.64549  -8367339.05046  22965994.963    22966002.057
  24054248.730    -5926742.39949  -4358736.33945  24054248.380    24054254.561
  22974120.391   -12824223.63449  -9952267.92446  22974119.998    22974124.308
 03  3 26  2 36 30.0000000  0  8G14G31G11G25G15G 3G23G18
  20261962.256   -24852668.83949 -19348494.59548  20261961.906    20261965.513
  22695505.374   -10540377.82149  -8195662.74146  22695504.989    22695511.341
  23962781.944    -9352750.83349  -6818630.39845  23962781.712    23962786.939
  23503615.253    -9565451.19549  -7436495.95446  23503615.136    23503622.212
  22251476.938   -16304948.42849 -11891945.95246  22251476.454    22251482.860
  22980079.043   -10679724.71349  -8309668.22046  22980078.773    22980085.910
  24065916.835    -5865426.28749  -4310957.54845  24065916.473    24065922.698
  22986688.189   -12758179.09049  -9900804.64146  22986687.827    22986692.114
 03  3 26  2 37  0.0000000  0  8G14G31G11G25G15G 3G23G18
  20265262.073   -24835328.20749 -19334982.39948  20265261.711    20265265.303
  22703273.353   -10499556.91649  -8163854.24846  22703272.941    22703279.290
  23944373.947    -9449484.85849  -6894007.50045  23944373.705    23944378.953
  23485121.313    -9662637.09349  -7512225.08646  23485121.199    23485128.250
  22268582.676   -16215057.50849 -11821901.10146  22268582.171    22268588.497
  22994209.723   -10605467.10049  -8251805.17746  22994209.470    22994216.676
  24077592.380    -5804071.29749  -4263148.45745  24077591.940    24077598.192
  22999273.628   -12692041.86249  -9849269.12546  22999273.265    22999277.635
 03  3 26  2 37 30.0000000  0  8G14G31G11G25G15G 3G23G18
  20268651.320   -24817517.33649 -19321103.78448  20268650.955    20268654.585
  22711129.899   -10458270.19249  -8131682.77846  22711129.542    22711135.887
  23925992.364    -9546080.30649  -6969276.61445  23925992.141    23925997.433
  23466645.227    -9759729.15849  -7587881.09246  23466645.100    23466652.120
  22285749.569   -16124845.95049 -11751606.40046  22285748.977    22285755.205
  23008387.808   -10530960.63549  -8193748.23346  23008387.585    23008394.845
  24089276.364    -5742671.80849  -4215304.71045  24089275.870    24089282.173
  23011877.685   -12625806.83649  -9797657.41746  23011877.359    23011881.769
 03  3 26  2 38  0.0000000  0  8G14G31G11G25G15G 3G23G18
  20272129.328   -24799240.36849 -19306861.97248  20272128.967    20272132.557
  22719074.295   -10416522.29249  -8099151.94746  22719073.942    22719080.243
  23907637.019    -9642537.72649  -7044438.19245  23907636.738    23907642.101
  23448187.121    -9856726.69349  -7663463.41946  23448187.008    23448193.924
  22302976.462   -16034317.65349 -11681064.88846  22302975.911    22302982.186
  23022612.331   -10456210.70549  -8135501.57446  23022612.067    23022619.325
  24100968.403    -5681229.83049  -4167427.84345  24100967.947    24100974.156
  23024499.922   -12559476.41149  -9745971.36846  23024499.561    23024504.116
 03  3 26  2 38 30.0000000  0  8G14G31G11G25G15G 3G23G18
  20275695.637   -24780499.24049 -19292258.48048  20275695.258    20275698.858
  22727105.855   -10374315.77549  -8066263.75346  22727105.562    22727111.893
  23889308.411    -9738855.07749  -7119490.62545  23889308.136    23889313.405
  23429747.323    -9953627.34549  -7738970.26846  23429747.244    23429754.188
  22320263.245   -15943474.47149 -11610278.00846  22320262.713    22320269.098
  23036882.496   -10381220.57349  -8077067.73346  23036882.238    23036889.513
  24112668.502    -5619745.50649  -4119517.98045  24112667.998    24112674.131
  23037140.268   -12493051.18949  -9694211.45646  23037139.909    23037144.461
 03  3 26  2 39  0.0000000  0  8G14G31G11G25G15G 3G23G18
  20279349.660   -24761296.94249 -19277295.62748  20279349.309    20279352.934
  22735224.002   -10331654.38749  -8033021.10446  22735223.692    22735230.124
  23871006.460    -9835031.91049  -7194433.55245  23871006.237    23871011.458
  23411326.247   -10050430.05749  -7814400.77546  23411326.137    23411333.053
  22337609.568   -15852319.23449 -11539247.96646  22337609.025    22337615.396
  23051197.575   -10305994.42249  -8018449.98746  23051197.358    23051204.621
  24124376.386    -5558220.07049  -4071576.08645  24124375.892    24124382.005
  23049798.343   -12426532.55549  -9642378.75146  23049797.957    23049802.543
 03  3 26  2 39 30.0000000  0  8G14G31G11G25G15G 3G23G18
  20283091.602   -24741632.88749 -19261972.96548  20283091.258    20283094.860
  22743428.811   -10288538.42149  -7999424.24946  22743428.412    22743434.877
  23852732.088    -9931063.90749  -7269263.63445  23852731.877    23852737.108
  23392924.691   -10147130.18949  -7889751.36246  23392924.625    23392931.454
  22355015.371   -15760851.46149 -11467974.38946  22355014.785    22355021.137
  23065557.382   -10230533.45049  -7959649.25446  23065557.127    23065564.402
  24136092.481    -5496651.18349  -4023600.33545  24136091.962    24136098.008
  23062474.622   -12359918.57149  -9590471.73846  23062474.251    23062478.783
 03  3 26  2 40  0.0000000  0  8G14G31G11G25G15G 3G23G18
  20286921.041   -24721508.72549 -19246291.78248  20286920.707    20286924.316
  22751719.615   -10244970.21449  -7965474.99446  22751719.193    22751725.573
  23834485.753   -10026948.94049  -7343979.17745  23834485.529    23834490.716
  23374543.259   -10243724.83449  -7965019.74846  23374543.161    23374549.978
  22372480.211   -15669073.04949 -11396458.74646  22372479.625    22372485.980
  23079961.197   -10154840.56949  -7900667.81846  23079960.996    23079968.298
  24147816.896    -5435038.49049  -3975590.44745  24147816.384    24147822.550
  23075168.979   -12293209.37549  -9538490.54346  23075168.623    23075173.078
 03  3 26  2 40 30.0000000  0  8G14G31G11G25G15G 3G23G18
  20290837.531   -24700927.33349 -19230254.31048  20290837.186    20290840.813
  22760095.747   -10200953.21849  -7931176.02146  22760095.314    22760101.675
  23816267.518   -10122685.85149  -7418579.29845  23816267.282    23816272.580
  23356182.118   -10340212.55649  -8040204.80646  23356182.082    23356188.829
  22390003.670   -15576986.69649 -11324703.15246  22390003.083    22390009.473
  23094408.377   -10078919.80749  -7841508.80646  23094408.214    23094415.566
  24159549.496    -5373382.96749  -3927547.19345  24159549.003    24159555.183
  23087881.268   -12226406.02449  -9486435.97846  23087880.952    23087885.279
 03  3 26  2 41  0.0000000  0  8G14G31G11G25G15G 3G23G18
  20294841.271   -24679887.56949 -19213859.66548  20294840.924    20294844.530
  22768557.320   -10156486.98449  -7896526.99146  22768556.916    22768563.321
  23798078.375   -10218269.98149  -7493060.36845  23798078.134    23798083.529
  23337842.386   -10436587.65849  -8115302.12246  23337842.398    23337849.103
  22407585.917   -15484590.98149 -11252706.50246  22407585.362    22407591.781
  23108898.936   -10002771.60649  -7782172.57046  23108898.732    23108906.064
  24171290.854    -5311681.64749  -3879468.24545  24171290.304    24171296.637
  23100611.913   -12159506.41349  -9434306.41846  23100611.559    23100615.817
 03  3 26  2 41 30.0000000  0  8G14G31G11G25G15G 3G23G18
  20298931.127   -24658394.90849 -19197112.11548  20298930.783    20298934.407
  22777103.256   -10111577.90149  -7861532.90146  22777102.830    22777109.276
  23779918.085   -10313702.67149  -7567423.42245  23779917.836    23779923.270
  23319523.855   -10532851.60149  -8190312.83046  23319523.890    23319530.536
  22425225.989   -15391891.64649 -11180473.25846  22425225.459    22425231.881
  23123431.614    -9926402.43549  -7722664.14646  23123431.351    23123438.619
  24183040.272    -5249938.32349  -3831356.56445  24183039.710    24183046.063
  23113360.145   -12092514.05249  -9382104.57846  23113359.784    23113364.091
 03  3 26  2 42  0.0000000  0  8G14G31G11G25G15G 3G23G18
  20303107.650   -24636447.19749 -19180009.97348  20303107.291    20303110.904
  22785733.763   -10066224.40149  -7826192.51846  22785733.335    22785739.723
  23761787.626   -10408978.08849  -7641663.92145  23761787.437    23761792.772
  23301227.820   -10628997.64649  -8265231.66646  23301227.777    23301234.336
  22442924.289   -15298886.34249 -11108001.60146  22442923.757    22442930.184
  23138006.413    -9849811.93949  -7662983.27346  23138006.131    23138013.315
  24194798.455    -5188148.74149  -3783208.84745  24194797.930    24194804.301
  23126126.722   -12025424.93149  -9329827.33646  23126126.356    23126130.750
 03  3 26  2 42 30.0000000  0  8G14G31G11G25G15G 3G23G18
  20307369.890   -24614048.74049 -19162556.61348  20307369.541    20307373.159
  22794447.831   -10020431.55649  -7790509.78446  22794447.472    22794453.793
  23743687.187   -10504096.59349  -7715782.16445  23743687.007    23743692.181
  23282954.243   -10725025.67949  -8340058.54846  23282954.127    23282960.623
  22460680.075   -15205579.47149 -11035294.95746  22460679.485    22460685.883
  23152622.143    -9773005.61949  -7603134.20646  23152621.903    23152629.082
  24206564.942    -5126315.21049  -3735026.88145  24206564.435    24206570.761
  23138911.132   -11958241.85349  -9277476.87646  23138910.786    23138915.272
 03  3 26  2 43  0.0000000  0  8G14G31G11G25G15G 3G23G18
  20311717.575   -24591201.48749 -19144753.53548  20311717.211    20311720.834
  22803244.960    -9974201.80849  -7754486.60946  22803244.642    22803251.028
  23725616.897   -10599056.11549  -7789776.49245  23725616.728    23725621.933
  23264703.416   -10820932.75549  -8414791.18846  23264703.441    23264709.947
  22478492.873   -15111972.75649 -10962354.65946  22478492.303    22478498.630
  23167278.420    -9695986.29549  -7543119.17846  23167278.177    23167285.415
  24218339.933    -5064437.46349  -3686810.44545  24218339.422    24218345.638
  23151713.376   -11890965.47049  -9225053.70846  23151713.023    23151717.568
 03  3 26  2 43 30.0000000  0  8G14G31G11G25G15G 3G23G18
  20316150.788   -24567904.48549 -19126600.00748  20316150.432    20316154.080
  22812125.297    -9927535.31649  -7718123.12246  22812124.984    22812131.390
  23707577.705   -10693852.46349  -7863643.68946  23707577.556    23707582.791
  23246476.516   -10916714.09649  -8489425.85746  23246476.649    23246483.219
  22496362.824   -15018065.55649 -10889180.23046  22496362.243    22496368.611
  23181975.154    -9618754.72449  -7482938.75346  23181974.913    23181982.155
  24230123.682    -5002513.06649  -3638557.68345  24230123.245    24230129.541
  23164533.813   -11823593.41849  -9172556.00746  23164533.467    23164537.952
 03  3 26  2 44  0.0000000  0  8G14G31G11G25G15G 3G23G18
  20320669.289   -24544159.59549 -19108097.47848  20320668.924    20320672.566
  22821088.299    -9880434.67249  -7681421.34046  22821087.940    22821094.356
  23689570.065   -10788483.48649  -7937382.08846  23689569.862    23689574.997
  23228274.209   -11012367.14149  -8563960.54846  23228274.281    23228280.982
  22514289.547   -14923859.73749 -10815773.10746  22514289.002    22514295.415
  23196711.637    -9541314.27449  -7422595.56946  23196711.321    23196718.576
  24241916.345    -4940541.88849  -3590268.44945  24241915.881    24241922.166
  23177372.453   -11756125.86249  -9119983.89046  23177372.130    23177376.565
 03  3 26  2 44 30.0000000  0  8G14G31G11G25G15G 3G23G18
  20325272.183   -24519971.04949 -19089249.24348  20325271.847    20325275.465
  22830132.937    -9832904.70649  -7644385.03046  22830132.568    22830139.005
  23671593.742   -10882949.13849  -8010991.61046  23671593.606    23671598.719
  23210096.463   -11107891.46049  -8638394.95146  23210096.475    23210103.184
  22532272.384   -14829359.27349 -10742136.39546  22532271.843    22532278.272
  23211486.796    -9463670.22549  -7362093.72546  23211486.542    23211493.801
  24253717.541    -4878526.00349  -3541944.38845  24253717.031    24253723.489
  23190228.731   -11688565.04149  -9067339.08146  23190228.440    23190232.945
 03  3 26  2 45  0.0000000  0  8G14G31G11G25G15G 3G23G18
  20329959.601   -24495338.51449 -19070055.04648  20329959.232    20329962.864
  22839259.232    -9784945.80949  -7607014.48746  22839258.850    22839265.249
  23653649.733   -10977245.43449  -8084469.17546  23653649.579    23653654.680
  23191944.173   -11203282.34249  -8712725.36246  23191944.131    23191950.761
  22550311.311   -14734563.85749 -10668269.84246  22550310.795    22550317.255
  23226300.530    -9385823.73849  -7301434.16046  23226300.247    23226307.514
  24265527.709    -4816463.11749  -3493583.69745  24265527.245    24265533.646
  23203103.171   -11620909.29149  -9014620.31146  23203102.846    23203107.372
 03  3 26  2 45 30.0000000  0  8G14G31G11G25G15G 3G23G18
  20334731.009   -24470264.52849 -19050516.85848  20334730.669    20334734.258
  22848466.544    -9736561.32149  -7569312.31846  22848466.106    22848472.498
  23635738.182   -11071370.95949  -8157813.68746  23635738.030    23635743.124
  23173817.641   -11298537.79749  -8786950.26146  23173817.570    23173824.041
  22568405.887   -14639476.12249 -10594175.51946  22568405.388    22568411.856
  23241152.045    -9307778.44949  -7240619.67546  23241151.745    23241159.027
  24277346.852    -4754353.60249  -3445186.67945  24277346.323    24277352.797
  23215995.597   -11553159.24649  -8961828.07246  23215995.251    23215999.713
 03  3 26  2 46  0.0000000  0  8G14G31G11G25G15G 3G23G18
  20339586.637   -24444748.01549 -19030633.84948  20339586.277    20339589.867
  22857754.839    -9687750.92749  -7531278.27846  22857754.446    22857760.829
  23617860.126   -11165320.66149  -8231021.18246  23617860.026    23617865.011
  23155717.886   -11393652.34249  -8861065.35746  23155717.751    23155724.183
  22586556.468   -14544094.70249 -10519852.34746  22586555.953    22586562.346
  23256041.360    -9229534.60449  -7179650.47646  23256041.058    23256048.351
  24289175.338    -4692194.57249  -3396751.07145  24289174.874    24289181.289
  23228906.486   -11485312.35549  -8908960.35746  23228906.103    23228910.447
 03  3 26  2 46 30.0000000  0  8G14G31G11G25G15G 3G23G18
  20344524.897   -24418797.23349 -19010412.44948  20344524.559    20344528.121
  22867122.559    -9638523.48949  -7492919.26846  22867122.150    22867128.529
  23600014.725   -11259098.36949  -8304094.65546  23600014.620    23600019.696
  23137644.021   -11488629.87249  -8935073.69146  23137643.962    23137650.402
  22604761.399   -14448427.73349 -10445306.66946  22604760.839    22604767.159
  23270966.702    -9151101.46449  -7118533.76446  23270966.425    23270973.727
  24301012.184    -4629991.95249  -3348281.51745  24301011.759    24301018.121
  23241834.577   -11417374.79749  -8856021.99746  23241834.233    23241838.486
 03  3 26  2 47  0.0000000  0  8G14G31G11G25G15G 3G23G18
  20349546.720   -24392407.39949 -18989848.93748  20349546.362    20349549.923
  22876570.392    -9588875.13149  -7454232.27946  22876569.970    22876576.327
  23582203.644   -11352695.66849  -8377027.55946  23582203.561    23582208.642
  23119598.033   -11583461.04449  -9008967.98846  23119598.105    23119604.541
  22623021.351   -14352470.59149 -10370534.87146  22623020.789    22623027.160
  23285928.637    -9072475.90249  -7057267.12346  23285928.377    23285935.754
  24312858.492    -4567739.26649  -3299772.93045  24312858.028    24312864.404
  23254781.162   -11349340.62049  -8803008.34946  23254780.790    23254784.970
 03  3 26  2 47 30.0000000  0  8G14G31G11G25G15G 3G23G18
  20354651.266   -24365582.76249 -18968946.61648  20354650.918    20354654.473
  22886097.330    -9538810.85149  -7415221.19446  22886096.944    22886103.282
  23564426.932   -11446112.73849  -8449820.01846  23564426.877    23564431.890
  23101580.200   -11678145.35449  -9082747.84246  23101580.219    23101586.598
  22641335.771   -14256227.51649 -10295540.27246  22641335.230    22641341.613
  23300926.250    -8993663.21649  -6995854.65946  23300925.934    23300933.345
  24324714.002    -4505438.48749  -3251226.88245  24324713.491    24324719.759
  23267745.581   -11281212.17649  -8749921.25946  23267745.245    23267749.390
 03  3 26  2 48  0.0000000  0  8G14G31G11G25G15G 3G23G18
  20359838.350   -24338324.44949 -18947706.36048  20359837.997    20359841.520
  22895702.991    -9488332.76549  -7375887.65246  22895702.605    22895708.926
  23546684.942   -11539346.96049  -8522469.98546  23546684.840    23546689.989
  23083590.966   -11772679.45949  -9156410.65146  23083590.902    23083597.208
  22659704.511   -14159699.67849 -10220323.79346  22659703.943    22659710.307
  23315958.996    -8914665.85749  -6934298.30746  23315958.657    23315966.098
  24336578.761    -4443088.94049  -3202642.81445  24336578.278    24336584.460
  23280728.028   -11212988.81749  -8696760.18546  23280727.708    23280731.875
 03  3 26  2 48 30.0000000  0  8G14G31G11G25G15G 3G23G18
  20365107.304   -24310635.70549 -18926130.70948  20365106.960    20365110.518
  22905386.767    -9437444.70549  -7336234.66546  22905386.331    22905392.643
  23528977.986   -11632397.51649  -8594976.83846  23528977.868    23528982.990
  23065630.424   -11867062.29749  -9229955.60146  23065630.337    23065636.619
  22678126.743   -14062890.23749 -10144887.87346  22678126.140    22678132.597
  23331025.974    -8835488.13649  -6872601.39946  23331025.677    23331033.186
  24348452.641    -4380691.71749  -3154021.58445  24348452.117    24348458.284
  23293728.245   -11144672.03849  -8643526.33746  23293727.898    23293732.175
 03  3 26  2 49  0.0000000  0  8G14G31G11G25G15G 3G23G18
  20370458.227   -24282516.21849 -18904219.41148  20370457.885    20370461.432
  22915148.395    -9386147.04749  -7296262.50546  22915147.953    22915154.340
  23511306.846   -11725259.92749  -8667337.06246  23511306.691    23511311.766
  23047699.532   -11961289.07649  -9303378.93246  23047699.490    23047705.669
  22696602.567   -13965798.83749 -10069232.24246  22696601.989    22696608.489
  23346127.067    -8756131.15149  -6810764.80146  23346126.833    23346134.316
  24360335.864    -4318244.33549  -3105361.30445  24360335.450    24360341.623
  23306746.691   -11076259.73649  -8590218.05046  23306746.315    23306750.582
 03  3 26  2 49 30.0000000  0  8G14G31G11G25G15G 3G23G18
  20375890.455   -24253969.79649 -18881975.43248  20375890.085    20375893.630
  22924987.065    -9334444.28949  -7255974.66146  22924986.632    22924993.166
  23493671.656   -11817933.73049  -8739550.34346  23493671.420    23493676.398
  23029798.673   -12055358.48249  -9376679.63846  23029798.533    23029804.724
  22715131.556   -13868429.13649  -9993359.75346  22715130.922    22715137.310
  23361261.471    -8676599.71949  -6748792.27646  23361261.135    23361268.689
  24372228.369    -4255748.29949  -3056663.06745  24372227.968    24372234.319
  23319782.948   -11007753.93449  -8536836.89046  23319782.551    23319786.803
 03  3 26  2 50  0.0000000  0  8G14G31G11G25G15G 3G23G18
  20381403.848   -24224996.55149 -18859398.86648  20381403.488    20381407.022
  22934902.673    -9282337.55949  -7215372.05046  22934902.237    22934908.771
  23476072.998   -11910415.24749  -8811613.76246  23476072.743    23476077.610
  23011928.458   -12149266.60449  -9449854.66546  23011928.284    23011934.436
  22733713.383   -13770781.40449  -9917270.62746  22733712.698    22733719.018
  23376428.759    -8596895.18349  -6686684.87046  23376428.416    23376435.930
  24384130.615    -4193201.88349  -3007925.58345  24384130.178    24384136.568
  23332837.335   -10939152.94849  -8483381.58546  23332836.923    23332841.068
 03  3 26  2 50 30.0000000  0  8G14G31G11G25G15G 3G23G18
  20386998.324   -24195597.34649 -18836490.38148  20386997.965    20387001.497
  22944894.919    -9229828.36549  -7174455.82246  22944894.480    22944900.919
  23458511.487   -12002701.08049  -8883524.70946  23458511.221    23458516.125
  22994089.686   -12243009.54449  -9522900.97946  22994089.523    22994095.670
  22752347.869   -13672855.99149  -9840965.11746  22752347.238    22752353.681
  23391628.607    -8517019.44949  -6624444.05646  23391628.273    23391635.805
  24396042.771    -4130603.50949  -2959147.63645  24396042.291    24396048.650
  23345909.927   -10870455.76449  -8429851.30946  23345909.504    23345913.608
 03  3 26  2 51  0.0000000  0  8G14G31G11G25G15G 3G23G18
  20392672.821   -24165777.38549 -18813254.03448  20392672.477    20392676.025
  22954962.488    -9176922.86149  -7133230.77546  22954962.090    22954968.539
  23440987.070   -12094792.40349  -8955284.08746  23440986.832    23440991.661
  22976282.160   -12336588.24249  -9595819.32646  22976281.981    22976288.099
  22771034.196   -13574658.37049  -9764447.49146  22771033.572    22771040.044
  23406859.660    -8436979.38749  -6562075.18846  23406859.378    23406866.969
  24407964.055    -4067956.61749  -2910331.85945  24407963.568    24407969.973
  23359000.097   -10801666.13949  -8376248.98846  23358999.691    23359003.767
 03  3 26  2 51 30.0000000  0  8G14G31G11G25G15G 3G23G18
  20398427.572   -24135536.05849 -18789689.34348  20398427.233    20398430.760
  22965105.497    -9123621.15049  -7091697.00746  22965105.069    22965111.553
  23423500.455   -12186684.59149  -9026888.30046  23423500.239    23423505.055
  22958506.824   -12429997.46549  -9668605.61946  22958506.717    22958512.809
  22789772.479   -13476187.99749  -9687717.33146  22789771.859    22789778.307
  23422122.069    -8356775.23449  -6499578.46946  23422121.742    23422129.312
  24419895.109    -4005258.42149  -2861476.11945  24419894.669    24419901.026
  23372108.424   -10732781.42149  -8322572.57146  23372108.056    23372112.174
 03  3 26  2 52  0.0000000  0  8G14G31G11G25G15G 3G23G18
  20404261.912   -24104876.20249 -18765798.52948  20404261.564    20404265.107
  22975323.027    -9069926.79949  -7049857.26346  22975322.695    22975329.246
  23406051.881   -12278376.49849  -9098336.45746  23406051.708    23406056.560
  22940764.202   -12523234.92249  -9741258.05346  22940764.150    22940770.156
  22808562.117   -13377447.69149  -9610776.84246  22808561.492    22808567.918
  23437414.970    -8276410.78349  -6436956.84546  23437414.665    23437422.134
  24431835.870    -3942509.39649  -2812580.76245  24431835.393    24431841.714
  23385234.642   -10663802.92549  -8268823.07946  23385234.239    23385238.386
 03  3 26  2 52 30.0000000  0  8G14G31G11G25G15G 3G23G18
  20410175.922   -24073797.80349 -18741581.58148  20410175.570    20410179.124
  22985615.294    -9015840.58549  -7007712.18846  22985614.930    22985621.513
  23388642.337   -12369863.68049  -9169625.11746  23388642.160    23388646.971
  22923055.182   -12616296.31649  -9813773.31646  22923055.139    22923060.944
  22827403.181   -13278437.26049  -9533625.85446  22827402.558    22827408.942
  23452738.044    -8195887.35649  -6374211.33446  23452737.767    23452745.253
  24443786.616    -3879707.61649  -2763644.30245  24443786.089    24443792.505
  23398379.090   -10594728.43949  -8214998.80246  23398378.650    23398382.951
 03  3 26  2 53  0.0000000  0  8G14G31G11G25G15G 3G23G18
  20416169.144   -24042303.31449 -18717040.40048  20416168.771    20416172.303
  22995981.600    -8961365.84349  -6965264.36346  22995981.233    22995987.762
  23371272.082   -12461144.66249  -9240753.09246  23371271.865    23371276.723
  22905380.051   -12709179.81349  -9886149.94746  22905379.926    22905385.619
  22846295.251   -13179159.07249  -9456266.23446  22846294.599    22846300.997
  23468090.753    -8115208.49849  -6311344.69946  23468090.499    23468097.975
  24455747.382    -3816853.25149  -2714666.86345  24455746.889    24455753.239
  23411541.616   -10525558.73449  -8161100.32646  23411541.207    23411545.512
 03  3 26  2 53 30.0000000  0  8G14G31G11G25G15G 3G23G18
  20422240.862   -24010395.83549 -18692177.41548  20422240.517    20422244.086
  23006420.991    -8906506.42549  -6922516.77946  23006420.636    23006427.197
  23353941.277   -12552218.12349  -9311719.36546  23353941.083    23353945.985
  22887739.073   -12801883.35249  -9958386.35146  22887738.918    22887744.599
  22865237.674   -13079616.01249  -9378700.21846  22865237.006    22865243.400
  23483472.061    -8034378.54449  -6248360.33746  23483471.861    23483479.423
  24467718.038    -3753947.21749  -2665649.16945  24467717.512    24467723.811
  23424722.089   -10456294.97849  -8107128.57846  23424721.703    23424725.989
 03  3 26  2 54  0.0000000  0  8G14G31G11G25G15G 3G23G18
  20428390.978   -23978076.70549 -18666993.65848  20428390.630    20428394.191
  23016933.183    -8851264.52849  -6879471.15346  23016932.799    23016939.422
  23336650.626   -12643081.45349  -9382521.91846  23336650.413    23336655.176
  22870132.925   -12894403.88449 -10030480.16846  22870132.737    22870138.445
  22884230.256   -12979809.48149  -9300928.90946  22884229.627    22884235.934
  23498881.764    -7953400.07349  -6185260.23846  23498881.593    23498889.105
  24479698.686    -3690988.56749  -2616590.47945  24479698.178    24479704.430
  23437920.552   -10386936.56549  -8053083.05746  23437920.186    23437924.393
 03  3 26  2 54 30.0000000  0  8G14G31G11G25G15G 3G23G18
  20434618.934   -23945348.60049 -18641491.21848  20434618.568    20434622.125
  23027517.420    -8795643.78049  -6836130.32546  23027517.102    23027523.699
  23319400.107   -12733733.19849  -9453159.59646  23319399.896    23319404.669
  22852561.941   -12986739.53149 -10102429.91846  22852561.751    22852567.490
  22903272.401   -12879742.28749  -9222954.48046  22903271.776    22903277.999
  23514319.012    -7872276.99949  -6122047.46646  23514318.796    23514326.322
  24491689.067    -3627977.93449  -2567491.28145  24491688.567    24491694.902
  23451136.776   -10317484.66849  -7998964.68345  23451136.386    23451140.646
 03  3 26  2 55  0.0000000  0  8G14G31G11G25G15G 3G23G18
  20440924.819   -23912210.71149 -18615669.47148  20440924.472    20440928.043
  23038173.769    -8739644.01549  -6792494.16546  23038173.485    23038180.043
  23302190.851   -12824168.27349  -9523628.43446  23302190.629    23302195.468
  22835027.130   -13078884.84149 -10174231.35546  22835026.960    22835032.683
  22922364.364   -12779413.34249  -9144776.09646  22922363.748    22922369.938
  23529783.710    -7791009.22349  -6058721.93946  23529783.520    23529791.091
  24503689.968    -3564912.31749  -2518349.24645  24503689.539    24503695.829
  23464371.396   -10247936.27249  -7944771.14045  23464370.954    23464375.251
 03  3 26  2 55 30.0000000  0  8G14G31G11G25G15G 3G23G18
  20447307.694   -23878668.50249 -18589532.66548  20447307.324    20447310.896
  23048901.164    -8683271.65549  -6748567.66946  23048900.828    23048907.356
  23285022.485   -12914388.07549  -9593929.53346  23285022.284    23285027.203
  22817528.458   -13170840.55449 -10245885.05446  22817528.264    22817533.968
  22941505.038   -12678828.27149  -9066398.11746  22941504.417    22941510.692
  23545274.725    -7709603.59249  -5995288.98646  23545274.476    23545282.109
  24515700.856    -3501794.97249  -2469166.91645  24515700.454    24515706.666
  23477623.616   -10178295.24449  -7890505.39745  23477623.210    23477627.475
 03  3 26  2 56  0.0000000  0  8G14G31G11G25G15G 3G23G18
  20453767.835   -23844720.17149 -18563079.40348  20453767.462    20453771.049
  23059699.697    -8626525.50849  -6704349.91446  23059699.342    23059705.821
  23267896.291   -13004386.31549  -9664057.98546  23267896.111    23267901.095
  22800067.054   -13262600.16649 -10317385.95646  22800066.912    22800072.620
  22960694.771   -12577985.09049  -8987819.01746  22960694.193    22960700.526
  23560792.198    -7628059.21849  -5931747.92546  23560791.923    23560799.495
  24527722.297    -3438621.78049  -2419941.03345  24527721.822    24527728.069
  23490894.184   -10108557.64449  -7836164.41745  23490893.803    23490898.104
 03  3 26  2 56 30.0000000  0  8G14G31G11G25G15G 3G23G18
  20460304.553   -23810369.24249 -18536312.43748  20460304.196    20460307.811
  23070568.350    -8569410.00349  -6659844.33246  23070568.008    23070574.552
  23250812.304   -13094162.26749  -9734013.21946  23250812.138    23250817.166
  22782643.150   -13354162.76249 -10388733.33346  22782643.095    22782648.746
  22979933.016   -12476887.30449  -8909041.53846  22979932.424    22979938.794
  23576335.180    -7546380.64849  -5868102.30946  23576334.873    23576342.371
  24539754.033    -3375394.05449  -2370672.66645  24539753.613    24539759.826
  23504182.833   -10038725.08049  -7781749.41646  23504182.503    23504186.874
 03  3 26  2 57  0.0000000  0  8G14G31G11G25G15G 3G23G18
  20466917.752   -23775616.77449 -18509232.57048  20466917.358    20466920.932
  23081506.989    -8511926.98249  -6615052.38146  23081506.655    23081513.169
  23233771.121   -13183712.99349  -9803792.93446  23233770.996    23233776.098
  22765257.541   -13445524.81949 -10459924.44746  22765257.410    22765263.022
  22999219.611   -12375535.83449  -8830066.37346  22999219.002    22999225.378
  23591903.269    -7464569.77449  -5804353.58546  23591902.975    23591910.410
  24551796.357    -3312110.66449  -2321360.93045  24551796.065    24551802.241
  23517489.757    -9968796.87749  -7727259.91346  23517489.391    23517493.743
 03  3 26  2 57 30.0000000  0  8G14G31G11G25G15G 3G23G18
  20473606.244   -23740468.34349 -18481844.16848  20473605.858    20473609.489
  23092514.420    -8454082.97549  -6569979.14546  23092514.035    23092520.517
  23216772.855   -13273039.64149  -9873398.05046  23216772.723    23216777.741
  22747909.867   -13536687.21449 -10530959.99346  22747909.730    22747915.343
  23018553.480   -12273936.10549  -8750897.77446  23018552.838    23018559.232
  23607495.184    -7382633.57149  -5740507.20546  23607494.902    23607502.355
  24563848.908    -3248774.64049  -2272008.20445  24563848.561    24563854.667
  23530814.145    -9898776.77049  -7672698.80046  23530813.796    23530818.110
 03  3 26  2 58  0.0000000  0  8G14G31G11G25G15G 3G23G18
  20480370.625   -23704921.21549 -18454145.09848  20480370.245    20480373.867
  23103590.769    -8395876.10549  -6524623.16446  23103590.387    23103596.909
  23199818.543   -13362135.42649  -9942823.26646  23199818.360    23199823.258
  22730601.553   -13627642.21849 -10601833.92946  22730601.442    22730607.023
  23037935.124   -12172085.30049  -8671533.52146  23037934.450    23037940.856
  23623111.186    -7300570.48849  -5676561.95746  23623110.961    23623118.372
  24575912.288    -3185381.24349  -2222610.74645  24575912.080    24575918.059
  23544156.933    -9828659.87049  -7618062.25645  23544156.600    23544160.919
 03  3 26  2 58 30.0000000  0  8G14G31G11G25G15G 3G23G18
  20487210.148   -23668979.23149 -18426138.34248  20487209.750    20487213.353
  23114735.361    -8337311.02249  -6478988.05046  23114734.982    23114741.482
  23182908.200   -13451000.05649 -10012068.34646  23182907.987    23182912.813
  22713332.898   -13718389.05049 -10672545.66346  22713332.807    22713338.372
  23057363.790   -12069987.38649  -8591976.73146  23057363.050    23057369.415
  23638750.443    -7218385.50549  -5612521.73646  23638750.244    23638757.677
  24587986.197    -3121932.27049  -2173169.97945  24587985.863    24587991.769
  23557517.733    -9758448.37149  -7563351.99845  23557517.350    23557521.720
 03  3 26  2 59  0.0000000  0  8G14G31G11G25G15G 3G23G18
  20494124.392   -23632644.39449 -18397825.46648  20494124.033    20494127.649
  23125947.668    -8278390.67949  -6433076.11246  23125947.220    23125953.673
  23166042.355   -13539631.20049 -10081131.50146  23166042.173    23166046.812
  22696104.446   -13808925.31649 -10743093.31446  22696104.294    22696109.791
  23076838.908   -11967644.41949  -8512228.97346  23076838.187    23076844.629
  23654412.443    -7136081.45949  -5548388.72746  23654412.211    23654419.630
  24600070.622    -3058427.27749  -2123685.56445  24600070.265    24600076.324
  23570896.564    -9688141.98049  -7508567.80345  23570896.248    23570900.560
 03  3 26  2 59 30.0000000  0  8G14G31G11G25G15G 3G23G18
  20501113.130   -23595918.20149 -18369207.64248  20501112.775    20501116.407
  23137227.040    -8219117.12249  -6386888.94146  23137226.611    23137233.108
  23149221.447   -13628025.69549 -10150010.23646  23149221.278    23149225.865
  22678916.722   -13899247.49749 -10813474.13946  22678916.503    22678922.001
  23096360.349   -11865057.88849  -8432291.43846  23096359.703    23096366.212
  23670096.594    -7053660.75049  -5484164.82846  23670096.363    23670103.776
  24612166.182    -2994865.41249  -2074156.81245  24612165.922    24612171.861
  23584293.610    -9617740.40249  -7453709.43645  23584293.194    23584297.572
 03  3 26  3  0  0.0000000  0  8G14G31G11G25G15G 3G23G18
  20508175.555   -23558804.83949 -18340288.12348  20508175.196    20508178.800
  23148572.560    -8159495.76049  -6340430.75646  23148572.147    23148578.683
  23132445.553   -13716183.76649 -10218704.76546  23132445.371    23132449.856
  22661769.571   -13989355.75449 -10883688.28246  22661769.414    22661774.941
  23115927.443   -11762231.89249  -8352167.31246  23115926.817    23115933.362
  23685801.858    -6971128.88349  -5419854.30046  23685801.681    23685809.152
  24624272.060    -2931248.82849  -2024585.43145  24624271.772    24624277.807
  23597708.234    -9547245.95449  -7398778.69645  23597707.866    23597712.269
 03  3 26  3  0 30.0000000  0  8G14G31G11G25G15G 3G23G18
  20515312.167   -23521301.69049 -18311064.88048  20515311.815    20515315.418
  23159984.676    -8099524.45349  -6293699.88446  23159984.317    23159990.842
  23115715.828   -13804098.53249 -10287209.67846  23115715.663    23115720.198
  22644664.542   -14079242.46349 -10953729.78746  22644664.445    22644669.989
  23135540.736   -11659163.54049  -8271854.32446  23135540.138    23135546.643
  23701528.693    -6888484.01949  -5355455.71745  23701528.553    23701535.979
  24636389.295    -2867572.28049  -1974967.35245  24636388.983    24636394.969
  23611141.430    -9476653.91249  -7343771.90145  23611141.028    23611145.493
 03  3 26  3  1  0.0000000  0  8G14G31G11G25G15G 3G23G18
  20522522.054   -23483413.48849 -18281541.59148  20522521.694    20522525.273
  23171462.383    -8039209.00149  -6246700.84346  23171462.031    23171468.512
  23099032.264   -13891770.65049 -10355525.53946  23099032.113    23099036.669
  22627601.731   -14168907.85049 -11023598.83246  22627601.608    22627607.112
  23155199.286   -11555857.58249  -8191356.20846  23155198.689    23155205.186
  23717275.961    -6805731.81149  -5290973.50345  23717275.841    23717283.202
  24648517.538    -2803838.34249  -1925304.54845  24648517.286    24648523.030
  23624592.511    -9405967.06149  -7288691.24645  23624592.115    23624596.760
 03  3 26  3  1 30.0000000  0  8G14G31G11G25G15G 3G23G18
  20529804.937   -23445141.59049 -18251719.32648  20529804.572    20529808.164
  23183005.138    -7978551.66249  -6199435.40246  23183004.730    23183011.218
  23082395.463   -13979197.08349 -10423649.95046  23082395.331    23082399.907
  22610581.741   -14258348.18449 -11093292.51946  22610581.610    22610587.064
  23174902.800   -11452315.34249  -8110673.96646  23174902.199    23174908.636
  23733043.041    -6722874.85149  -5226409.66345  23733042.956    23733050.371
  24660656.803    -2740046.20349  -1875596.40145  24660656.712    24660662.248
  23638061.912    -9335185.00349  -7233536.41045  23638061.570    23638066.152
 03  3 26  3  2  0.0000000  0  8G14G31G11G25G15G 3G23G18
  20537160.337   -23406488.71149 -18221600.18448  20537160.000    20537163.571
  23194612.248    -7917555.69049  -6151906.08146  23194611.874    23194618.383
  23065805.870   -14066375.63649 -10491581.21646  23065805.725    23065810.323
  22593604.925   -14347561.42149 -11162809.24546  22593604.863    22593610.251
  23194650.625   -11348539.34449  -8029809.56146  23194650.058    23194656.523
  23748829.555    -6639916.49449  -5161766.81745  23748829.427    23748836.863
  24672807.068    -2676196.02649  -1825842.98745  24672806.802    24672812.625
  23651549.441    -9264308.00149  -7178307.57545  23651549.083    23651553.621
 03  3 26  3  2 30.0000000  0  8G14G31G11G25G15G 3G23G18
  20544588.066   -23367455.80549 -18191184.91548  20544587.678    20544591.262
  23206283.521    -7856223.43249  -6104114.73346  23206283.094    23206289.543
  23049263.957   -14153303.64549 -10559317.26246  23049263.807    23049268.448
  22576671.960   -14436544.39349 -11232146.54246  22576671.895    22576677.254
  23214442.747   -11244530.87749  -7948764.01546  23214442.156    23214448.662
  23764634.925    -6556859.27449  -5097046.92645  23764634.715    23764642.101
  24684968.447    -2612286.82549  -1776043.59445  24684967.973    24684974.240
  23665055.011    -9193335.63249  -7123004.42845  23665054.673    23665059.257
 03  3 26  3  3  0.0000000  0  8G14G31G11G25G15G 3G23G18
  20552087.698   -23328044.74749 -18160474.99348  20552087.346    20552090.892
  23218018.200    -7794557.40749  -6056063.29746  23218017.791    23218024.181
  23032770.179   -14239978.46549 -10626856.03646  23032770.045    23032774.630
  22559783.434   -14525293.92149 -11301301.94446  22559783.357    22559788.648
  23234278.957   -11140291.56449  -7867538.60346  23234278.313    23234284.721
  23780458.574    -6473705.71149  -5032251.96545  23780458.391    23780465.734
  24697141.312    -2548317.91949  -1726197.68945  24697140.915    24697147.137
  23678578.705    -9122267.68749  -7067626.80545  23678578.372    23678583.000
 03  3 26  3  3 30.0000000  0  8G14G31G11G25G15G 3G23G18
  20559658.681   -23288259.02049 -18129473.10948  20559658.315    20559661.851
  23229815.521    -7732561.94849  -6007755.16146  23229815.153    23229821.615
  23016324.798   -14326399.24149 -10694196.86246  23016324.650    23016329.204
  22542939.602   -14613808.76349 -11370274.46646  22542939.518    22542944.750
  23254158.441   -11035824.94249  -7786136.04446  23254157.722    23254164.097
  23796299.681    -6390460.32349  -4967385.44845  23796299.435    23796306.829
  24709325.402    -2484290.64849  -1676306.30445  24709324.930    24709331.138
  23692120.483    -9051105.45949  -7012175.70545  23692120.176    23692124.743
 03  3 26  3  4  0.0000000  0  8G14G31G11G25G15G 3G23G18
  20567300.911   -23248098.81649 -18098179.43948  20567300.534    20567304.095
  23241675.402    -7670238.03249  -5959191.08046  23241675.003    23241681.480
  22999928.580   -14412561.80749 -10761336.48446  22999928.451    22999932.882
  22526141.179   -14702084.51849 -11439060.68846  22526141.117    22526146.349
  23274080.927   -10931131.02449  -7704556.38946  23274080.240    23274086.658
  23812158.014    -6307124.02649  -4902448.09945  23812157.776    23812165.197
  24721521.002    -2420202.66549  -1626367.61645  24721520.568    24721526.660
  23705680.611    -8979847.01949  -6956649.65745  23705680.279    23705684.713
 03  3 26  3  4 30.0000000  0  8G14G31G11G25G15G 3G23G18
  20575013.740   -23207567.35649 -18066596.46848  20575013.385    20575016.907
  23253596.935    -7607589.73749  -5910374.24046  23253596.530    23253603.057
  22983581.727   -14498464.92049 -10828273.95246  22983581.578    22983585.928
  22509388.491   -14790119.71249 -11507659.46946  22509388.485    22509393.727
  23294046.094   -10826212.97249  -7622802.07146  23294045.458    23294051.909
  23828032.839    -6223701.21749  -4837443.33845  23828032.626    23828040.058
  24733727.967    -2356054.85649  -1576382.31745  24733727.537    24733733.562
  23719258.723    -8908493.52249  -6901049.52545  23719258.409    23719262.817
 03  3 26  3  5  0.0000000  0  8G14G31G11G25G15G 3G23G18
  20582796.978   -23166666.15249 -18034725.38248  20582796.626    20582800.129
  23265579.724    -7544619.61849  -5861306.63246  23265579.344    23265585.891
  22967284.742   -14584106.03449 -10895007.26046  22967284.580    22967288.878
  22492682.235   -14877911.49849 -11576068.57546  22492682.200    22492687.417
  23314053.802   -10721072.44849  -7540874.40546  23314053.167    23314059.485
  23843923.579    -6140194.49249  -4772373.17045  23843923.345    23843930.863
  24745946.315    -2291846.59649  -1526349.89945  24745945.889    24745952.000
  23732854.932    -8837044.77949  -6845375.19245  23732854.647    23732859.081
 03  3 26  3  5 30.0000000  0  8G14G31G11G25G15G 3G23G18
  20590650.240   -23125396.93149 -18002567.53348  20590649.870    20590653.395
  23277623.415    -7481330.32949  -5811990.32046  23277622.947    23277629.515
  22951038.285   -14669482.32149 -10961534.21846  22951038.087    22951042.297
  22476022.932   -14965456.43549 -11644285.33246  22476022.883    22476028.055
  23334103.499   -10615711.10749  -7458774.67046  23334102.807    23334109.132
  23859829.746    -6056606.42649  -4707239.62645  23859829.514    23859837.199
  24758176.341    -2227577.29549  -1476269.91145  24758175.931    24758182.110
  23746469.385    -8765500.65249  -6789626.50645  23746469.011    23746473.472
 03  3 26  3  6  0.0000000  0  8G14G31G11G25G15G 3G23G18
  20598573.217   -23083761.39849 -17970124.24548  20598572.845    20598576.341
  23289727.225    -7417724.31149  -5762427.18846  23289726.788    23289733.379
  22934842.572   -14754591.26949 -11027852.85446  22934842.399    22934846.623
  22459411.107   -15052751.56849 -11712307.44846  22459411.133    22459416.289
  23354194.689   -10510130.49449  -7376504.07446  23354194.058    23354200.469
  23875750.940    -5972939.50449  -4642044.64145  23875750.792    23875758.402
  24770418.180    -2163246.20949  -1426141.78945  24770417.736    24770423.956
  23760102.045    -8693860.56549  -6733803.05945  23760101.634    23760106.113
 03  3 26  3  6 30.0000000  0  8G14G31G11G25G15G 3G23G18
  20606565.361   -23041762.25949 -17937397.62448  20606564.992    20606568.468
  23301890.452    -7353805.25349  -5712620.14246  23301890.137    23301896.784
  22918697.999   -14839431.16049 -11093961.83246  22918697.816    22918702.096
  22442847.257   -15139795.31049 -11780133.66146  22442847.220    22442852.340
  23374327.212   -10404333.30949  -7294064.72646  23374326.610    23374333.075
  23891686.589    -5889197.38649  -4576791.06445  23891686.420    23891694.025
  24782671.473    -2098853.79749  -1375965.86545  24782671.044    24782677.513
  23773752.788    -8622125.10149  -6677905.28845  23773752.394    23773756.808
 03  3 26  3  7  0.0000000  0  8G14G31G11G25G15G 3G23G18
  20614626.510   -22999400.63949 -17904388.55848  20614626.141    20614629.612
  23314113.164    -7289575.08249  -5662570.66746  23314112.805    23314119.330
  22902605.319   -14923998.60349 -11159858.51646  22902605.116    22902609.521
  22426331.982   -15226583.47549 -11847760.72647  22426331.884    22426337.029
  23394500.822   -10298320.65249  -7211457.47046  23394500.155    23394506.624
  23907636.191    -5805382.12349  -4511480.48645  23907636.037    23907643.597
  24794936.829    -2034398.82249  -1325741.20745  24794936.442    24794942.795
  23787421.942    -8550293.42549  -6621932.53845  23787421.541    23787425.920
 03  3 26  3  7 30.0000000  0  7G14G31G11G25G15G 3G18
  20622756.002   -22956679.84849 -17871099.61548  20622755.623    20622759.112
  23326394.219    -7225038.14649  -5612282.16446  23326393.784    23326400.271
  22886564.607   -15008292.74849 -11225542.21946  22886564.401    22886568.894
  22409865.434   -15313115.11649 -11915187.90647  22409865.363    22409870.542
  23414714.823   -10192095.74149  -7128684.81245  23414714.111    23414720.528
  23923598.891    -5721497.97949  -4446116.23945  23923598.697    23923606.370
  23801109.046    -8478367.05749  -6565886.02345  23801108.685    23801113.139
 03  3 26  3  8  0.0000000  0  7G14G31G11G25G15G 3G18
  20630953.647   -22913600.78149 -17837531.49948  20630953.278    20630956.733
  23338733.245    -7160196.14549  -5561755.93546  23338732.792    23338739.333
  22870576.553   -15092310.19449 -11291010.31446  22870576.369    22870580.892
  22393448.443   -15399386.52449 -11982412.30947  22393448.418    22393453.615
  23434968.934   -10085659.45149  -7045747.45945  23434968.249    23434974.694
  23939574.426    -5637546.63449  -4380699.61945  23939574.168    23939581.858
  23814814.502    -8406344.43249  -6509764.49845  23814814.197    23814818.608
 03  3 26  3  8 30.0000000  0  7G14G31G11G25G15G 3G18
  20639218.986   -22870166.01749 -17803686.21648  20639218.606    20639222.083
  23351129.542    -7095052.58249  -5510994.71146  23351129.160    23351135.691
  22854641.568   -15176048.97249 -11356261.25346  22854641.361    22854645.863
  22377081.503   -15485395.34549 -12049432.09747  22377081.439    22377086.576
  23455262.778    -9979014.56949  -6962647.55545  23455262.040    23455268.482
  23955562.045    -5553531.72749  -4315233.48145  23955561.720    23955569.441
  23828538.000    -8334226.47949  -6453568.68445  23828537.596    23828542.143
 03  3 26  3  9  0.0000000  0  7G14G31G11G25G15G 3G18
  20647552.072   -22826375.40749 -17769563.65448  20647551.717    20647555.179
  23363583.229    -7029608.11349  -5459999.03846  23363582.828    23363589.350
  22838760.509   -15259504.54049 -11421291.51046  22838760.325    22838764.747
  22360765.402   -15571136.99149 -12116243.69447  22360765.285    22360770.403
  23475596.395    -9872160.70249  -6879384.80945  23475595.663    23475602.074
  23971561.497    -5469453.88249  -4249718.30445  23971561.283    23971568.866
  23842280.086    -8262010.69949  -6397296.63945  23842279.764    23842284.289
 03  3 26  3  9 30.0000000  0  7G14G31G11G25G15G 3G18
  20655952.041   -22782233.22149 -17735167.13548  20655951.662    20655955.146
  23376093.283    -6963867.88249  -5408772.89446  23376092.867    23376099.329
  22822933.330   -15342676.66249 -11486100.89146  22822933.133    22822937.499
  22344500.093   -15656610.84049 -12182846.62447  22344500.055    22344505.175
  23495968.899    -9765101.96849  -6795962.42045  23495968.270    23495974.577
  23987571.993    -5385318.20649  -4184158.04445  23987571.780    23987579.324
  23856040.463    -8189699.40849  -6340950.18245  23856040.136    23856044.710
 03  3 26  3 10  0.0000000  0  7G14G31G11G25G15G 3G18
  20664418.391   -22737742.04249 -17700498.67648  20664418.021    20664421.513
  23388658.620    -6897835.80849  -5357319.33646  23388658.279    23388664.838
  22807160.373   -15425564.02249 -11550688.37246  22807160.152    22807164.492
  22328286.286   -15741814.96649 -12249239.37847  22328286.209    22328291.323
  23516379.893    -9657841.34849  -6712382.72845  23516379.259    23516385.603
  24003592.785    -5301128.43949  -4118555.64145  24003592.568    24003600.136
  23869819.007    -8117293.44449  -6284529.93445  23869818.628    23869823.018
 03  3 26  3 10 30.0000000  0  7G14G31G11G25G15G 3G18
  20672951.074   -22692902.45849 -17665558.72448  20672950.714    20672954.202
  23401279.324    -6831513.07049  -5305639.28946  23401279.022    23401285.663
  22791442.373   -15508162.45249 -11615050.71146  22791442.143    22791446.450
  22312124.663   -15826745.16849 -12315418.68347  22312124.498    22312129.603
  23536829.265    -9550379.02349  -6628645.87145  23536828.693    23536835.034
  24019623.707    -5216885.83249  -4052912.07145  24019623.361    24019630.883
  23883615.823    -8044791.04349  -6228034.57345  23883615.447    23883619.740
 03  3 26  3 11  0.0000000  0  7G14G31G11G25G15G 3G18
  20681549.566   -22647717.12149 -17630349.36448  20681549.182    20681552.703
  23413954.849    -6764903.28649  -5253735.57846  23413954.486    23413961.080
  22775779.601   -15590470.28449 -11679186.60746  22775779.386    22775783.703
  22296015.397   -15911399.62349 -12381383.12947  22296015.230    22296020.363
  23557316.435    -9442717.76549  -6544753.99245  23557315.910    23557322.403
  24035663.902    -5132594.01349  -3987230.13145  24035663.586    24035671.087
  23897430.740    -7972192.92749  -6171464.60745  23897430.353    23897434.526
 03  3 26  3 11 30.0000000  0  7G14G31G11G25G15G 3G18
  20690213.083   -22602189.78349 -17594873.50048  20690212.714    20690216.220
  23426684.098    -6698011.08149  -5201611.80546  23426683.684    23426690.203
  22760172.271   -15672486.94149 -11743095.61446  22760172.061    22760176.401
  22279958.754   -15995777.08249 -12447131.73047  22279958.626    22279963.751
  23577840.805    -9334861.39049  -6460710.07745  23577840.291    23577846.876
  24051712.625    -5048257.45949  -3921513.35245  24051712.246    24051719.779
  23911263.526    -7899500.54149  -6114821.19645  23911263.097    23911267.365
 03  3 26  3 12  0.0000000  0  7G14G31G11G25G15G 3G18
  20698942.163   -22556318.26549 -17559129.45248  20698941.781    20698945.277
  23439467.157    -6630835.27649  -5149267.04146  23439466.775    23439473.283
  22744621.706   -15754205.76549 -11806772.55646  22744621.516    22744625.797
  22263956.219   -16079870.91249 -12512659.32447  22263956.114    22263961.157
  23598402.838    -9226807.72949  -6376512.42645  23598402.246    23598408.815
  24067770.182    -4963874.81049  -3855760.64945  24067769.820    24067777.281
  23925115.102    -7826709.94849  -6058101.26545  23925114.678    23925118.983
 03  3 26  3 12 30.0000000  0  7G14G31G11G25G15G 3G18
  20707735.694   -22510107.78949 -17523121.27848  20707735.323    20707738.836
  23452303.052    -6563381.89949  -5096705.99246  23452302.749    23452309.267
  22729127.663   -15835627.69049 -11870218.14746  22729127.462    22729131.700
  22248007.507   -16163681.66749 -12577966.34447  22248007.395    22248012.418
  23619001.449    -9118561.78149  -6292164.96345  23619000.756    23619007.251
  24083835.330    -4879452.15949  -3789976.78145  24083834.918    24083842.421
  23938984.911    -7753824.04449  -6001307.06445  23938984.535    23938988.785
 03  3 26  3 13  0.0000000  0  7G14G31G11G25G15G 3G18
  20716593.792   -22463558.04349 -17486848.74148  20716593.421    20716596.937
  23465191.737    -6495651.81249  -5043929.32546  23465191.356    23465197.922
  22713690.935   -15916748.12549 -11933428.82146  22713690.719    22713694.951
  22232113.526   -16247204.41249 -12643048.94347  22232113.468    22232118.510
  23639636.638    -9010123.55849  -6207667.66645  23639636.000    23639642.354
  24099907.899    -4794990.17849  -3724162.24945  24099907.551    24099915.018
  23952873.260    -7680840.61149  -5944436.85745  23952872.841    23952877.025
 03  3 26  3 13 30.0000000  0  7G14G31G11G25G15G 3G18
  20725515.404   -22416674.69249 -17450316.24048  20725515.015    20725518.506
  23478131.800    -6427651.37549  -4990941.99246  23478131.467    23478138.050
  22698311.291   -15997568.22149 -11996405.46346  22698311.037    22698315.332
  22216274.263   -16330439.88249 -12707907.69147  22216274.214    22216279.233
  23660307.440    -8901498.49849  -6123024.77445  23660306.730    23660313.081
  24115986.692    -4710495.13349  -3658321.94545  24115986.330    24115993.926
  23966779.414    -7607763.38549  -5887493.56145  23966778.954    23966783.190
 03  3 26  3 14  0.0000000  0  7G14G31G11G25G15G 3G18
  20734500.697   -22369456.50449 -17413522.83748  20734500.294    20734503.817
  23491123.353    -6359380.54549  -4937743.96546  23491122.954    23491129.567
  22682989.861   -16078082.35749 -12059143.70946  22682989.623    22682993.939
  22200490.731   -16413382.58049 -12772538.31047  22200490.700    22200495.673
  23681013.738    -8792685.67949  -6038235.58145  23681013.046    23681019.513
  24132071.713    -4625967.09249  -3592455.95145  24132071.424    24132079.067
  23980704.047    -7534589.20649  -5830474.72245  23980703.584    23980707.888
 03  3 26  3 14 30.0000000  0  7G14G31G11G25G15G 3G18
  20743549.595   -22321904.15949 -17376469.04548  20743549.220    20743552.730
  23504165.985    -6290840.86149  -4884336.43246  23504165.565    23504172.192
  22667727.324   -16158287.00449 -12121640.78746  22667727.080    22667731.398
  22184763.703   -16496028.33349 -12836937.52847  22184763.658    22184768.620
  23701755.619    -8683685.59649  -5953300.45745  23701755.006    23701761.616
  24148162.760    -4541407.30149  -3526565.20445  24148162.565    24148170.249
  23994647.412    -7461316.38649  -5773379.01745  23994647.012    23994651.344
 03  3 26  3 15  0.0000000  0  7G14G31G11G25G15G 3G18
  20752661.017   -22274023.29449 -17339159.26648  20752660.622    20752664.110
  23517258.660    -6222038.69649  -4830724.37546  23517258.291    23517264.869
  22652523.480   -16238183.34849 -12183897.65146  22652523.285    22652527.525
  22169092.967   -16578378.32549 -12901106.30147  22169092.936    22169097.887
  23722532.300    -8574503.77049  -5868223.73045  23722531.693    23722538.216
  24164258.900    -4456821.92249  -3460654.53245  24164258.642    24164266.342
  24008608.807    -7387948.38649  -5716209.14045  24008608.477    24008612.887
 03  3 26  3 15 30.0000000  0  7G14G31G11G25G15G 3G18
  20761834.447   -22225816.41049 -17301595.44748  20761834.052    20761837.548
  23530400.587    -6152977.54649  -4776910.50546  23530400.203    23530406.782
  22637378.777   -16317769.12949 -12245912.51546  22637378.599    22637382.790
  22153478.984   -16660429.95349 -12965042.58047  22153478.996    22153483.910
  23743343.139    -8465142.69549  -5783007.33445  23743342.525    23743348.865
  24180359.286    -4372214.42949  -3394726.61845  24180358.956    24180366.557
  24022588.292    -7314485.67849  -5658965.47645  24022587.939    24022592.374
 03  3 26  3 16  0.0000000  0  7G14G31G11G25G15G 3G18
  20771070.298   -22177281.47949 -17263776.00748  20771069.918    20771073.414
  23543591.979    -6083656.33649  -4722894.00246  23543591.640    23543598.223
  22622294.469   -16397038.05249 -12307680.49346  22622294.291    22622298.343
  22137922.932   -16742176.92049 -13028741.46547  22137922.975    22137927.888
  23764188.247    -8355600.28549  -5697649.62745  23764187.685    23764194.104
  24196464.126    -4287583.67449  -3328780.58245  24196463.767    24196471.297
  24036586.745    -7240923.98549  -5601644.70645  24036586.327    24036590.623
 03  3 26  3 16 30.0000000  0  7G14G31G11G25G15G 3G18
  20780367.287   -22128425.30749 -17225706.24448  20780366.901    20780370.429
  23556831.399    -6014082.85349  -4668680.91246  23556831.005    23556837.646
  22607269.896   -16475992.66349 -12369203.55146  22607269.703    22607273.716
  22122424.640   -16823621.19649 -13092204.47647  22122424.634    22122429.475
  23785066.451    -8245883.37849  -5612155.94445  23785065.982    23785072.608
  24212571.929    -4202937.13749  -3262822.24545  24212571.455    24212578.923
  24050602.863    -7167268.68249  -5544250.97245  24050602.504    24050606.703
 03  3 26  3 17  0.0000000  0  7G14G31G11G25G15G 3G18
  20789726.000   -22079245.03349 -17187383.93548  20789725.612    20789729.122
  23570119.152    -5944255.44249  -4614269.95446  23570118.746    23570125.379
  22592306.455   -16554625.82349 -12430476.11546  22592306.272    22592310.338
  22106985.277   -16904755.86149 -13155426.23847  22106985.223    22106990.002
  23805978.614    -8135989.30549  -5526524.20845  23805978.114    23805984.821
  24228683.039    -4118272.84649  -3196850.07345  24228682.692    24228689.943
  24064637.670    -7093514.83949  -5486780.43245  24064637.369    24064641.602
 03  3 26  3 17 30.0000000  0  7G14G31G11G25G15G 3G18
  20799145.472   -22029745.20949 -17148812.63048  20799145.101    20799148.624
  23583454.166    -5874179.43549  -4559665.28446  23583453.715    23583460.373
  22577404.079   -16632937.80149 -12491498.41346  22577403.939    22577408.038
  22091604.702   -16985580.65249 -13218406.54747  22091604.671    22091609.495
  23826923.935    -8025922.58749  -5440757.95545  23826923.234    23826929.837
  24244796.454    -4033596.21749  -3130868.28645  24244796.077    24244803.421
  24078690.933    -7019664.62449  -5429234.81645  24078690.649    24078694.865
 03  3 26  3 18  0.0000000  0  7G14G31G11G25G15G 3G18
  20808625.395   -21979927.76949 -17109993.83448  20808625.029    20808628.518
  23596835.869    -5803857.76549  -4504869.18346  23596835.461    23596842.137
  22562563.357   -16710926.00349 -12552268.42146  22562563.193    22562567.317
  22076283.715   -17066092.86749 -13281143.28647  22076283.677    22076288.563
  23847901.461    -7915685.27449  -5354858.77145  23847900.802    23847907.400
  24260911.688    -3948909.92849  -3064878.97345  24260911.331    24260918.708
  24092762.635    -6945717.65249  -5371613.79945  24092762.278    24092766.570
 03  3 26  3 18 30.0000000  0  7G14G31G11G25G15G 3G18
  20818165.582   -21929793.92849 -17070928.47648  20818165.194    20818168.653
  23610264.095    -5733292.62049  -4449883.36646  23610263.625    23610270.338
  22547784.835   -16788587.39149 -12612783.75346  22547784.654    22547788.766
  22061022.930   -17146289.21849 -13343633.89347  22061022.822    22061027.630
  23868911.044    -7805278.47949  -5268827.50645  23868910.528    23868917.015
  24277028.429    -3864215.79849  -2998883.56845  24277027.983    24277035.470
  24106852.754    -6871673.49049  -5313917.05245  24106852.413    24106856.583
 03  3 26  3 19  0.0000000  0  7G14G31G11G25G15G 3G18
  20827764.936   -21879348.69149 -17031620.48648  20827764.539    20827768.050
  23623737.479    -5662489.69049  -4394712.26446  23623736.997    23623743.720
  22533068.481   -16865922.16549 -12673044.57946  22533068.361    22533072.395
  22045822.238   -17226169.34849 -13405878.09947  22045822.085    22045826.840
  23889951.885    -7694707.03849  -5182667.93045  23889951.441    23889957.968
  24293145.605    -3779519.45849  -2932886.43945  24293145.136    24293152.714
  24120960.919    -6797534.80949  -5256146.66045  24120960.616    24120964.732
 03  3 26  3 19 30.0000000  0  7G14G31G11G25G15G 3G18
  20837424.157   -21828589.20849 -16992067.62048  20837423.772    20837427.268
  23637256.357    -5591447.10649  -4339354.40546  23637255.968    23637262.655
  22518415.743   -16942923.15749 -12733045.30946  22518415.575    22518419.597
  22030682.983   -17305726.41049 -13467870.56147  22030682.836    22030687.561
  23911024.770    -7583968.10549  -5096377.87245  23911024.343    23911030.840
  24309263.429    -3694818.84349  -2866885.94945  24309263.117    24309270.682
  24135088.050    -6723296.86449  -5198298.93145  24135087.647    24135091.750
 03  3 26  3 20  0.0000000  0  7G14G31G11G25G15G 3G18
  20847141.694   -21777523.08349 -16952275.81448  20847141.305    20847144.784
  23650819.256    -5520173.60249  -4283816.62646  23650818.899    23650825.533
  22503825.918   -17019593.42449 -12792788.32046  22503825.735    22503829.735
  22015604.675   -17384963.20349 -13529613.46447  22015604.514    22015609.230
  23932128.201    -7473069.52049  -5009963.39845  23932127.613    23932134.172
  24325380.450    -3610122.31849  -2800888.66545  24325380.250    24325387.886
  24149232.796    -6648965.28649  -5140378.22645  24149232.434    24149236.610
 03  3 26  3 20 30.0000000  0  7G14G31G11G25G15G 3G18
  20856918.158   -21726147.18749 -16912242.63248  20856917.796    20856921.258
  23664426.426    -5448667.45649  -4228097.56646  23664426.029    23664432.692
  22489300.240   -17095926.21249 -12852268.36246  22489300.032    22489304.060
  22000588.614   -17463872.89249 -13591101.47947  22000588.460    22000593.194
  23953262.415    -7362008.55849  -4923422.40745  23953261.892    23953268.485
  24341497.223    -3525428.09549  -2734893.18645  24341497.103    24341504.677
  24163396.338    -6574534.69949  -5082380.38445  24163396.009    24163400.255
 03  3 26  3 21  0.0000000  0  7G14G31G11G25G15G 3G18
  20866752.474   -21674467.52549 -16871972.74748  20866752.098    20866755.594
  23678076.654    -5376935.27249  -4172202.37446  23678076.249    23678082.842
  22474838.514   -17171922.79449 -12911486.41346  22474838.284    22474842.406
  21985634.557   -17542456.21649 -13652335.18547  21985634.492    21985639.251
  23974426.446    -7250790.96049  -4836759.33745  23974425.920    23974432.496
  24357612.255    -3440742.72049  -2668904.60045  24357612.176    24357619.705
  24177578.139    -6500008.85349  -5024308.30845  24177577.781    24177582.136
 03  3 26  3 21 30.0000000  0  7G14G31G11G25G15G 3G18
  20876644.754   -21622483.17749 -16831465.44248  20876644.400    20876647.873
  23691769.971    -5304976.93349  -4116130.94346  23691769.529    23691776.058
  22460441.800   -17247577.82149 -12970438.31946  22460441.570    22460445.693
  21970743.744   -17620707.96149 -13713310.51247  21970743.641    21970748.381
  23995620.610    -7139415.62549  -4749973.36745  23995620.018    23995626.447
  24373725.736    -3356065.53449  -2602922.39145  24373725.631    24373733.191
  24191778.600    -6425384.89649  -4966159.78645  24191778.310    24191782.600
 03  3 26  3 22  0.0000000  0  7G14G31G11G25G15G 3G18
  20886594.524   -21570196.85949 -16790722.84248  20886594.142    20886597.588
  23705505.435    -5232796.27749  -4059886.30046  23705505.011    23705511.570
  22446110.411   -17322889.75449 -13029122.89646  22446110.171    22446114.190
  21955916.386   -17698626.37849 -13774026.10847  21955916.216    21955920.925
  24016844.128    -7027885.51749  -4663066.80945  24016843.665    24016849.900
  24389837.152    -3271400.14149  -2536949.36345  24389837.027    24389844.532
  24205997.586    -6350663.68949  -4907935.47245  24205997.306    24206001.692
 03  3 26  3 22 30.0000000  0  7G14G31G11G25G15G 3G18
  20896600.976   -21517612.50449 -16749748.00548  20896600.594    20896604.032
  23719282.181    -5160398.38449  -4003472.35246  23719281.853    23719288.423
  22431844.279   -17397858.27849 -13087539.86746  22431844.048    22431848.070
  21941152.420   -17776210.64949 -13834481.33147  21941152.337    21941157.065
  24038096.359    -6916204.72749  -4576042.83045  24038095.862    24038102.038
  24405945.427    -3186751.33549  -2470989.27745  24405945.206    24405952.684
  24220234.766    -6275846.97049  -4849636.73645  24220234.450    24220238.879
 03  3 26  3 23  0.0000000  0  7G14G31G11G25G15G 3G18
  20906664.036   -21464730.62649 -16708541.33048  20906663.658    20906667.064
  23733100.217    -5087784.52249  -3946890.13946  23733099.836    23733106.423
  22417644.233   -17472479.41249 -13145686.14746  22417644.038    22417648.085
  21926452.960   -17853456.60849 -13894672.93047  21926452.903    21926457.611
  24059377.084    -6804373.76849  -4488901.83045  24059376.511    24059382.774
  24422050.343    -3102120.38949  -2405043.12045  24422049.966    24422057.368
  24234490.406    -6200933.28549  -4791262.41945  24234489.952    24234494.407
 03  3 26  3 23 30.0000000  0  7G14G31G11G25G15G 3G18
  20916783.573   -21411551.85749 -16667103.31348  20916783.202    20916786.621
  23746959.044    -5014956.49449  -3890141.04246  23746958.623    23746965.160
  22403511.117   -17546749.42749 -13203558.83046  22403510.942    22403514.963
  21911818.624   -17930360.64249 -13954598.09147  21911818.514    21911823.196
  24080686.111    -6692393.55949  -4401644.52845  24080685.538    24080691.984
  24438151.394    -3017508.70449  -2339111.95345  24438151.060    24438158.419
  24248764.736    -6125921.35249  -4732811.58245  24248764.310    24248768.791
 03  3 26  3 24  0.0000000  0  7G14G31G11G25G15G 3G18
  20926958.736   -21358081.07749 -16625437.76248  20926958.358    20926961.770
  23760857.274    -4941920.07749  -3833229.55046  23760856.921    23760863.486
  22389444.738   -17620668.86449 -13261158.34647  22389444.560    22389448.497
  21897249.192   -18006923.07249 -14014257.07747  21897249.110    21897253.839
  24102022.715    -6580268.83649  -4314274.62545  24102022.167    24102028.613
  24454247.729    -2932921.61349  -2273199.95645  24454247.427    24454254.940
  24263057.162    -6050813.80449  -4674286.22845  24263056.706    24263061.342
 03  3 26  3 24 30.0000000  0  7G14G31G11G25G15G 3G18
  20937189.391   -21304318.67549 -16583544.96848  20937188.996    20937192.372
  23774795.139    -4868676.50149  -3776156.64846  23774794.702    23774801.299
  22375445.727   -17694233.95549 -13318481.73747  22375445.552    22375449.521
  21882745.617   -18083139.68349 -14073646.59047  21882745.531    21882750.260
  24123386.834    -6467999.90149  -4226792.34645  24123386.287    24123392.620
  24470339.203    -2848360.07249  -2207307.87245  24470338.917    24470346.452
  24277368.146    -5975608.59449  -4615684.76045  24277367.659    24277372.329
 03  3 26  3 25  0.0000000  0  7G14G31G11G25G15G 3G18
  20947475.355   -21250265.42249 -16541425.54548  20947474.985    20947478.380
  23788772.054    -4795227.65349  -3718923.79746  23788771.596    23788778.198
  22361514.890   -17767440.91449 -13375526.07947  22361514.695    22361518.643
  21868308.536   -18159006.90149 -14132763.84747  21868308.405    21868313.125
  24144778.262    -6355587.59449  -4139198.35645  24144777.698    24144783.947
  24486425.440    -2763825.81349  -2141437.04045  24486425.211    24486432.745
  24291698.043    -5900304.84349  -4557006.53245  24291697.597    24291702.160
 03  3 26  3 25 30.0000000  0  7G14G31G11G25G15G 3G18
  20957815.596   -21195926.89649 -16499083.82448  20957815.226    20957818.637
  23802786.686    -4721580.16049  -3661536.14746  23802786.254    23802792.767
  22347651.912   -17840291.13149 -13432292.43247  22347651.693    22347655.647
  21853937.684   -18234525.88249 -14191609.75047  21853937.584    21853942.288
  24166195.761    -6243037.93649  -4051497.33445  24166195.221    24166201.348
  24502505.343    -2679325.12249  -2075592.34445  24502505.189    24502512.737
  24306046.114    -5824906.20949  -4498254.36145  24306045.624    24306050.003
 03  3 26  3 26  0.0000000  0  7G14G31G11G25G15G 3G18
  20968210.134   -21141303.24849 -16456519.93348  20968209.750    20968213.161
  23816838.910    -4647735.29949  -3603994.70646  23816838.456    23816844.989
  22333857.576   -17912780.26049 -13488777.41347  22333857.412    22333861.336
  21839633.984   -18309692.11449 -14250180.78147  21839633.886    21839638.573
  24187639.275    -6130351.00049  -3963689.32145  24187638.746    24187644.998
  24518578.764    -2594858.65549  -2009774.33545  24518578.671    24518586.239
  24320412.319    -5749410.91049  -4439426.84845  24320411.800    24320416.373
 03  3 26  3 26 30.0000000  0  7G14G31G11G25G15G 3G18
  20978658.822   -21086395.06949 -16413734.32548  20978658.437    20978661.815
  23830928.337    -4573694.51449  -3546300.60045  23830927.952    23830934.463
  22320132.752   -17984904.75049 -13544978.27047  22320132.564    22320136.466
  21825398.073   -18384501.96549 -14308474.12347  21825398.002    21825402.663
  24209108.865    -6017527.28449  -3875774.75245  24209108.273    24209114.691
  24534645.529    -2510427.66749  -1943983.96345  24534645.338    24534653.010
  24334797.283    -5673817.22849  -4380522.69645  24334796.782    24334801.389
 03  3 26  3 27  0.0000000  0  7G14G31G11G25G15G 3G18
  20989161.038   -21031205.44949 -16370729.41748  20989160.656    20989164.032
  23845054.265    -4499461.97249  -3488457.07045  23845053.893    23845060.539
  22306477.537   -18056663.53249 -13600894.16647  22306477.347    22306481.185
  21811230.251   -18458954.35549 -14366488.92247  21811230.140    21811234.780
  24230603.884    -5904570.32749  -3787756.35545  24230603.292    24230609.790
  24550704.773    -2426036.08049  -1878224.29245  24550704.601    24550712.239
  24349200.800    -5598126.07349  -4321542.59645  24349200.398    24349204.938
 03  3 26  3 27 30.0000000  0  7G14G31G11G25G15G 3G18
  20999716.444   -20975736.41449 -16327506.78748  20999716.059    20999719.447
  23859216.155    -4425040.65349  -3430466.44645  23859215.829    23859222.361
  22292892.293   -18128054.12349 -13656523.15247  22292892.092    22292895.943
  21797130.955   -18533046.36049 -14424222.90447  21797130.860    21797135.458
  24252123.941    -5791482.10049  -3699635.67445  24252123.324    24252129.870
  24566755.917    -2341686.84449  -1812497.62345  24566755.759    24566763.268
  24363622.754    -5522337.84249  -4262486.82945  24363622.376    24363626.835
 03  3 26  3 28  0.0000000  0  7G14G31G11G25G15G 3G18
  21010324.474   -20919990.69849 -16284068.55748  21010324.085    21010327.495
  23873413.320    -4350434.24349  -3372331.58245  23873412.960    23873419.406
  22279377.381   -18199075.05349 -13711864.09147  22279377.188    22279381.078
  21783100.530   -18606776.29649 -14481674.75147  21783100.463    21783105.035
  24273668.539    -5678265.13549  -3611414.66645  24273667.820    24273674.259
  24582798.448    -2257383.06949  -1746806.38145  24582798.243    24582805.667
  24378063.078    -5446452.88449  -4203355.68645  24378062.858    24378067.317
 03  3 26  3 28 30.0000000  0  7G14G31G11G25G15G 3G18
  21020984.742   -20863970.55349 -16240416.48348  21020984.375    21020987.768
  23887645.063    -4275646.14749  -3314055.15445  23887644.638    23887651.189
  22265933.256   -18269724.25949 -13766915.37447  22265933.036    22265936.892
  21769139.312   -18680142.75549 -14538843.37447  21769139.249    21769143.834
  24295236.964    -5564922.19349  -3523095.50245  24295236.188    24295242.744
  24598831.590    -2173127.90949  -1681153.01545  24598831.414    24598838.859
  24392521.909    -5370471.69649  -4144149.57345  24392521.519    24392525.864
 03  3 26  3 29  0.0000000  0  7G14G31G11G25G15G 3G18
  21031697.085   -20807676.79649 -16196551.20748  21031696.679    21031700.058
  23901911.128    -4200678.03549  -3255638.44545  23901910.661    23901917.274
  22252560.507   -18339998.54349 -13821674.51547  22252560.293    22252564.128
  21755248.053   -18753141.69249 -14595725.61247  21755247.985    21755252.550
  24316829.130    -5451454.08649  -3434678.78745  24316828.370    24316834.880
  24614855.327    -2088922.54749  -1615538.44445  24614855.160    24614862.745
  24406999.235    -5294392.91449  -4084867.41845  24406998.757    24407002.926
 03  3 26  3 29 30.0000000  0  7G14G31G11G25G15G 3G18
  21042460.873   -20751112.41049 -16152475.05448  21042460.528    21042463.906
  23916210.566    -4125534.09349  -3197084.72945  23916210.092    23916216.758
  22239259.414   -18409896.29249 -13876140.24647  22239259.151    22239263.005
  21741426.969   -18825771.67249 -14652320.35347  21741426.934    21741431.481
  24338444.644    -5337863.94249  -3346166.99545  24338443.945    24338450.199
  24630868.828    -2004770.74149  -1549965.61545  24630868.515    24630876.182
  24421495.068    -5218217.54149  -4025509.99445  24421494.591    24421498.722
 03  3 26  3 30  0.0000000  0  7G14G31G11G25G15G 3G18
  21053276.425   -20694276.48749 -16108187.30448  21053276.030    21053279.414
  23930543.403    -4050214.33449  -3138394.01345  23930542.940    23930549.574
  22226030.876   -18479412.43349 -13930308.61547  22226030.599    22226034.526
  21727677.127   -18898027.31049 -14708623.39947  21727677.112    21727681.656
  24360083.647    -5224150.79649  -3257559.35545  24360082.906    24360088.926
  24646872.337    -1920672.01949  -1484434.14545  24646871.896    24646879.696
  24436009.752    -5141942.72049  -3966075.08845  24436009.222    24436013.416
 03  3 26  3 30 30.0000000  0  7G14G31G11G25G15G 3G18
  21064142.701   -20637173.71749 -16063691.63048  21064142.298    21064145.703
  23944908.578    -3974724.41149  -3079570.70545  23944908.115    23944914.718
  22212874.849   -18548547.41649 -13984179.99147  22212874.617    22212878.498
  21713998.492   -18969909.09849 -14764635.13347  21713998.432    21714002.950
  24381744.925    -5110319.47949  -3168859.62845  24381744.260    24381750.287
  24662864.693    -1836631.79449  -1418948.27045  24662864.145    24662871.881
  24450542.833    -5065571.06049  -3906564.71045  24450542.292    24450546.508
 03  3 26  3 31  0.0000000  0  7G14G31G11G25G15G 3G18
  21075058.766   -20579809.00749 -16018991.84548  21075058.401    21075061.803
  23959304.988    -3899070.44149  -3020619.56245  23959304.539    23959311.171
  22199791.296   -18617301.88449 -14037754.86147  22199791.035    22199794.913
  21700390.769   -19041417.90149 -14820356.23247  21700390.702    21700395.219
  24403427.653    -4996375.28749  -3080071.94145  24403426.840    24403433.226
  24678844.781    -1752656.08449  -1353512.65845  24678844.302    24678851.908
  24465093.538    -4989105.59849  -3846981.25445  24465093.069    24465097.403
